[[{"header":{"parameterUnit":"m.s-1","parameterCategory":1,"la1":30.6,"la2":29.2853,"lo1":-89.7004,"lo2":-87.6739,"dy":0.0162,"dx":0.0183,"nx":112,"ny":82,"refTime":"2023-05-22T00:00:00:Z","depth":0,"parameterNumber":2,"parameterNumberName":"U-component_of_WINDS"},"data":[0.0,0.0,0.0,0.0,0.0,0.0,0.0,0.0,0.0,0.0,0.0,0.0,0.0,0.0,0.0,0.0,0.0,0.0,0.0,0.0,0.0,0.0,0.0,0.0,0.0,0.0,0.0,0.0,0.0,0.0,0.0,0.0,0.0,0.0,0.0,0.0,0.0,0.0,0.0,0.0,0.0,0.0,0.0,0.0,0.0,0.0,0.0,0.0,0.0,0.0,0.0,0.0,0.0,0.0,0.0,0.0,0.0,0.0,0.0,0.0,0.0,0.0,0.0,0.0,0.0,0.0,0.0,0.0,0.0,0.0,0.0,0.0,0.0,0.0,0.0,0.0,0.0,0.0,0.0,0.0,0.0,0.0,0.0,0.0,0.0,0.0,0.0,0.0,0.0,0.0,2.7865,3.066,3.418,3.6103,3.5565,3.4891,3.2955,2.9291,0.0,0.0,0.0,0.0,0.0,0.0,0.0,0.0,0.0,0.0,0.0,0.0,0.0,0.0,0.0,0.0,0.0,0.0,0.0,0.0,0.0,0.0,0.0,0.0,0.0,0.0,0.0,0.0,0.0,0.0,0.0,0.0,0.0,0.0,0.0,0.0,0.0,0.0,0.0,0.0,0.0,0.0,0.0,0.0,0.0,0.0,0.0,0.0,0.0,0.0,0.0,0.0,0.0,0.0,0.0,0.0,0.0,0.0,0.0,0.0,0.0,0.0,0.0,0.0,0.0,0.0,0.0,0.0,0.0,0.0,0.0,0.0,0.0,0.0,0.0,0.0,0.0,0.0,0.0,0.0,0.0,0.0,0.0,0.0,0.0,0.0,0.0,0.0,0.0,0.0,0.0,0.0,0.0,0.0,0.0,0.0,0.0,0.0,0.0,0.0,0.0,0.0,0.0,0.0,2.8281,3.2141,3.3769,3.4834,3.5449,3.216,2.9709,2.8893,0.0,0.0,0.0,0.0,0.0,0.0,0.0,0.0,0.0,0.0,0.0,0.0,0.0,0.0,0.0,0.0,0.0,0.0,0.0,0.0,0.0,0.0,0.0,0.0,0.0,0.0,0.0,0.0,0.0,0.0,0.0,0.0,0.0,0.0,0.0,0.0,0.0,0.0,0.0,0.0,0.0,0.0,0.0,0.0,0.0,0.0,0.0,0.0,0.0,0.0,0.0,0.0,0.0,0.0,0.0,0.0,0.0,0.0,0.0,0.0,0.0,0.0,0.0,0.0,0.0,0.0,0.0,0.0,0.0,0.0,0.0,0.0,0.0,0.0,0.0,0.0,0.0,0.0,0.0,0.0,0.0,0.0,0.0,0.0,0.0,0.0,0.0,0.0,0.0,0.0,0.0,0.0,0.0,0.0,0.0,0.0,0.0,0.0,0.0,0.0,0.0,0.0,0.0,2.8054,2.9857,3.2609,3.368,3.416,3.4103,3.1025,2.8868,2.8337,2.7511,0.0,0.0,0.0,0.0,0.0,0.0,0.0,0.0,0.0,0.0,0.0,0.0,0.0,0.0,0.0,0.0,0.0,0.0,0.0,0.0,0.0,0.0,0.0,0.0,0.0,0.0,0.0,0.0,0.0,0.0,0.0,0.0,0.0,0.0,0.0,0.0,0.0,0.0,0.0,0.0,0.0,0.0,0.0,0.0,0.0,0.0,0.0,0.0,0.0,0.0,0.0,0.0,0.0,0.0,0.0,0.0,0.0,0.0,0.0,0.0,0.0,0.0,0.0,0.0,0.0,0.0,0.0,0.0,0.0,0.0,0.0,0.0,0.0,0.0,0.0,0.0,0.0,0.0,0.0,0.0,0.0,0.0,0.0,0.0,0.0,0.0,0.0,0.0,0.0,0.0,0.0,0.0,0.0,0.0,0.0,0.0,0.0,0.0,0.0,0.0,0.0,0.0,2.933,3.0828,3.2436,3.3038,3.3032,3.2372,2.9602,2.7802,2.7539,2.5754,0.0,0.0,0.0,0.0,0.0,0.0,0.0,0.0,0.0,0.0,0.0,0.0,0.0,0.0,0.0,0.0,0.0,0.0,0.0,0.0,0.0,0.0,0.0,0.0,0.0,0.0,0.0,0.0,0.0,0.0,0.0,0.0,0.0,0.0,0.0,0.0,0.0,0.0,0.0,0.0,0.0,0.0,0.0,0.0,0.0,0.0,0.0,0.0,0.0,0.0,0.0,0.0,0.0,0.0,0.0,0.0,0.0,0.0,0.0,0.0,0.0,0.0,0.0,0.0,0.0,0.0,0.0,0.0,0.0,0.0,0.0,0.0,0.0,0.0,0.0,0.0,0.0,0.0,0.0,0.0,0.0,0.0,0.0,0.0,0.0,0.0,0.0,0.0,0.0,0.0,0.0,0.0,0.0,0.0,0.0,0.0,0.0,0.0,0.0,0.0,0.0,0.0,2.8807,2.9927,3.1602,3.1111,3.0643,3.0571,2.6813,2.5013,2.6333,2.4244,0.0,0.0,0.0,0.0,0.0,0.0,0.0,0.0,0.0,0.0,0.0,0.0,0.0,0.0,0.0,0.0,0.0,0.0,0.0,0.0,0.0,0.0,0.0,0.0,0.0,0.0,0.0,0.0,0.0,0.0,0.0,0.0,0.0,0.0,0.0,0.0,0.0,0.0,0.0,0.0,0.0,0.0,0.0,0.0,0.0,0.0,0.0,0.0,0.0,0.0,0.0,0.0,0.0,0.0,0.0,0.0,0.0,0.0,0.0,0.0,0.0,0.0,0.0,0.0,0.0,0.0,0.0,0.0,0.0,0.0,0.0,0.0,0.0,0.0,0.0,0.0,0.0,0.0,0.0,0.0,0.0,0.0,0.0,0.0,0.0,0.0,0.0,0.0,0.0,0.0,0.0,0.0,0.0,0.0,0.0,0.0,0.0,0.0,0.0,0.0,0.0,0.0,2.8709,2.9798,0.0,3.0924,3.0138,2.9461,2.6988,2.5444,2.537,0.0,0.0,0.0,0.0,0.0,0.0,0.0,0.0,0.0,0.0,0.0,0.0,0.0,0.0,0.0,0.0,0.0,0.0,0.0,0.0,0.0,0.0,0.0,0.0,0.0,0.0,0.0,0.0,0.0,0.0,0.0,0.0,0.0,0.0,0.0,0.0,0.0,0.0,0.0,0.0,0.0,0.0,0.0,0.0,0.0,0.0,0.0,0.0,0.0,0.0,0.0,0.0,0.0,0.0,0.0,0.0,0.0,0.0,0.0,0.0,0.0,0.0,0.0,0.0,0.0,0.0,0.0,0.0,0.0,0.0,0.0,0.0,0.0,0.0,0.0,0.0,0.0,0.0,0.0,0.0,0.0,0.0,0.0,0.0,0.0,0.0,0.0,0.0,0.0,0.0,0.0,0.0,0.0,0.0,0.0,0.0,0.0,0.0,0.0,0.0,0.0,0.0,2.7884,2.8225,2.8979,0.0,2.9809,2.8791,2.807,2.5925,2.4681,2.4785,0.0,0.0,0.0,0.0,0.0,0.0,0.0,0.0,0.0,0.0,0.0,0.0,0.0,0.0,0.0,0.0,0.0,0.0,0.0,0.0,0.0,0.0,0.0,0.0,0.0,0.0,0.0,0.0,0.0,0.0,0.0,0.0,0.0,0.0,0.0,0.0,0.0,0.0,0.0,0.0,0.0,0.0,0.0,0.0,0.0,0.0,0.0,0.0,0.0,0.0,0.0,0.0,0.0,0.0,0.0,0.0,0.0,0.0,0.0,0.0,0.0,0.0,0.0,0.0,0.0,0.0,0.0,0.0,0.0,0.0,0.0,0.0,0.0,0.0,0.0,0.0,0.0,0.0,0.0,0.0,0.0,0.0,0.0,0.0,0.0,0.0,0.0,0.0,0.0,0.0,0.0,0.0,0.0,0.0,0.0,0.0,0.0,0.0,0.0,0.0,0.0,0.0,2.7865,2.7212,2.724,2.891,2.7405,2.6301,2.6285,2.3064,2.2096,0.0,0.0,0.0,0.0,0.0,0.0,0.0,0.0,0.0,0.0,0.0,0.0,0.0,0.0,0.0,0.0,0.0,0.0,0.0,0.0,0.0,0.0,0.0,0.0,0.0,0.0,0.0,0.0,0.0,0.0,0.0,0.0,0.0,0.0,0.0,0.0,0.0,0.0,0.0,0.0,0.0,0.0,0.0,0.0,0.0,0.0,0.0,0.0,0.0,0.0,0.0,0.0,0.0,0.0,0.0,0.0,0.0,0.0,0.0,0.0,0.0,0.0,0.0,0.0,0.0,0.0,0.0,0.0,0.0,0.0,0.0,0.0,0.0,0.0,0.0,0.0,0.0,0.0,0.0,0.0,0.0,0.0,0.0,0.0,0.0,0.0,0.0,0.0,0.0,0.0,0.0,0.0,0.0,0.0,0.0,0.0,0.0,0.0,0.0,0.0,0.0,0.0,0.0,2.7026,2.6836,2.6976,2.795,2.7005,2.6187,2.5889,2.3871,2.3115,2.4301,0.0,0.0,0.0,0.0,0.0,0.0,0.0,0.0,0.0,0.0,0.0,0.0,0.0,0.0,0.0,0.0,0.0,0.0,0.0,0.0,0.0,0.0,0.0,0.0,0.0,0.0,0.0,0.0,0.0,0.0,0.0,0.0,0.0,0.0,0.0,0.0,0.0,0.0,0.0,0.0,0.0,0.0,0.0,0.0,0.0,0.0,0.0,0.0,0.0,0.0,0.0,0.0,0.0,0.0,0.0,0.0,0.0,0.0,0.0,0.0,0.0,0.0,0.0,0.0,0.0,0.0,0.0,0.0,0.0,0.0,0.0,0.0,0.0,0.0,0.0,0.0,0.0,0.0,0.0,0.0,0.0,0.0,0.0,0.0,0.0,0.0,0.0,0.0,0.0,0.0,0.0,0.0,0.0,0.0,0.0,0.0,0.0,0.0,0.0,0.0,0.0,0.0,2.6689,2.6301,2.6247,2.7002,2.6187,2.5476,2.5245,2.3675,2.2994,2.3676,0.0,0.0,0.0,0.0,0.0,0.0,0.0,0.0,0.0,0.0,0.0,0.0,0.0,0.0,0.0,0.0,0.0,0.0,0.0,0.0,0.0,0.0,0.0,0.0,0.0,0.0,0.0,0.0,0.0,0.0,0.0,0.0,0.0,0.0,0.0,0.0,0.0,0.0,0.0,0.0,0.0,0.0,0.0,0.0,0.0,0.0,0.0,0.0,0.0,0.0,0.0,0.0,0.0,0.0,0.0,0.0,0.0,0.0,0.0,0.0,0.0,0.0,0.0,0.0,0.0,0.0,0.0,0.0,0.0,0.0,0.0,0.0,0.0,0.0,0.0,0.0,0.0,0.0,0.0,0.0,0.0,0.0,0.0,0.0,0.0,0.0,0.0,0.0,0.0,0.0,0.0,0.0,0.0,0.0,0.0,0.0,0.0,0.0,0.0,0.0,0.0,0.0,2.6564,2.5687,2.5302,2.6077,2.5165,2.4485,2.4467,2.283,2.213,2.296,0.0,0.0,0.0,0.0,0.0,0.0,0.0,0.0,0.0,0.0,0.0,0.0,0.0,0.0,0.0,0.0,0.0,0.0,0.0,0.0,0.0,0.0,0.0,0.0,0.0,0.0,0.0,0.0,0.0,0.0,0.0,0.0,0.0,0.0,0.0,0.0,0.0,0.0,0.0,0.0,0.0,0.0,0.0,0.0,0.0,0.0,0.0,0.0,0.0,0.0,0.0,0.0,0.0,0.0,0.0,0.0,0.0,0.0,0.0,0.0,2.6582,2.6564,0.0,0.0,0.0,0.0,0.0,0.0,0.0,0.0,0.0,0.0,0.0,0.0,0.0,0.0,0.0,0.0,0.0,0.0,0.0,0.0,0.0,0.0,0.0,0.0,0.0,0.0,0.0,0.0,0.0,0.0,0.0,0.0,0.0,0.0,0.0,0.0,0.0,0.0,0.0,0.0,2.5678,2.5283,2.5031,2.5098,2.4744,2.4448,2.4282,2.2756,2.213,2.296,2.1602,0.0,0.0,0.0,0.0,0.0,0.0,0.0,0.0,0.0,0.0,0.0,0.0,0.0,0.0,0.0,0.0,0.0,0.0,0.0,0.0,0.0,0.0,0.0,0.0,0.0,0.0,0.0,0.0,0.0,0.0,0.0,0.0,0.0,0.0,0.0,0.0,0.0,0.0,0.0,0.0,0.0,0.0,0.0,0.0,0.0,0.0,0.0,0.0,0.0,0.0,0.0,0.0,0.0,0.0,0.0,0.0,0.0,0.0,0.0,2.686,2.7063,0.0,0.0,0.0,0.0,0.0,0.0,0.0,0.0,0.0,0.0,0.0,0.0,0.0,0.0,0.0,0.0,0.0,0.0,0.0,0.0,0.0,0.0,0.0,0.0,0.0,0.0,0.0,0.0,0.0,0.0,0.0,0.0,0.0,0.0,0.0,0.0,0.0,0.0,0.0,0.0,2.5286,2.5043,2.4836,2.4669,2.4468,2.4319,2.4208,2.2721,2.1984,2.2391,2.1216,0.0,0.0,0.0,0.0,0.0,0.0,0.0,0.0,0.0,0.0,0.0,0.0,0.0,0.0,0.0,0.0,0.0,0.0,0.0,0.0,0.0,0.0,0.0,0.0,0.0,0.0,0.0,0.0,0.0,0.0,0.0,0.0,0.0,0.0,0.0,0.0,0.0,0.0,0.0,0.0,0.0,0.0,0.0,0.0,0.0,0.0,0.0,0.0,0.0,0.0,0.0,0.0,0.0,3.5965,3.3748,3.2904,3.2755,3.0465,2.6713,2.8148,2.8159,2.7119,2.6581,0.0,0.0,0.0,0.0,0.0,0.0,0.0,0.0,0.0,0.0,0.0,0.0,0.0,0.0,0.0,0.0,0.0,0.0,0.0,0.0,0.0,0.0,2.6901,2.6833,2.7391,2.7516,2.6063,0.0,0.0,0.0,0.0,0.0,0.0,0.0,0.0,0.0,0.0,0.0,2.4924,2.4835,2.4719,2.4526,2.4321,2.4135,2.4006,2.263,2.1748,2.1565,2.0776,2.0338,0.0,0.0,0.0,0.0,0.0,0.0,0.0,0.0,0.0,0.0,0.0,0.0,0.0,0.0,0.0,0.0,0.0,0.0,0.0,0.0,0.0,0.0,0.0,0.0,0.0,0.0,0.0,0.0,0.0,0.0,0.0,0.0,2.6772,2.9851,0.0,0.0,0.0,0.0,0.0,0.0,0.0,0.0,0.0,0.0,0.0,0.0,0.0,2.5303,2.5302,2.8245,3.1903,3.6188,3.843,3.7168,3.2947,3.4374,3.3895,3.1919,3.2135,0.0,2.7659,2.611,0.0,0.0,0.0,0.0,0.0,0.0,0.0,0.0,0.0,0.0,0.0,0.0,0.0,0.0,0.0,0.0,0.0,0.0,0.0,0.0,0.0,0.0,2.7736,2.7734,2.783,2.783,2.7621,2.7044,2.6351,2.5457,2.538,2.5457,0.0,0.0,0.0,0.0,0.0,0.0,2.4095,2.446,2.4727,2.4528,2.4321,2.3914,2.3235,2.2318,2.1473,2.0721,1.9913,1.9767,2.0466,2.1343,0.0,0.0,0.0,0.0,0.0,0.0,0.0,0.0,0.0,0.0,0.0,0.0,0.0,0.0,0.0,0.0,0.0,0.0,0.0,0.0,0.0,0.0,0.0,0.0,0.0,0.0,0.0,0.0,0.0,2.755,2.778,2.8825,2.8183,2.8003,0.0,0.0,0.0,0.0,0.0,0.0,0.0,0.0,0.0,2.8217,2.9401,3.0954,3.2823,3.4326,3.5814,3.7343,4.0616,4.0415,3.7197,3.7964,3.8518,3.8861,3.8852,3.7009,3.3655,2.9474,2.7504,2.7043,0.0,0.0,0.0,0.0,2.7867,2.8836,2.9798,3.0217,3.041,3.0948,0.0,0.0,0.0,0.0,0.0,0.0,0.0,2.7477,2.7934,2.8318,2.8695,2.9194,2.931,2.9167,2.8679,2.8275,2.7601,2.6294,2.6428,2.6467,2.5524,2.539,0.0,0.0,0.0,2.5154,2.4448,2.462,2.4685,2.4357,2.4247,2.4061,2.3694,2.2942,2.2116,2.1272,2.0446,2.0134,2.0484,2.1342,2.2218,0.0,0.0,0.0,0.0,0.0,0.0,0.0,0.0,0.0,0.0,0.0,0.0,0.0,0.0,0.0,0.0,0.0,0.0,0.0,0.0,0.0,0.0,0.0,0.0,0.0,0.0,0.0,0.0,2.9056,2.9402,2.8234,2.7938,2.8154,0.0,0.0,0.0,0.0,0.0,0.0,3.8767,3.4916,3.2086,3.085,3.3287,3.6333,3.9882,3.9937,3.9937,3.9955,4.2359,4.272,4.1267,4.1264,4.2083,4.3497,4.3497,4.2139,3.9509,3.4189,3.1027,2.9419,2.8397,2.815,2.8514,2.9336,3.014,3.1064,3.2589,3.31,3.3119,3.3282,3.2583,3.1263,2.8929,0.0,0.0,0.0,0.0,2.8736,2.9548,2.9778,2.9971,3.084,3.1044,3.0814,2.9948,2.9775,2.9198,2.7294,2.7467,2.7409,2.589,2.5678,0.0,2.5082,2.5168,2.5099,2.453,2.4614,2.4575,2.4247,2.419,2.4116,2.3914,2.3345,2.2556,2.1528,2.107,2.0723,2.0503,2.1542,2.2388,2.2996,0.0,0.0,0.0,0.0,0.0,0.0,0.0,0.0,0.0,0.0,0.0,0.0,0.0,0.0,0.0,0.0,0.0,0.0,0.0,0.0,0.0,0.0,0.0,0.0,0.0,0.0,0.0,0.0,0.0,2.9182,3.0246,0.0,0.0,0.0,0.0,2.5303,3.1051,3.5994,3.9273,3.6233,3.3613,3.1966,3.5116,3.8899,4.322,4.324,4.324,4.3259,4.3406,4.3442,4.3367,4.3361,4.3416,4.3497,4.3497,4.3406,4.2983,3.9619,3.7287,3.5579,3.2817,3.1742,3.1784,3.1803,3.2406,3.3181,3.3539,3.3663,3.4113,3.6799,3.6584,3.4911,3.3122,3.1468,0.0,0.0,3.0263,3.0456,3.1352,3.1583,3.1775,3.2583,3.2776,3.2545,3.1737,3.1564,3.0833,2.8313,2.7871,2.7601,2.6697,0.0,2.6005,2.4399,2.4654,2.4664,2.3676,2.412,2.4426,2.4228,2.419,2.3896,2.3144,2.3015,2.23,2.0668,2.129,2.1363,2.0521,2.2079,2.296,2.2996,2.3805,0.0,0.0,0.0,0.0,0.0,0.0,0.0,0.0,0.0,0.0,0.0,0.0,0.0,0.0,0.0,0.0,0.0,0.0,0.0,0.0,0.0,0.0,0.0,0.0,0.0,0.0,0.0,0.0,3.2828,3.432,0.0,3.3258,2.9823,2.854,3.0611,3.4751,3.8169,4.0416,3.9284,3.8324,3.786,3.9034,4.0884,4.3461,4.3497,4.3497,4.3497,4.3497,4.3497,4.3497,4.3497,4.3497,4.3497,4.3497,4.3497,4.3406,4.2249,4.023,3.7734,3.6731,3.5329,3.4031,3.4755,3.5862,3.7068,3.7351,3.7419,3.7368,3.701,3.5507,3.3814,3.3757,3.2564,3.1468,3.2545,3.2449,3.2333,3.3776,3.3314,3.2699,3.3545,3.3314,3.2679,3.1872,3.2102,3.1872,2.989,2.9063,2.8409,2.7582,2.6967,2.6582,2.6544,2.5658,2.5025,2.5102,2.4754,2.4409,2.4228,2.419,2.408,2.3804,2.3768,2.3309,2.2172,2.2409,2.2428,2.2116,2.2667,2.3235,2.375,2.4043,2.4228,0.0,0.0,0.0,0.0,0.0,0.0,0.0,0.0,0.0,0.0,0.0,0.0,0.0,0.0,0.0,0.0,0.0,0.0,0.0,0.0,0.0,0.0,0.0,0.0,0.0,0.0,3.4851,3.5389,3.7393,3.7911,3.5897,3.3633,3.3164,3.5293,3.8487,4.079,4.1843,4.1259,4.1221,4.1878,4.1915,4.2441,4.3479,4.3497,4.3497,4.3497,4.3497,4.3497,4.3497,4.3497,4.3497,4.3497,4.3497,4.3497,4.3497,4.3497,4.2014,3.9726,3.9381,3.834,3.7161,3.7912,3.8847,3.9769,3.9769,3.9833,3.9637,3.7756,3.6107,3.4966,3.5359,3.4699,3.4064,3.5161,3.5064,3.4859,3.5902,3.5315,3.4572,3.507,3.4538,3.3697,3.2875,3.2953,3.2799,3.1385,3.0496,2.9621,2.8506,2.7832,2.7618,2.8088,2.6766,2.5868,2.6258,2.5424,2.4653,2.4246,2.419,2.419,2.419,2.419,2.3859,2.3052,2.3254,2.329,2.2997,2.3272,2.3657,2.419,2.419,2.4228,2.4303,0.0,0.0,0.0,0.0,0.0,0.0,0.0,0.0,0.0,0.0,0.0,0.0,0.0,0.0,0.0,0.0,0.0,0.0,0.0,0.0,0.0,0.0,0.0,3.1576,3.569,3.8155,3.6663,3.9243,3.9944,3.6853,3.7936,3.8854,3.8854,4.1735,4.3497,4.3497,4.2009,4.1894,4.3442,4.3497,4.3497,4.3497,4.3497,4.3497,4.3497,4.3497,4.3497,4.3497,4.3497,4.3497,4.3497,4.3497,4.3497,4.3497,4.3497,4.2878,4.1857,4.0822,4.0708,4.1132,4.113,4.1156,4.1042,4.0537,4.0574,4.0594,3.9295,3.8842,3.8727,3.8166,3.7993,3.7993,3.7993,3.7993,3.7909,3.76,3.7509,3.7433,3.7128,3.6462,3.5654,3.4766,3.4187,3.3579,3.2686,3.2105,3.1237,2.9467,2.914,2.9025,2.8784,2.7862,0.0,2.6954,2.6039,2.5127,2.4355,2.4245,2.4226,2.4226,2.4226,2.3896,2.3107,2.3768,2.3859,2.307,2.3786,2.419,2.419,2.419,2.4303,2.4495,0.0,0.0,0.0,0.0,0.0,0.0,0.0,0.0,0.0,0.0,0.0,0.0,0.0,0.0,0.0,0.0,0.0,0.0,0.0,0.0,0.0,0.0,3.5803,3.5818,3.7488,3.9202,4.0467,4.1965,4.2509,4.1607,4.1919,4.2176,4.2176,4.2983,4.3497,4.3497,4.3088,4.3051,4.3479,4.3497,4.3497,4.3497,4.3497,4.3497,4.3497,4.3497,4.3497,4.3497,4.3497,4.3497,4.3497,4.3497,4.3497,4.3497,4.3497,4.3332,4.3023,4.2742,4.2356,4.1959,4.1965,4.1949,4.1946,4.1805,4.1594,4.1215,4.0198,3.9621,3.9161,3.8433,3.7947,3.7712,3.8117,3.7944,3.7714,3.8004,3.7635,3.7039,3.6389,3.6069,3.5565,3.4281,3.4406,3.4372,3.3034,3.3179,3.2968,3.1275,2.9929,2.9217,2.9594,2.8256,2.7349,2.7718,2.639,2.5548,2.5902,2.5407,2.5058,2.5058,2.5058,2.4726,2.3914,2.408,2.4098,2.3878,2.408,2.419,2.419,2.419,2.4228,0.0,0.0,0.0,0.0,0.0,0.0,0.0,0.0,0.0,0.0,0.0,0.0,0.0,0.0,0.0,0.0,0.0,0.0,0.0,0.0,0.0,0.0,3.6869,3.9053,4.0336,4.064,4.1366,4.3094,4.3424,4.3497,4.3497,4.3497,4.3497,4.3497,4.3497,4.3497,4.3497,4.3497,4.3497,4.3497,4.3497,4.3497,4.3497,4.3497,4.3497,4.3497,4.3497,4.3497,4.3497,4.3497,4.3497,4.3497,4.3497,4.3497,4.3497,4.3497,4.3497,4.3497,0.0,0.0,0.0,0.0,4.2805,4.2768,4.2441,4.2109,4.1769,4.108,4.0624,4.0246,3.9547,3.9113,3.8878,3.8842,3.8632,3.8423,3.8599,3.8291,3.7772,3.7219,3.6559,3.5824,3.5033,3.4766,3.451,3.3789,3.3857,0.0,3.2752,3.1161,3.0226,3.082,2.9317,2.8203,2.8452,2.7269,2.634,2.6127,2.5682,2.5271,2.4947,2.4905,0.0,0.0,0.0,2.419,2.419,2.419,0.0,0.0,0.0,2.419,2.419,2.4538,0.0,0.0,2.5836,2.5887,0.0,0.0,0.0,0.0,0.0,0.0,0.0,0.0,0.0,0.0,0.0,0.0,0.0,0.0,0.0,0.0,3.9773,4.1521,4.4377,4.4196,4.4064,4.4739,4.4118,4.366,4.3679,4.3587,4.3497,4.3497,4.3497,4.3497,4.3497,4.3497,0.0,0.0,0.0,4.403,4.403,4.3663,4.3497,4.3497,4.3497,4.3497,4.3497,4.3497,4.3497,4.3497,4.3497,4.3497,4.3497,4.3497,4.3497,4.3497,4.3497,4.3497,4.3497,4.3497,4.3497,4.3406,4.266,0.0,0.0,4.1849,4.1669,4.1557,4.0896,4.0717,4.0556,3.9737,3.9537,3.9476,3.9149,3.9043,3.8962,3.8651,3.7459,3.6376,3.6232,3.5221,3.4423,3.4693,3.4281,3.3908,3.3941,3.2473,3.1461,3.194,3.0525,2.931,2.9021,2.8301,2.7298,2.5962,2.5658,0.0,2.4527,2.4395,2.4301,2.4208,2.419,2.419,2.419,2.419,2.419,2.419,2.419,2.419,2.419,2.4925,2.5004,2.4479,2.4801,2.4957,0.0,0.0,0.0,0.0,0.0,0.0,0.0,0.0,0.0,0.0,0.0,0.0,0.0,0.0,0.0,3.9479,4.1653,4.3571,4.4935,4.5417,4.57,4.5655,4.4957,4.4554,4.4757,4.4007,4.3497,4.3497,4.3497,4.3497,4.3497,4.3497,4.3497,4.3497,4.6012,4.737,4.737,4.48,4.3497,4.3497,4.3497,0.0,4.3497,4.3497,4.3497,4.3497,4.3497,4.3497,4.3497,4.3497,4.3497,4.3497,4.3497,4.3497,4.3497,4.3497,4.3497,4.3479,4.3332,4.3277,4.3151,4.2404,4.2161,4.1893,4.0498,4.0233,0.0,3.9138,3.9025,3.912,3.8839,3.8773,3.8596,3.7911,3.7477,3.6959,3.5892,3.5436,3.5202,3.504,3.4737,3.4586,3.4804,3.2874,3.1203,3.0954,3.0048,2.931,2.9021,2.8306,2.7917,2.8264,2.7142,2.6317,2.6147,2.5538,2.4892,2.4226,2.419,2.419,2.419,2.419,2.419,2.419,2.419,2.419,2.419,2.4355,2.4375,2.4266,2.53,2.5485,0.0,0.0,0.0,0.0,0.0,0.0,0.0,0.0,0.0,0.0,0.0,3.5937,0.0,0.0,4.0564,4.2276,4.3696,4.4952,4.6013,4.6059,4.6025,4.6048,4.5352,4.4948,4.5086,4.4118,4.3497,4.3497,4.4984,4.5902,4.5902,4.5902,4.5902,4.5902,4.7462,4.7697,4.6464,4.4655,4.3771,4.3826,4.3826,4.3734,4.3497,4.3497,4.3497,4.3497,4.3497,4.3497,4.3497,4.3497,4.3497,4.3497,4.3497,4.3497,4.3497,4.3497,4.3497,4.3497,4.3497,4.3497,4.3424,4.3041,4.2896,4.2603,4.0967,4.0887,4.1015,3.9694,3.9692,3.9993,3.9441,3.9301,3.9099,3.8267,3.7771,3.7316,3.6666,3.6194,3.5899,3.5907,3.5788,3.5612,3.5354,3.3884,3.2542,3.1896,3.0661,2.9747,2.9627,2.8897,2.8393,2.8393,2.7321,2.6454,2.6041,2.5262,2.4633,2.4226,2.419,2.419,2.419,2.419,2.419,2.419,2.419,2.419,2.419,2.419,2.4449,2.4968,2.5577,2.571,0.0,0.0,0.0,0.0,0.0,0.0,0.0,0.0,3.5322,3.6498,3.7658,3.8975,4.0572,4.205,4.3489,4.4886,4.5485,4.5971,4.653,4.6011,4.5684,4.585,4.5787,4.5717,4.5733,4.4362,4.3777,4.438,4.6382,4.7554,4.7554,4.7554,4.7554,4.7554,4.7797,4.6968,4.4978,4.452,4.4243,4.4189,4.417,4.408,4.3878,4.3815,4.3915,4.4099,4.3826,4.3642,4.3497,4.3497,4.3497,4.3497,4.3497,4.3497,4.3497,4.3497,4.3497,4.3497,4.3497,4.3497,4.3497,4.3497,4.3497,4.3224,4.177,4.1783,4.1995,4.0541,4.0583,4.0959,4.0294,4.0013,3.9749,3.9087,3.8334,3.7679,3.7544,3.6982,3.6564,3.6682,3.6656,3.6433,3.5848,3.4983,3.4032,3.3083,3.1494,3.0369,3.0228,2.9641,2.8915,2.8132,2.7305,2.6516,2.5705,2.4892,2.443,2.443,2.4301,2.419,2.419,2.419,2.419,2.419,2.419,2.419,2.419,2.4355,2.4837,2.5653,2.5838,2.6047,2.9557,3.0534,3.2326,3.5065,3.4778,3.5268,0.0,0.0,3.9645,4.1213,4.1813,4.2296,4.3144,4.4125,4.4971,4.553,4.642,4.6569,4.5118,4.4822,4.4754,4.4807,4.6659,4.7937,4.7921,4.5276,4.4669,4.7547,4.6063,4.4998,4.4998,4.4998,4.4998,4.4998,4.6063,4.647,4.6207,4.5624,4.4969,4.419,4.4087,4.4431,4.5247,4.4953,4.536,4.6276,4.5068,4.417,4.3497,4.3497,4.3497,4.3497,4.3497,4.3497,4.3497,4.3497,4.3497,4.3497,4.3497,4.3497,4.3497,4.3497,4.3497,4.3332,4.2459,4.2253,4.2112,4.1232,4.1024,4.1095,4.0988,4.0455,3.9878,3.9786,3.9154,3.8377,3.7643,3.7434,3.7229,3.6789,3.6496,3.6389,3.655,3.5653,3.4381,3.2855,3.1858,3.1023,3.0301,3.0118,2.9769,2.8957,2.815,2.7339,2.6542,2.5725,2.5262,2.5262,2.4615,2.419,2.419,2.419,2.419,2.419,2.419,2.419,2.419,2.4925,2.5311,2.5461,2.6339,2.687,3.4043,3.4674,3.5392,0.0,3.8589,4.0025,4.2302,4.2814,4.3119,4.4282,4.5012,4.5543,4.5863,4.6636,4.7143,0.0,4.7174,4.6914,4.4885,4.4587,4.3927,4.2168,4.2892,4.4477,4.6941,4.5335,4.4687,4.6063,4.5196,4.4587,4.4587,4.4587,4.4587,4.4587,4.5545,4.5836,4.5362,4.5452,4.5147,4.4451,4.4361,4.471,4.5341,4.5971,4.6379,4.6618,4.5274,4.4518,4.417,4.3697,4.3497,4.3497,4.3497,4.3497,4.3497,4.3497,4.3497,4.3497,4.3497,4.3497,4.3497,4.3497,4.3497,4.3351,4.2532,4.2616,4.2842,4.2004,4.215,4.237,4.1933,4.1562,4.1056,4.0105,3.9626,3.9173,3.8358,3.8193,3.8136,3.7914,3.7771,3.7573,3.723,3.6777,3.5962,3.4515,3.3055,3.1887,3.1337,3.1038,3.0411,2.9122,2.8283,2.747,2.6658,2.6289,2.6096,2.6096,2.5336,2.4892,2.4892,2.4448,2.419,2.419,2.4649,2.4905,2.4904,2.5713,2.6337,2.6817,2.7214,2.7709,3.6108,0.0,0.0,3.909,4.1682,4.3853,4.3767,4.4856,4.6078,4.6712,4.7197,4.7555,4.7555,4.8114,4.8363,4.7879,4.8036,4.7513,4.5483,4.4468,4.298,4.0392,4.007,4.1409,4.4766,4.4805,4.4587,4.4587,4.4587,4.4587,4.4587,4.4587,4.4587,4.4587,4.5321,4.5356,4.4607,4.5178,4.5211,4.4587,4.4587,4.4812,4.5324,4.6621,4.7053,4.674,4.5792,4.522,4.498,4.4173,4.3807,4.3789,4.3605,4.3497,4.3497,4.3497,4.3497,4.3497,4.3497,4.3497,4.3497,4.3497,4.3497,4.3387,4.2805,4.3041,4.3387,4.2787,4.3059,4.3369,4.2787,4.2477,4.2001,4.085,4.0215,3.9749,3.9173,3.8854,3.8707,3.8707,3.8707,3.8511,3.7937,3.765,3.7135,3.6018,3.4425,3.3087,3.2229,3.1592,3.0753,2.947,2.8805,2.815,2.7323,2.7063,2.694,2.6942,2.618,2.5737,2.5723,2.5165,2.4869,2.4869,2.5419,2.5731,2.5727,2.6536,2.7236,2.7805,2.8026,2.8448,3.3269,0.0,3.8188,4.0598,4.3051,4.5303,4.6951,4.7903,4.8417,4.8609,4.8114,4.7674,4.7674,4.7837,4.8122,4.886,4.8951,4.8443,4.6938,4.4198,4.1796,4.0257,4.007,4.051,0.0,4.3453,4.4587,4.4587,4.4587,4.4587,4.4587,4.4587,4.4587,4.4587,4.52,4.5217,4.458,4.5178,4.5214,4.4587,4.4587,4.4919,4.5533,4.6801,4.7293,4.709,4.7035,4.658,4.5792,4.4998,4.4646,4.4591,4.3789,4.3497,4.3497,4.3497,4.3497,4.3497,4.3497,4.3497,4.3497,4.3497,4.3497,4.3497,4.3461,4.3479,4.3479,4.3461,4.3479,4.3479,4.3461,4.2878,4.2278,4.2223,4.102,3.9878,3.986,3.9246,3.8707,3.8707,3.8707,3.8689,3.867,3.801,3.7296,3.6729,3.5971,3.4666,3.263,3.1482,3.064,3.0198,3.0152,2.9784,2.8994,2.8205,2.7757,2.7762,2.7009,2.6567,2.6567,2.6523,2.6539,2.6539,2.6557,2.6557,2.6576,2.7365,2.7769,2.7824,2.8613,2.8975,3.6806,0.0,4.2281,4.4749,4.676,4.8451,4.9593,4.9637,4.935,4.8901,4.7527,4.6198,4.5742,4.5247,4.5821,4.8562,4.8173,4.7361,4.6853,4.6177,4.4587,4.1457,4.1677,0.0,0.0,0.0,0.0,4.3741,4.3809,4.4045,4.4553,4.4587,4.4587,4.4587,4.4801,4.4801,4.457,4.4785,4.4785,4.4587,4.5422,4.5891,4.6122,4.7409,4.7974,4.7864,4.6782,4.614,4.5792,4.4471,4.3885,4.3897,4.3624,4.3497,4.3497,4.3497,4.3497,4.3497,4.3497,4.3497,4.3497,4.3497,4.3497,4.3497,4.3497,4.3497,4.3497,4.3497,4.3497,4.3497,4.3497,4.3314,4.2951,4.2441,4.1873,4.1203,4.0154,3.9712,3.9498,3.9498,3.9498,3.9663,4.0185,3.9626,3.8613,3.7242,3.5213,3.379,3.3702,3.2188,3.1296,3.1748,3.133,3.088,3.0614,2.9863,2.9389,2.9389,2.815,2.741,2.7409,2.6885,2.6609,2.6603,2.7123,2.7416,2.7401,2.8201,2.8613,2.8613,2.8865,2.8994,4.0172,4.2903,4.5244,4.7672,4.9475,5.072,5.0659,5.03,4.9675,4.8401,4.6627,4.4976,4.3961,4.3352,4.3809,4.621,4.6024,4.5788,4.6329,4.6194,4.5196,4.2929,4.2997,4.2794,0.0,0.0,0.0,4.3352,4.3927,4.4333,4.457,4.5077,4.5128,4.4604,4.4885,4.4885,4.4587,4.4587,4.4587,4.4587,4.5405,4.5971,4.6449,4.7241,4.7882,4.8251,4.7205,4.6599,4.6232,4.4912,4.4198,4.3901,4.3608,4.3497,4.3497,4.3497,4.3497,4.3497,4.3497,4.3497,4.3497,4.3497,4.3497,4.3497,4.3497,4.3497,4.3497,4.3497,4.3497,4.3497,4.3497,4.3497,4.3369,4.2842,4.2514,4.1946,4.0602,4.0325,4.0148,3.9571,3.9932,4.0322,4.0235,3.9515,3.85,3.7111,3.5155,3.396,3.4389,3.3069,3.2247,3.2572,3.2125,3.1722,3.1426,3.0936,3.0507,3.0217,2.9242,2.8526,2.8223,2.7724,2.7471,2.7464,2.7967,2.8219,2.8223,2.875,2.8994,2.8994,2.8994,2.8847,4.301,4.5215,4.7122,4.9414,5.1146,5.1895,5.0458,4.9992,4.921,4.7004,4.5375,4.3809,0.0,0.0,4.2066,4.2202,4.2929,4.4028,4.5602,4.4604,4.3944,0.0,0.0,0.0,0.0,0.0,0.0,4.3538,4.4807,4.5314,4.4671,4.594,4.6041,4.4621,4.5264,4.5337,4.4587,4.4587,4.4587,4.4587,4.466,4.5229,4.6345,4.6426,4.7126,4.8267,4.8251,4.7792,4.6965,4.6177,4.5369,4.4563,4.3809,4.3497,4.3497,4.3497,4.3497,4.3497,4.3497,4.3497,4.3497,4.3497,4.3497,4.3497,4.3497,4.3497,4.3497,4.3497,4.3497,4.3497,4.3497,4.3497,4.3497,4.3497,4.2915,4.215,4.1353,4.1162,4.0708,3.9179,4.0123,4.0666,3.9077,3.7929,3.7073,3.6473,3.5819,3.518,3.4815,3.414,3.3442,3.2782,3.2724,3.2394,3.1586,3.1494,3.1134,3.036,3.0254,2.9863,2.909,2.9012,2.8994,2.8994,2.8994,2.8994,2.8994,2.8994,2.8994,2.8994,2.8994,2.8594,4.5162,4.7943,5.023,5.1422,5.16,5.1261,5.0317,4.8813,4.6834,4.4025,4.1818,3.9783,0.0,0.0,0.0,4.1119,4.3047,0.0,4.7073,4.7479,0.0,4.5585,0.0,4.5415,4.4113,4.4671,0.0,0.0,4.4418,4.4418,4.5365,4.5246,4.4976,4.4587,4.4761,4.4778,4.4587,4.4587,4.4587,4.4587,4.5038,4.5446,4.5787,4.6693,4.7332,4.7633,4.7456,4.6948,4.614,4.5349,4.454,4.3791,4.3571,4.3497,4.3497,4.3497,4.3497,4.3497,4.3497,4.3497,4.3497,4.3497,4.3497,4.3497,4.3497,4.3497,4.3497,4.3497,4.3497,4.3497,4.3497,4.3497,4.3497,4.3497,4.3351,4.2951,4.2187,4.1995,4.1878,4.1464,4.1891,4.1782,4.0162,3.9029,3.7885,3.6614,3.6231,3.6004,3.5634,3.5291,3.4888,3.4448,3.4392,3.4071,3.3256,3.2653,3.2198,3.2005,3.0864,3.0107,2.9899,2.9315,2.8994,2.8994,2.8994,2.8994,2.8994,2.8994,2.8994,2.8994,2.8994,2.8906,4.7919,5.0168,5.1843,5.267,5.2232,5.1189,4.9148,4.7186,4.4812,4.1126,3.9015,0.0,3.5447,0.0,0.0,0.0,0.0,0.0,4.6583,4.7293,4.7344,0.0,4.7039,0.0,4.5669,4.6227,4.6667,0.0,4.5855,4.5618,4.616,4.6092,4.5737,4.5094,4.5094,4.4942,4.4587,4.4587,4.4587,4.4587,4.4953,4.521,4.5507,4.6236,4.6695,4.6954,4.6782,4.6245,4.5464,4.4912,4.4244,4.3497,4.3497,4.3497,4.3497,4.3497,4.3497,4.3497,4.3497,4.3497,4.3497,4.3497,4.3497,4.3497,4.3497,4.3497,4.3497,4.3497,4.3497,4.3497,4.3497,4.3497,4.3497,4.3497,4.3497,4.3296,4.2477,4.2592,4.282,4.2821,4.237,4.1668,4.0656,3.9431,3.8167,3.7024,3.6808,3.6732,3.6755,3.6362,3.5805,3.5082,3.499,3.4686,3.3862,3.3386,3.2966,3.2629,3.1437,3.0577,3.0217,2.9448,2.8994,2.8994,2.8994,2.8994,2.8994,2.8994,2.8994,2.8994,2.8994,2.8805,5.0608,5.1925,5.2619,5.3213,5.2569,5.0901,4.7346,4.5107,4.2627,3.8274,0.0,3.5486,3.4227,3.5111,3.6449,3.7831,0.0,4.232,4.5551,4.5923,4.6397,4.7885,4.797,4.7699,4.7141,4.7682,4.8037,4.8073,4.802,4.7733,4.7022,4.7335,4.7005,4.5602,4.5544,4.524,4.4587,4.4507,4.4507,4.4587,4.4406,4.467,4.5371,4.5372,4.5678,4.6283,4.6224,4.5703,4.4851,4.4766,4.4189,4.3406,4.3461,4.3497,4.3497,4.3497,4.3497,4.3497,4.3497,4.3497,4.3497,4.3497,4.3497,4.3497,4.3497,4.3497,4.3497,4.3497,4.3497,4.3497,4.3497,4.3497,4.3497,4.3497,4.3497,4.3314,4.2606,4.3023,4.3497,4.3497,4.226,4.1104,4.074,3.9512,3.838,3.7768,3.755,3.7619,3.8018,3.7418,3.6498,3.5305,3.5174,3.4797,3.3862,3.3807,3.3505,3.282,3.1883,3.1086,3.0383,2.9485,2.8994,2.8994,2.8994,2.8994,2.8994,2.8994,2.8994,2.8994,2.8994,2.8617,5.1654,5.2721,5.3196,5.264,5.1003,4.8748,4.5649,4.2412,0.0,0.0,3.4068,3.3104,3.1556,3.3045,3.5442,3.834,0.0,0.0,0.0,0.0,4.7158,0.0,0.0,0.0,0.0,0.0,0.0,0.0,4.8815,4.85,4.7726,4.6684,4.5679,4.4807,4.479,4.4722,4.4587,4.3939,4.3939,4.4553,4.3308,4.345,4.4746,4.4647,4.5006,4.5681,4.6035,4.5473,4.429,4.4562,4.397,4.2878,4.3332,4.3497,4.3497,4.3497,4.3497,4.3497,4.3497,4.3497,4.3497,4.3497,4.3497,4.3497,4.3497,4.3497,4.3497,4.3497,4.3497,4.3497,4.3497,4.3497,4.3497,4.3497,4.3497,4.3461,4.3332,4.3406,4.3497,4.3497,4.2514,4.1484,4.0817,4.0062,3.9285,3.858,3.8658,3.8787,3.886,3.8566,3.7772,3.6219,3.6066,3.5467,3.3944,3.3807,3.3752,3.3597,3.221,3.1331,3.1196,2.9766,2.8994,2.8994,2.8994,2.8994,2.8994,2.8994,2.8994,2.8994,2.8994,2.8938,5.2486,5.3196,5.3298,5.2489,5.0623,4.7939,4.3747,0.0,0.0,0.0,3.2035,3.1524,3.0515,0.0,0.0,0.0,0.0,0.0,0.0,0.0,0.0,0.0,0.0,0.0,0.0,4.9001,4.9001,4.9001,4.8673,4.8257,4.7926,4.6507,4.5382,4.4604,4.4587,4.4587,4.4587,4.4224,4.4224,4.457,4.383,4.3864,4.4609,4.4104,4.4093,4.4401,4.4164,4.3855,4.3471,4.3607,4.343,4.3133,4.3406,4.3497,4.3497,4.3497,4.3497,4.3497,4.3497,4.3497,4.3497,4.3497,4.3497,4.3497,4.3497,4.3497,4.3497,4.3497,4.3497,4.3497,4.3497,4.3497,4.3497,4.3497,4.3497,4.3497,4.3497,4.3497,4.3497,4.3497,4.2823,4.2159,4.1795,4.0931,4.0069,3.9534,3.9247,3.9049,3.8909,3.8781,3.8242,3.7046,3.6554,3.5789,3.4531,3.4036,3.3807,3.3807,3.2684,3.1821,3.1422,3.0277,2.9448,2.8994,2.8994,2.8994,2.8994,2.8994,2.8994,2.8994,2.8994,2.8994,5.2943,5.3332,5.3264,5.227,5.0141,4.6954,4.1903,3.8474,0.0,0.0,3.0424,3.0436,3.0077,0.0,0.0,0.0,0.0,0.0,0.0,0.0,0.0,0.0,0.0,0.0,0.0,4.9001,0.0,4.9001,4.8148,4.7581,4.7471,4.6353,4.5365,4.4604,4.4587,4.4587,4.4587,4.4401,4.4401,4.4587,4.4282,4.4198,4.4316,4.3521,4.3166,4.3111,4.2517,4.243,4.2748,4.2818,4.3048,4.3351,4.3461,4.3497,4.3497,4.3497,4.3497,4.3497,4.3497,4.3497,4.3497,4.3497,4.3497,4.3497,4.3497,4.3497,4.3497,4.3497,4.3497,4.3497,4.3497,4.3497,4.3497,4.3497,4.3497,4.3497,4.3497,4.3497,4.3497,4.3497,4.3078,4.272,4.2713,4.1825,4.1042,4.0781,4.0175,3.9692,3.9504,3.9173,3.8707,3.8065,3.7143,3.6122,3.5081,3.442,3.3981,3.3807,3.3048,3.2305,3.1684,3.072,2.9899,2.9278,2.909,2.8994,2.8994,2.8994,2.8994,2.8994,2.8994,2.8994,5.2522,5.2944,5.318,5.1665,4.8625,4.4805,4.0249,0.0,0.0,2.9726,2.9458,2.9692,2.9656,0.0,0.0,0.0,0.0,3.7637,0.0,0.0,0.0,0.0,0.0,0.0,0.0,4.9001,4.9001,4.9001,4.7717,4.6629,4.5954,4.5777,4.5358,4.4604,4.4587,4.4587,4.4587,4.3881,4.3881,4.4553,4.3192,4.2871,4.3504,4.2743,4.2388,4.2405,4.2695,4.2579,4.2244,4.3064,4.3158,4.2823,4.3314,4.3497,4.3497,4.3497,4.3497,4.3497,4.3497,4.3497,4.3497,4.3497,4.3497,4.3497,4.3497,4.3497,4.3497,4.3497,4.3497,4.3497,4.3497,4.3497,4.3497,4.3497,4.3497,4.3497,4.3497,4.3497,4.3497,4.3497,4.3078,4.2687,4.2714,4.2595,4.2503,4.2461,4.2198,4.1983,4.1958,4.0689,3.9768,3.9712,3.8291,3.6751,3.5155,3.4934,3.4567,3.3844,3.3048,3.2574,3.2491,3.1029,3.0162,3.0088,2.937,2.8994,2.8994,2.8994,2.8994,2.8994,2.8994,2.8994,5.1866,5.291,5.3011,5.0994,4.7388,4.3297,3.9241,0.0,3.1337,2.9419,2.9142,2.9247,2.9241,2.997,0.0,0.0,0.0,0.0,0.0,0.0,0.0,0.0,0.0,0.0,0.0,0.0,4.7986,4.709,4.6895,4.6309,4.5089,4.5066,4.4908,4.4587,4.4587,4.4587,4.4587,4.4304,4.405,4.3881,4.372,4.3331,4.2726,4.2422,4.2049,4.1627,4.1698,4.178,4.198,4.27,4.3078,4.3188,4.3424,4.3497,4.3497,4.3497,4.3497,4.3497,4.3497,4.3497,4.3497,4.3497,4.3497,4.3497,4.3497,4.3497,4.3497,4.3497,4.3497,4.3497,4.3497,4.3497,4.3497,4.3497,4.3497,4.3497,4.3497,4.3497,4.3497,4.3497,4.3078,4.2792,4.3122,4.2904,4.2642,4.2496,4.2359,4.2132,4.1625,4.1009,4.0455,3.9952,3.8456,3.7229,3.6567,3.5598,3.4879,3.4531,3.377,3.3103,3.2629,3.1968,3.1207,3.0217,2.9899,2.9485,2.8994,2.8994,2.8994,2.8994,2.8994,2.8994,4.9676,5.1413,5.1984,4.9958,4.6071,4.1799,0.0,0.0,3.0481,2.9126,2.8913,2.8994,2.8994,2.9423,3.0188,3.139,0.0,3.2599,3.6251,0.0,0.0,0.0,0.0,4.4908,0.0,4.7631,4.7158,4.6109,4.6295,4.6007,4.4976,4.4485,4.4333,4.457,4.4345,4.426,4.426,4.4035,4.3664,4.309,4.3664,4.3322,4.2244,4.225,4.1936,4.1389,4.1429,4.1695,4.2115,4.2705,4.3151,4.3497,4.3497,4.3497,4.3497,4.3497,4.3497,4.3497,4.3497,4.3497,4.3497,4.3497,4.3497,4.3497,4.3497,4.3497,4.3497,4.3497,4.3497,4.3497,4.3497,4.3497,4.3497,4.3497,4.3497,4.3497,4.3497,4.3497,4.3497,4.3497,4.3188,4.3059,4.3424,4.3188,4.286,4.266,4.2642,4.2459,4.1896,4.1606,4.1147,4.0341,3.9025,3.801,3.7528,3.6421,3.5542,3.5026,3.4475,3.3788,3.2985,3.2492,3.1696,3.0577,3.0073,2.9559,2.8994,2.8994,2.8994,2.8994,2.8994,2.8994,4.5683,4.7882,4.9758,4.8279,4.457,4.0323,0.0,0.0,2.9789,2.8621,2.8725,2.8994,2.8994,2.9635,3.0338,3.0748,3.2067,0.0,3.5027,0.0,0.0,0.0,0.0,4.2929,4.4468,4.594,4.6802,4.6786,4.6126,4.5703,4.5703,4.4248,4.3792,4.4553,4.3827,4.3412,4.3412,4.2708,4.2328,4.2311,4.2328,4.2258,4.2088,4.2088,4.2004,4.1803,4.2422,4.2656,4.2753,4.3269,4.3479,4.3497,4.3497,4.3497,4.3497,4.3497,4.3497,4.3497,4.3497,4.3497,4.3497,4.3497,4.3497,4.3497,4.3497,4.3497,4.3497,4.3497,4.3497,4.3497,4.3497,4.3497,4.3497,4.3497,4.3497,4.3497,4.3497,4.3497,4.3497,4.3497,4.3497,4.3479,4.3497,4.3497,4.3479,4.3479,4.3479,4.3479,4.3479,4.2787,4.1988,4.1154,4.0345,3.9228,3.765,3.7473,3.6776,3.5118,3.4989,3.4649,3.3825,3.2265,3.1392,3.1392,2.982,2.8994,2.8994,2.8994,2.8994,2.8994,2.8994,2.8994,4.0664,4.219,4.2782,4.0817,3.8056,3.5283,3.2915,0.0,2.789,2.83,2.8272,2.8356,2.8902,2.9195,2.9953,3.1746,3.1898,0.0,0.0,0.0,0.0,0.0,4.4282,4.5923,0.0,4.6227,4.6363,4.5348,4.5551,4.5483,4.4976,4.3961,4.3534,4.3794,4.3032,4.2661,4.267,4.2431,4.226,4.2157,4.2702,4.2547,4.1936,4.2423,4.2339,4.1837,4.2459,4.2715,4.2753,4.3269,4.3497,4.3497,4.3497,4.3497,4.3497,4.3497,4.3497,4.3497,4.3497,4.3497,4.3497,4.3497,4.3497,4.3497,4.3497,4.3497,4.3497,4.3497,4.3497,4.3497,4.3497,4.3497,4.3406,4.3041,4.3224,4.3406,4.3041,4.3224,4.3497,4.3497,4.3497,4.3497,4.3497,4.3497,4.3497,4.3497,4.3497,4.3497,4.3497,4.3296,4.2587,4.1227,4.0868,4.0075,3.8456,3.7814,3.7034,3.5974,3.5321,3.4649,3.3825,3.2775,3.196,3.1427,3.0378,2.954,2.8994,2.8994,2.8994,2.8994,2.8994,2.8865,0.0,3.7019,3.7617,3.592,3.3813,0.0,0.0,0.0,2.6615,2.7908,2.7955,2.8036,2.8865,2.8994,2.9696,0.0,0.0,0.0,0.0,0.0,0.0,0.0,0.0,0.0,0.0,4.5517,4.5568,4.4654,4.501,4.5077,4.4604,4.3572,4.3088,4.3337,4.2601,4.221,4.222,4.215,4.2048,4.199,4.2457,4.2485,4.215,4.2643,4.2673,4.2463,4.2853,4.3,0.0,4.3358,4.3497,4.3497,4.3497,4.3497,4.3497,4.3497,4.3497,4.3497,4.3497,4.3497,4.3497,4.3497,4.3497,4.3497,4.3497,4.3497,4.3497,4.3497,4.3497,4.3497,4.3497,4.3351,4.3151,4.3041,4.3102,4.3138,4.303,4.3243,4.3497,4.3497,4.3497,4.3497,4.3497,4.3497,4.3497,4.3497,4.3497,4.3497,4.3497,4.3497,4.2878,4.1263,4.1103,4.0437,3.8836,3.8242,3.7631,3.6796,3.5946,3.5127,3.4283,3.3176,3.2228,3.1427,3.0614,2.9784,2.8994,2.8994,2.8994,2.8994,2.8994,2.8883,0.0,0.0,0.0,0.0,0.0,0.0,0.0,0.0,0.0,0.0,2.7673,2.7903,2.8842,2.9012,2.9562,0.0,0.0,0.0,0.0,0.0,0.0,0.0,4.2642,0.0,4.3352,4.4096,4.4587,4.4587,4.4536,4.4485,4.4485,4.3102,4.2518,4.3126,4.2466,4.2126,4.2079,4.1898,4.1812,4.1866,4.1867,4.2189,4.2768,4.2768,4.3041,4.3497,4.3497,4.3497,4.3497,4.3497,4.3497,4.3497,4.3497,4.3497,4.3497,4.3497,4.3497,4.3497,4.3497,4.3497,4.3497,4.3497,4.3497,4.3497,4.3497,4.3497,4.3497,4.3497,4.3497,4.3479,4.3442,4.3078,4.2807,4.3249,4.3035,4.2824,4.336,4.3461,4.3497,4.3497,4.3497,4.3497,4.3497,4.3497,4.3497,4.3497,4.3497,4.3479,4.3424,4.3406,4.2805,4.119,4.0997,4.0382,3.8817,3.8707,3.8383,3.7546,3.6748,3.5919,3.5026,3.3441,3.2228,3.1427,3.0559,2.9747,2.8994,2.8957,2.8957,2.8994,2.8957,2.8957,2.4269,0.0,2.6737,2.6236,2.6161,0.0,0.0,0.0,0.0,0.0,0.0,2.6584,2.8615,2.9004,2.9929,0.0,0.0,0.0,0.0,0.0,0.0,4.1948,4.3893,4.4468,4.2726,4.3792,4.4587,4.4587,4.4028,4.369,4.369,4.2706,4.2178,4.2375,4.2493,4.232,4.1862,4.1812,4.2008,4.2505,4.2481,4.2776,4.3314,4.3314,4.3387,4.3497,4.3497,4.3497,4.3497,4.3497,4.3497,4.3497,4.3497,4.3497,4.3497,4.3497,4.3497,4.3497,4.3497,4.3497,4.3497,4.3497,4.3497,4.3497,4.3497,4.3497,4.3497,4.3497,4.3497,4.3406,4.3004,4.2787,4.2596,4.2281,4.2477,4.2739,4.2864,4.3206,4.3497,4.3497,4.3497,4.3497,4.3497,4.3497,4.3497,4.3497,4.3497,4.3296,4.2642,4.2569,4.1969,4.0359,4.0166,3.9786,3.8781,3.8707,3.8383,3.7546,3.6742,3.5915,3.5045,3.3441,3.2228,3.1427,3.001,2.9182,2.8994,2.8695,2.8695,2.8975,2.8695,2.8544,2.2666,2.3249,2.4001,2.3966,2.4226,2.4581,0.0,0.0,0.0,0.0,0.0,0.0,2.8576,0.0,0.0,0.0,0.0,0.0,0.0,0.0,0.0,4.2202,4.369,4.4316,4.342,4.3775,4.4045,4.4045,4.3335,4.2912,4.2912,4.2396,4.2223,4.2461,4.2644,4.2537,4.2223,4.245,4.2723,4.3078,4.3069,4.3215,4.3497,4.3497,4.3497,4.3497,4.3497,4.3497,4.3497,4.3497,4.3497,4.3497,4.3497,4.3497,4.3497,4.3497,4.3497,4.3497,4.3497,4.3497,4.3497,4.3497,4.3497,4.3497,4.3497,4.3497,4.3497,4.3497,4.3497,4.3387,4.2842,4.2479,4.2263,4.2233,4.2239,4.2441,4.2933,4.3314,4.3497,4.3497,4.3497,4.3497,4.3497,4.3497,4.3497,4.3497,4.3497,4.3351,4.2896,4.2522,4.1838,4.0588,4.0115,3.9571,3.8762,3.8707,3.8511,3.8065,3.6955,3.6083,3.5615,3.4017,3.2787,3.1967,3.036,2.9467,2.9278,2.8695,2.8507,2.8732,2.8883,2.9053,2.2931,2.3346,2.3858,2.3864,2.3968,2.4167,0.0,0.0,0.0,0.0,0.0,0.0,0.0,0.0,0.0,0.0,0.0,0.0,0.0,3.9563,4.0882,4.2134,4.2963,4.3589,4.4028,4.3572,4.325,4.325,4.2557,4.217,4.2258,4.2115,4.2282,4.2853,4.2861,4.2832,4.2823,4.3277,4.3497,4.3497,4.3497,4.3497,4.3497,4.3497,4.3497,4.3497,4.3497,4.3497,4.3497,4.3497,4.3497,4.3497,4.3497,4.3497,4.3497,4.3497,4.3497,4.3497,4.3497,4.3497,4.3497,4.3497,4.3497,4.3497,4.3497,4.3497,4.3497,4.3497,4.3497,4.3387,4.2842,4.2328,4.2073,4.2568,4.2292,4.2223,4.3277,4.3497,4.3497,4.3497,4.3497,4.3497,4.3497,4.3497,4.3497,4.3497,4.3497,4.3461,4.3332,4.2599,4.1804,4.0997,4.0185,3.9442,3.8762,3.8707,3.8652,3.8511,3.7131,3.6204,3.5919,3.4439,3.3301,3.2606,3.1133,3.011,2.9599,2.8912,2.8567,2.8597,2.9276,2.9866,2.3152,2.4475,2.545,2.3765,2.4043,2.4679,0.0,0.0,0.0,0.0,0.0,0.0,0.0,0.0,0.0,0.0,0.0,3.7696,0.0,0.0,4.2033,4.2252,4.2963,4.298,4.183,4.2168,4.2472,4.2472,4.1796,4.1614,4.2112,4.1943,4.2132,4.2699,4.3142,4.3373,4.3387,4.3461,4.3497,4.3497,4.3497,4.3497,4.3497,4.3497,4.3497,4.3497,4.3497,4.3497,4.3497,4.3497,4.3497,4.3497,4.3497,4.3497,4.3497,4.3497,4.3497,4.3497,4.3497,4.3497,4.3497,4.3497,4.3497,4.3497,4.3497,4.3497,4.3497,4.3497,4.3497,4.3387,4.2842,4.2637,4.2585,4.2704,4.2643,4.275,4.3369,4.3497,4.3497,4.3497,4.3497,4.3497,4.3497,4.3497,4.3497,4.3497,4.3497,4.3243,4.2569,4.1784,4.0958,4.0154,3.9357,3.8817,3.8707,3.8707,3.842,3.7723,3.6796,3.5641,3.4238,3.3295,3.2729,3.2582,3.1675,3.0677,2.9608,2.9476,2.9436,2.9425,2.9536,3.0177,2.3466,2.4488,2.5421,2.4885,2.6096,0.0,0.0,0.0,0.0,0.0,0.0,0.0,0.0,0.0,0.0,0.0,0.0,3.8721,3.9355,3.9715,4.0223,4.1001,4.1407,4.166,4.1779,4.1728,4.1851,4.2175,4.1456,4.1285,4.1918,4.215,4.2422,4.2711,4.3214,4.3497,4.3497,4.3497,4.3497,4.3497,4.3497,4.3497,4.3497,4.3497,4.3497,4.3497,4.3497,4.3497,4.3497,4.3497,4.3497,4.3497,4.3497,4.3497,4.3497,4.3497,4.3497,4.3497,4.3497,4.3497,4.3497,4.3497,4.3497,4.3497,4.3497,4.3497,4.3497,4.3497,4.3497,4.3314,4.2459,4.2461,4.2614,4.2287,4.2443,4.2768,4.3023,4.3314,4.3406,4.3114,4.3314,4.3497,4.3497,4.3497,4.3497,4.3497,4.3497,4.3206,4.2422,4.1606,4.08,3.9976,3.9191,3.8707,3.8707,3.8707,3.8169,3.6936,3.6058,3.5064,3.3844,3.3423,3.3258,3.3258,3.2246,3.134,3.0557,3.0137,2.9926,2.9935,3.0631,3.1334,2.3799,2.4487,2.5309,2.5811,0.0,0.0,0.0,0.0,0.0,0.0,0.0,0.0,0.0,0.0,0.0,3.776,3.8983,3.9355,3.8744,3.8684,3.9157,4.0443,4.0578,4.0985,4.1931,4.1597,4.1469,4.1791,4.1389,4.1358,4.1979,4.244,4.275,4.2902,4.3103,4.3222,4.3222,4.302,4.302,4.3222,4.3222,4.3112,4.2928,4.2928,4.2947,4.2947,4.2949,4.2933,4.2933,4.2933,4.2933,4.2933,4.2933,4.3059,4.3206,4.3206,4.3351,4.3497,4.3497,4.3497,4.3497,4.3497,4.3497,4.3497,4.3497,4.3497,4.3497,4.3497,4.3497,4.3314,4.2441,4.2541,4.2719,4.2156,4.2351,4.2642,4.2514,4.2923,4.3213,4.279,4.3133,4.3497,4.3497,4.3497,4.3497,4.3497,4.3497,4.3206,4.2422,4.1601,4.0789,4.0007,3.9191,3.8707,3.8707,3.8365,3.7607,3.6376,3.5468,3.4649,3.3825,3.3807,3.3744,3.365,3.2733,3.1943,3.126,3.0814,3.0568,3.0523,3.1664,3.2462,2.4074,2.5075,2.591,2.5556,0.0,0.0,0.0,0.0,0.0,0.0,0.0,0.0,0.0,0.0,3.6808,3.8015,3.9101,4.0043,4.0866,4.0967,4.1255,4.2049,4.2054,4.1776,4.1323,4.1568,4.1534,4.1036,4.1437,4.1979,4.2616,4.2673,4.2939,4.341,4.2782,4.2396,4.2396,4.1662,4.1662,4.2396,4.2396,4.2011,4.1277,4.1277,4.128,4.1284,4.1277,4.1263,4.1263,4.1263,4.1263,4.1263,4.1263,4.1734,4.237,4.237,4.286,4.3497,4.3497,4.3497,4.3497,4.3497,4.3497,4.3497,4.3497,4.3497,4.3497,4.3497,4.3497,4.3479,4.3406,4.34,4.329,4.2777,4.266,4.2551,4.1988,4.2328,4.2765,4.2705,4.3133,4.3497,4.3497,4.3497,4.3497,4.3497,4.3497,4.3206,4.2422,4.1613,4.08,4.0001,3.9191,3.8707,3.8707,3.7314,3.6424,3.6306,3.5459,3.4649,3.3825,3.3807,3.3611,3.3247,3.314,3.2328,3.0751,3.1497,3.1679,3.1337,3.2183,3.2973,2.3858,2.5133,2.6357,2.6189,0.0,0.0,0.0,0.0,0.0,0.0,0.0,0.0,0.0,0.0,3.7398,3.8113,3.9392,4.0356,4.0493,4.051,4.073,4.1351,4.1401,4.1418,4.1557,4.171,4.1853,4.2021,4.1721,4.1805,4.243,4.1975,4.1789,4.2011,4.1717,4.1552,4.1552,4.1258,4.1001,4.0799,4.1313,4.1405,4.1111,4.1111,4.1097,4.1119,4.1104,4.111,4.1099,4.1097,4.1103,4.1103,4.1103,4.13,4.1613,4.2127,4.2496,4.2823,4.3332,4.3169,4.2842,4.3351,4.2896,4.2351,4.3224,4.3277,4.3078,4.3406,4.3243,4.3023,4.3023,4.3012,4.2865,4.2285,4.2153,4.2097,4.1859,4.228,4.2701,4.2705,4.3133,4.3497,4.3497,4.3497,4.3497,4.3497,4.3497,4.3041,4.1716,4.1287,4.0615,3.9283,3.8903,3.8707,3.8707,3.7686,3.7063,3.7044,3.5274,3.4109,3.3807,3.3807,3.3735,3.3579,3.3032,3.2458,3.1812,3.2146,3.2236,3.2107,3.2964,3.3387,2.3724,2.4744,2.589,0.0,0.0,0.0,0.0,0.0,0.0,0.0,0.0,0.0,0.0,0.0,0.0,0.0,3.9873,4.1054,4.0341,4.0504,4.0767,4.1133,4.1358,4.1578,4.1768,4.1872,4.2027,4.2258,4.1668,4.1485,4.1886,4.1405,4.1111,4.1111,4.0687,4.0474,4.0474,4.0084,3.9597,3.9052,3.961,4.0017,4.0359,4.0359,4.0327,4.0331,4.0327,4.0349,4.0343,4.0344,4.0345,4.0345,4.0345,4.0492,4.08,4.1346,4.1745,4.2043,4.237,4.2187,4.186,4.2323,4.1837,4.1267,4.2384,4.2485,4.2315,4.2933,4.2732,4.2356,4.2639,4.2558,4.2248,4.1636,4.1663,4.1698,4.1324,4.2029,4.265,4.2468,4.3023,4.3497,4.3497,4.3497,4.3497,4.3497,4.3497,4.3023,4.1661,4.125,4.0474,3.8854,3.8707,3.8707,3.8707,3.7955,3.7503,3.7507,3.567,3.4467,3.4183,3.4191,3.3999,3.3615,3.3016,3.2634,3.2494,3.2674,3.2713,3.2745,3.3314,3.3465,2.378,2.395,0.0,0.0,0.0,0.0,0.0,0.0,0.0,0.0,0.0,0.0,3.8414,0.0,0.0,3.7751,4.0545,4.2174,4.0766,4.1273,4.1775,4.1793,4.2324,4.2462,4.186,4.2103,4.2044,4.1449,4.1209,4.1093,4.1093,4.1075,4.1075,4.1042,3.9779,3.9065,3.9083,3.7807,3.7173,3.721,3.7202,3.7727,3.8707,3.8707,3.8707,3.8707,3.8707,3.8707,3.8689,3.8689,3.867,3.867,3.8689,3.916,3.9878,3.9896,4.0529,4.128,4.054,4.0468,4.0628,4.0386,4.0294,4.0366,4.0931,4.111,4.1261,4.2043,4.186,4.1596,4.2437,4.225,4.163,4.1047,4.1392,4.1477,4.0358,4.1498,4.2516,4.1933,4.275,4.3497,4.3497,4.3497,4.3497,4.3497,4.3497,4.3206,4.2422,4.1595,4.0474,3.8903,3.8707,3.8707,3.8707,3.7973,3.7509,3.7509,3.676,3.5937,3.5036,3.5008,3.4439,3.324,3.3195,3.2961,3.2529,3.2965,3.3184,3.3214,3.3184,3.3184,2.3373,2.4411,0.0,0.0,0.0,0.0,0.0,0.0,0.0,0.0,0.0,3.7653,3.9252,0.0,0.0,3.7841,3.9085,4.0215,4.0536,4.0294,4.0441,4.1393,4.1677,4.1667,4.1342,4.1915,4.198,4.1259,4.0624,4.001,3.9441,3.8872,3.8144,3.7271,3.687,3.6746,3.6916,3.654,3.6643,3.721,3.7202,3.7504,3.8158,3.8141,3.8334,3.8707,3.8707,3.8383,3.7796,3.7241,3.6814,3.6565,3.7082,3.7236,3.7277,3.845,3.9029,3.9352,3.9684,3.9504,3.9164,3.9635,3.9138,3.8532,3.9698,4.0015,4.0102,4.0717,4.0723,4.0653,4.1095,4.1116,4.1071,4.1439,4.1324,4.1292,4.1818,4.2339,4.2749,4.2959,4.3277,4.3497,4.3497,4.3497,4.3497,4.3497,4.3497,4.3206,4.2422,4.1607,4.068,3.9663,3.9534,3.9301,3.8744,3.8475,3.8334,3.8334,3.8132,3.7089,3.5089,3.5,3.4567,3.3633,3.3331,3.3141,3.3002,3.2782,3.289,3.3184,3.2858,3.2713,2.3644,0.0,0.0,0.0,0.0,0.0,0.0,0.0,0.0,0.0,0.0,3.8008,3.9606,3.897,0.0,3.8147,3.9109,3.9948,4.029,4.0199,4.0382,4.1161,4.127,4.1247,4.1115,4.1258,4.102,4.0212,3.9405,3.8597,3.779,3.7276,3.6595,3.563,3.5382,3.5294,3.5269,3.5081,3.5209,3.568,3.589,3.6121,3.6457,3.7275,3.7796,3.8114,3.8114,3.7668,3.6853,3.6373,3.5839,3.5356,3.5825,3.5799,3.5745,3.698,3.7501,3.7678,3.8163,3.8091,3.7802,3.8201,3.7755,3.729,3.8564,3.8887,3.8995,3.9635,3.9635,3.9583,4.0164,3.9893,3.9834,4.112,4.1527,4.1764,4.225,4.2699,4.3066,4.3159,4.3351,4.3497,4.3497,4.3497,4.3497,4.3497,4.3497,4.3206,4.2422,4.1873,4.1152,4.001,3.9902,3.9571,3.8762,3.8707,3.8707,3.8707,3.8395,3.7418,3.5581,3.5505,3.5145,3.4283,3.3733,3.336,3.3201,3.2942,3.2903,3.3184,3.2713,3.2484,0.0,0.0,0.0,0.0,0.0,0.0,0.0,0.0,0.0,0.0,0.0,3.8249,3.9648,3.8634,3.7808,3.8487,3.9827,4.0543,3.9882,4.0432,4.0928,4.0983,4.1001,4.0965,4.091,4.0212,3.946,3.8652,3.7845,3.7037,3.6211,3.6146,3.5896,3.5331,3.4796,3.4354,3.4021,3.3519,3.3339,3.349,3.3894,3.4134,3.4246,3.6203,3.7094,3.7094,3.7094,3.6596,3.5807,3.579,3.5312,3.46,3.4692,3.4705,3.474,3.5489,3.5913,3.6157,3.6146,3.6282,3.6446,3.6265,3.6231,3.6412,3.7421,3.7799,3.8004,3.8707,3.8601,3.8469,3.9351,3.876,3.8405,4.0272,4.1605,4.237,4.1896,4.266,4.3369,4.286,4.3169,4.3497,4.3497,4.3497,4.3497,4.3497,4.3497,4.3224,4.2514,4.2422,4.1784,4.0193,4.0024,3.9663,3.8762,3.8707,3.8707,3.8707,3.8021,3.725,3.6442,3.6242,3.5772,3.4844,3.4137,3.3605,3.3212,3.3208,3.3214,3.3243,3.2745,3.2517,0.0,0.0,0.0,0.0,0.0,0.0,0.0,0.0,0.0,0.0,3.9368,4.0233,3.9939,3.9118,3.8285,3.7826,3.8046,3.8432,3.8891,3.9111,3.946,4.0084,4.0157,3.99,3.9276,3.9056,3.8615,3.7808,3.7,3.6174,3.5349,3.4968,3.4308,3.3197,3.2687,3.253,3.2695,3.2591,3.3002,3.3968,3.4033,3.4109,3.4181,3.5531,3.6256,3.6326,3.6239,3.5459,3.4271,3.4164,3.3454,3.2537,3.3141,3.3179,3.2951,3.368,3.4014,3.4066,3.4046,3.4091,3.4236,3.4757,3.4919,3.515,3.6361,3.6996,3.7383,3.7575,3.7793,3.8004,3.8004,3.8145,3.8454,3.9042,4.0179,4.1209,4.1499,4.2569,4.3461,4.3351,4.3424,4.3497,4.3497,4.3497,4.3497,4.3497,4.3497,4.3442,4.3243,4.3224,4.2619,4.1024,4.0836,4.0249,3.8817,3.8707,3.8707,3.8707,3.8542,3.8088,3.7266,3.5985,3.4764,3.3615,3.3712,3.3605,3.3212,3.3208,3.3361,3.3634,3.2872,3.2681,0.0,0.0,0.0,0.0,0.0,0.0,0.0,0.0,0.0,3.7186,3.8224,3.9258,3.8835,3.8088,3.7397,3.6982,3.6927,3.7055,3.7496,3.7551,3.7716,3.812,3.8175,3.801,3.7588,3.7551,3.7202,3.6376,3.5917,3.5312,3.4486,3.4217,3.3467,3.2019,3.1753,3.1305,3.0738,3.0895,3.1291,3.1891,3.2316,3.2786,3.3318,3.4261,3.4757,3.4796,3.4759,3.4088,3.3067,3.3029,3.2422,3.154,3.1964,3.1981,3.1856,3.2615,3.2861,3.292,3.3271,3.3398,3.3474,3.3863,3.397,3.4141,3.5082,3.556,3.5836,3.6206,3.6478,3.674,3.7103,3.7318,3.7563,3.8003,3.9334,4.0605,4.0887,4.1988,4.2915,4.2915,4.3224,4.3497,4.3497,4.3497,4.3497,4.3497,4.3497,4.3369,4.3004,4.3243,4.2729,4.0738,4.0859,4.0464,3.8836,3.8707,3.8707,3.8707,3.7973,3.736,3.6932,3.5143,3.4109,3.4081,3.388,3.3615,3.3214,3.322,3.3302,3.3494,3.3045,3.2983,0.0,0.0,0.0,0.0,0.0,0.0,0.0,0.0,3.6918,3.6401,3.6821,3.7247,3.7085,3.6526,3.6048,3.5881,3.5983,3.6093,3.6083,3.6211,3.6303,3.6303,3.6303,3.6303,3.6303,3.6156,3.5789,3.5045,3.4862,3.4504,3.3844,3.3606,3.2881,3.1555,3.1288,3.0532,2.9193,2.9437,2.9655,2.9721,3.0475,3.1208,3.2027,3.2496,3.284,3.3039,3.3038,3.2517,3.1748,3.1871,3.1489,3.0825,3.0825,3.0858,3.0982,3.1523,3.1839,3.2105,3.2633,3.2934,3.3019,3.3162,3.3202,3.3339,3.4017,3.4276,3.4473,3.4983,3.5308,3.5667,3.611,3.6311,3.651,3.7015,3.8544,3.9929,4.0056,4.1165,4.2127,4.226,4.2933,4.3497,4.3497,4.3497,4.3442,4.3314,4.3406,4.3206,4.2422,4.2876,4.2472,4.0364,4.0569,4.0299,3.8836,3.8707,3.8652,3.8505,3.7239,3.6376,3.6083,3.4357,3.3844,3.476,3.4072,3.3496,3.3075,3.3243,3.3302,3.3302,3.3302,3.3302,0.0,0.0,0.0,0.0,0.0,0.0,0.0,0.0,3.5515,0.0,3.6402,3.6236,3.5469,3.5257,3.4952,3.4266,3.4733,3.5156,3.5165,3.5826,3.6303,3.6303,3.6303,3.6303,3.6303,3.5624,3.5119,3.5009,3.4357,3.3917,3.3807,3.2811,3.2148,3.1923,3.0836,3.018,2.9966,3.0011,3.0229,3.0621,3.0725,3.0671,3.0485,3.0177,3.0576,3.1582,3.1516,3.0725,2.949,3.0135,2.9967,2.927,2.927,2.9482,2.9688,2.9515,3.0018,3.0825,3.0594,3.0982,3.1613,3.2264,3.2446,3.2644,3.3831,3.4619,3.4993,3.4478,3.5373,3.611,3.4322,3.5117,3.6262,3.5719,3.6944,3.8405,3.9103,4.0289,4.1475,4.2148,4.2933,4.3497,4.3497,4.3497,4.3243,4.2569,4.3059,4.3206,4.2422,4.2378,4.2081,4.1061,4.0412,3.9685,3.8781,3.8707,3.8395,3.7698,3.7441,3.6688,3.521,3.4575,3.4146,3.3954,3.3523,3.3052,3.2583,3.3343,3.3707,3.3707,3.3707,3.3707,0.0,0.0,0.0,0.0,0.0,0.0,0.0,0.0,3.3088,3.3468,3.3552,3.3852,3.4806,3.4623,3.4211,3.3862,3.4091,3.4338,3.4339,3.4669,3.4908,3.4908,3.4908,3.4908,3.4908,3.4559,3.4339,3.4339,3.3587,3.3128,3.3128,3.22,3.1365,3.0658,3.013,2.9508,2.8877,2.9062,2.9359,2.9799,2.9799,2.9562,2.9125,2.8505,2.86,2.9346,2.9299,2.8782,2.8053,2.8825,2.9066,2.8979,2.9428,2.9704,2.9795,2.9653,2.9772,3.0031,3.0285,3.0454,3.0718,3.1455,3.1681,3.1788,3.2332,3.2701,3.2968,3.3002,3.3304,3.3699,3.4018,3.5133,3.6176,3.6109,3.7247,3.8456,3.8799,3.9712,4.0688,4.1458,4.1915,4.2168,4.2168,4.2168,4.2024,4.1679,4.1937,4.1875,4.1045,4.1366,4.1159,3.9882,3.9832,3.9564,3.8781,3.8707,3.8358,3.7562,3.7074,3.6285,3.5045,3.4181,3.3524,3.3087,3.3158,3.3216,3.3225,3.3606,3.3807,3.3807,3.3807,3.3807,0.0,0.0,0.0,0.0,0.0,0.0,0.0,0.0,3.0534,0.0,3.0958,3.1568,3.3188,3.3485,3.3505,3.3505,3.3652,3.3807,3.3807,3.3807,3.3715,3.3532,3.3678,3.3715,3.3513,3.3678,3.3715,3.3513,3.2944,3.2522,3.232,3.1531,3.068,2.9787,2.9544,2.906,2.8192,2.8438,2.8615,2.8705,2.8705,2.8306,2.7565,2.7119,2.6872,2.6835,2.7103,2.7065,2.6813,2.7404,2.7914,2.8404,2.9018,2.9413,2.9637,2.9471,2.9394,2.9437,2.9746,2.9859,2.9933,3.06,3.0825,3.0875,3.114,3.119,3.1297,3.1754,3.1874,3.2214,3.3653,3.495,3.5966,3.6328,3.7424,3.845,3.867,3.932,4.0073,4.0668,4.0951,4.1115,4.1092,4.1107,4.1034,4.0836,4.0988,4.0799,4.0002,4.0404,4.0321,3.9142,3.9357,3.9265,3.8456,3.8414,3.7973,3.6923,3.6292,3.5587,3.4743,3.3725,3.3049,3.2684,3.3032,3.3302,3.3476,3.3707,3.3807,3.3807,3.3707,3.3707,0.0,0.0,0.0,0.0,0.0,0.0,0.0,0.0,2.8184,2.8981,2.9728,3.006,2.942,3.1144,3.2665,3.2665,3.3313,3.3807,3.3807,3.3807,3.3532,3.2761,3.3348,3.3495,3.2742,3.3348,3.3476,3.2724,3.2632,3.2284,3.1494,3.0705,3.0246,3.0167,2.9434,2.9007,2.8929,2.8952,2.8608,2.786,2.786,2.709,2.5657,2.5942,2.5344,2.4168,2.5197,2.5614,2.5596,2.5628,2.6103,2.6819,2.6856,2.7549,2.8396,2.7716,2.8119,2.8937,2.822,2.8422,2.9141,2.9621,2.9794,2.9967,3.0892,3.119,3.1207,3.1224,3.2417,3.3439,3.2481,3.3888,3.5564,3.5634,3.6632,3.7753,3.8542,3.932,3.9915,3.9952,4.0573,4.1092,4.1101,4.1108,4.0855,4.0081,4.0603,4.08,4.0007,3.9952,3.9933,3.9841,3.9191,3.8438,3.7631,3.7558,3.6879,3.5228,3.5099,3.4724,3.3899,3.3437,3.319,3.3163,3.3178,3.2983,3.2583,3.339,3.3807,3.3788,3.339,3.3437,0.0,0.0,0.0,0.0,0.0,2.5146,2.5425,2.5902,2.6321,2.6638,2.7322,2.7794,2.752,2.9855,3.1666,3.1137,3.171,3.2437,3.2948,3.259,3.2342,3.2551,3.2394,3.2137,3.1861,3.2082,3.2137,3.1843,3.1347,3.0925,3.065,2.9384,2.865,2.865,2.7879,2.7475,2.7475,2.7475,2.731,2.7034,2.7034,2.6362,2.5117,2.5451,2.482,2.3503,2.4316,2.4536,2.4397,2.4911,2.5406,2.5968,2.7009,2.7661,2.8007,2.8008,2.8141,2.827,2.8219,2.8305,2.8612,2.9434,3.0156,3.0718,3.1067,3.119,3.119,3.119,3.2466,3.3716,3.3281,3.3978,3.5,3.5854,3.6784,3.7571,3.7863,3.8548,3.9124,3.9124,3.9355,3.9562,3.954,3.9553,3.9461,3.9173,3.9375,3.9461,3.9173,3.9124,3.9124,3.9124,3.8854,3.8383,3.7564,3.7485,3.6786,3.5107,3.4989,3.4642,3.3825,3.368,3.3455,3.3208,3.346,3.3386,3.2934,3.328,3.355,3.3788,3.339,3.3437,0.0,0.0,0.0,0.0,0.0,2.4282,2.4208,2.4614,2.5001,2.4996,2.5643,2.6103,2.5838,2.7981,2.9779,2.9806,3.0487,3.1283,3.2074,3.1722,3.1495,3.1763,3.1574,3.128,3.1017,3.1237,3.1274,3.1017,3.0246,2.9677,2.9402,2.8117,2.7402,2.7402,2.6888,2.6612,2.6612,2.6612,2.6423,2.6023,2.6023,2.5353,2.4177,2.4508,2.4051,2.3069,2.361,2.381,2.3754,2.4414,2.4972,2.552,2.6866,2.7547,2.7838,2.8268,2.8211,2.7902,2.7999,2.7872,2.7895,2.9092,2.9911,3.0544,3.105,3.119,3.119,3.119,3.2466,3.3807,3.3807,3.398,3.4411,3.5253,3.6289,3.7113,3.7101,3.7717,3.8383,3.8652,3.8475,3.8383,3.8652,3.8707,3.8707,3.8707,3.8707,3.8707,3.8707,3.8707,3.8707,3.8707,3.8456,3.7973,3.7168,3.685,3.6066,3.4679,3.4605,3.4311,3.3642,3.3597,3.3314,3.2727,3.3144,3.323,3.2983,3.3135,3.3415,3.3807,3.3226,3.3188,0.0,0.0,0.0,0.0,0.0,0.0,2.4208,0.0,2.4192,2.4173,2.48,2.5133,2.4337,2.5485,2.7058,2.8635,2.96,3.0406,3.1219,3.1316,3.1008,3.029,3.0846,3.0962,3.0191,3.0815,3.0925,3.0155,2.9384,2.8594,2.7805,2.6998,2.6557,2.6539,2.6539,2.6539,2.6539,2.6518,2.5969,2.4865,2.4847,2.4094,2.2721,2.3045,2.3021,2.2721,2.3045,2.3392,2.3692,2.4036,2.4651,2.5428,2.6274,2.709,2.7812,2.8242,2.819,2.7847,2.7443,2.7043,2.6945,2.8458,2.8996,2.9343,3.0752,3.119,3.119,3.119,3.2433,3.3734,3.3807,3.3807,3.3807,3.3807,3.5055,3.6266,3.6282,3.6881,3.765,3.8456,3.7992,3.7705,3.8493,3.8634,3.8634,3.8634,3.8652,3.867,3.867,3.867,3.867,3.867,3.7937,3.715,3.6328,3.5485,3.4668,3.3844,3.3788,3.3605,3.3212,3.3196,3.2745,3.1861,3.2264,3.2517,3.2517,3.2965,3.3382,3.378,3.2927,3.2789,2.5226,0.0,0.0,0.0,0.0,0.0,2.3692,0.0,2.4026,2.3437,2.3971,2.4467,2.4226,2.4688,2.5408,2.646,2.764,2.8732,2.954,2.9143,2.9162,3.0088,2.8876,2.8085,2.8424,2.8137,2.7848,2.761,2.7398,2.7181,2.6943,2.6172,2.5456,2.4887,2.4869,2.4869,2.4869,2.4632,2.4339,2.4035,2.3799,2.3329,2.2721,2.3045,2.2908,2.2453,2.2965,2.3117,2.3021,2.3588,2.3985,2.4335,2.5965,2.6741,2.7061,2.8034,2.819,2.7847,2.7425,2.7026,2.6775,2.7199,2.8825,3.0684,3.1067,3.119,3.119,3.119,3.1562,3.2213,3.3476,3.3807,3.3807,3.3807,3.4595,3.5367,3.5358,3.5515,3.5929,3.6814,3.6787,3.6705,3.6936,3.6955,3.6955,3.6955,3.7454,3.7814,3.7814,3.7814,3.7814,3.7814,3.7131,3.6291,3.5422,3.5119,3.4668,3.3844,3.3542,3.3322,3.3194,3.2879,3.2576,3.2316,3.2451,3.2681,3.3014,3.2781,3.3063,3.3788,3.3549,3.3499,0.0,0.0,0.0,0.0,0.0,0.0,2.3934,2.406,2.4172,2.3621,2.3878,2.419,2.419,2.4356,2.4635,2.512,2.6174,2.7196,2.8017,2.772,2.7743,2.8599,2.7465,2.6791,2.7255,2.6896,2.6606,2.6609,2.6298,2.5949,2.5621,2.5144,2.4667,2.4208,2.419,2.4113,2.3996,2.3795,2.3566,2.3277,2.3093,2.284,2.2537,2.2747,2.2634,2.2338,2.2781,2.2873,2.2746,2.3414,2.3692,2.3862,2.5463,2.6098,2.6261,2.7656,2.7835,2.7414,2.7521,2.7161,2.6691,2.6691,2.7892,2.955,3.0818,3.119,3.119,3.119,3.1714,3.2533,3.355,3.3807,3.3807,3.3807,3.4173,3.4402,3.4071,3.4255,3.4879,3.6056,3.6021,3.5886,3.6227,3.6282,3.6282,3.6282,3.6688,3.6989,3.7004,3.6991,3.6997,3.7011,3.6245,3.5559,3.5045,3.4686,3.4301,3.3825,3.3405,3.3103,3.2913,3.2459,3.2197,3.2194,3.2213,3.255,3.3214,3.2713,3.2848,3.3549,3.3707,3.3807,0.0,0.0,0.0,0.0,0.0,0.0,2.4607,2.4524,2.4448,2.4282,2.4208,2.4171,2.4079,2.4319,2.4498,2.4402,2.5111,2.5933,2.6659,2.6753,2.671,2.6616,2.6442,2.6362,2.6465,2.6392,2.634,2.6346,2.5658,2.4939,2.4245,2.419,2.419,2.419,2.417,2.3996,2.3692,2.3628,2.3323,2.2746,2.2686,2.2537,2.2349,2.2293,2.231,2.2377,2.2608,2.2737,2.2855,2.3571,2.3807,2.3825,2.4953,2.5403,2.5605,2.72,2.7314,2.6823,2.7613,2.7365,2.6691,2.6691,2.6775,2.7317,2.9905,3.0823,3.0908,3.0757,3.2053,3.3578,3.3734,3.366,3.3587,3.3752,3.366,3.3366,3.2742,3.3091,3.4007,3.5586,3.5356,3.5127,3.589,3.6019,3.6019,3.6019,3.6093,3.615,3.6152,3.6158,3.615,3.614,3.5393,3.4879,3.4879,3.4209,3.3807,3.3807,3.3368,3.2955,3.2518,3.2067,3.1795,3.1795,3.1881,3.2366,3.3214,3.2809,3.2859,3.3294,3.364,3.3807,0.0,0.0,0.0,0.0,0.0,0.0,2.4935,2.4692,2.4485,2.4448,2.4319,2.4005,2.3361,2.406,2.4517,2.3807,2.463,2.5512,2.5874,2.5789,2.5926,2.6543,2.5462,2.4904,2.5574,2.5037,2.4667,2.4668,2.452,2.4373,2.4208,2.419,2.419,2.419,2.3937,2.3774,2.3692,2.3165,2.2972,2.3093,2.2607,2.2463,2.2608,2.2415,2.2426,2.2634,2.286,2.3094,2.3436,2.4483,2.4429,2.3825,2.4953,2.5403,2.5605,2.72,2.7314,2.6816,2.7628,2.7352,2.6691,2.6691,2.7097,2.7589,2.7589,2.8424,2.9177,2.7932,2.9585,3.2039,3.3447,3.2834,3.2192,3.3495,3.2797,3.199,3.2504,3.221,3.2162,3.3143,3.3705,3.4091,3.4265,3.4283,3.4283,3.4283,3.4833,3.5247,3.5239,3.5239,3.5248,3.5256,3.4512,3.4036,3.4036,3.388,3.3807,3.3807,3.3085,3.2606,3.25,3.2038,3.181,3.1795,3.2527,3.3014,3.3214,3.3419,3.3587,3.3688,3.3771,3.3807,0.0,0.0,0.0,2.5303,0.0,0.0,0.0,2.486,2.4689,2.4524,2.4411,2.419,2.3692,2.4173,2.4545,2.4203,2.4649,2.513,2.5322,2.5201,2.5206,2.5522,2.4744,2.4356,2.4744,2.4448,2.419,2.419,2.4301,2.4319,2.4208,2.419,2.419,2.419,2.3858,2.3692,2.3692,2.3189,2.3239,2.3797,2.3484,2.3345,2.3354,2.3345,2.318,2.2884,2.3316,2.366,2.397,2.5023,2.515,2.474,2.5237,2.5164,2.4942,2.6153,2.6139,2.5685,2.6896,2.6809,2.6201,2.6573,2.6945,2.7182,2.6809,2.7233,2.7692,2.6911,2.8082,2.9896,3.1545,3.1474,3.1268,3.2353,3.1978,3.1513,3.1916,3.2008,3.2118,3.2522,3.3256,3.3807,3.3807,3.3807,3.3807,3.3807,3.4127,3.4265,3.3844,3.3807,3.3807,3.3807,3.3423,3.335,3.377,3.3807,3.3807,3.3807,3.2966,3.2606,3.2835,3.2162,3.202,3.2492,3.316,3.3494,3.3494,3.3707,3.3807,3.3807,3.3807,3.3807,0.0,0.0,0.0,0.0,0.0,2.5264,0.0,0.0,0.0,2.4634,2.4543,2.4393,2.4024,2.428,2.4512,2.4333,2.4645,2.4832,2.461,2.4577,2.4594,2.4557,2.4377,2.4245,2.4245,2.4208,2.4192,2.4189,2.434,2.4374,2.4208,2.419,2.419,2.419,2.3858,2.3692,2.3692,2.3369,2.3555,2.4266,2.4193,2.4159,2.4173,2.4382,2.4189,2.3705,2.415,2.4446,2.469,2.537,2.554,2.5375,2.5389,2.5017,2.4502,2.5104,2.4883,2.4494,2.5914,2.5969,2.5507,2.6251,2.6573,2.6691,2.6691,2.6691,2.6691,2.6691,2.7368,2.8391,2.957,3.0087,3.0497,3.1207,3.1293,3.1201,3.1366,3.1916,3.2375,3.2375,3.2889,3.3385,3.3532,3.355,3.3513,3.3348,3.333,3.3101,3.2454,3.2371,3.2379,3.2379,3.2373,3.2684,3.3505,3.3578,3.3633,3.3788,3.3085,3.2798,3.3188,3.2472,3.2459,3.3305,3.364,3.3807,3.3807,3.3807,3.3807,3.3807,3.3807,3.3807,0.0,0.0,0.0,0.0,2.5303,0.0,2.5264,0.0,2.4956,2.4807,0.0,2.4208,2.3287,0.0,0.0,2.2813,2.4085,2.4726,2.3256,2.3541,2.4143,2.47,2.4604,2.4467,2.4467,2.4301,2.42,2.4194,2.4222,2.4208,2.419,2.419,2.419,2.419,2.3858,2.3692,2.3692,2.3369,2.3399,2.3775,2.3471,2.3845,2.4792,2.4775,2.5241,2.6062,2.5735,2.5684,2.5797,2.5589,2.5004,2.4284,2.5072,2.5348,2.5234,2.5038,2.4682,2.438,2.5055,2.4999,2.4729,2.549,2.6167,2.6691,2.6691,2.6691,2.6691,2.6691,2.7759,2.8925,2.9151,2.9205,2.9554,3.1043,3.0862,3.0522,3.1237,3.1458,3.1531,3.1531,3.1604,3.1905,3.2629,3.2739,3.2474,3.177,3.1659,3.1641,3.1549,3.1544,3.1547,3.1547,3.1528,3.1864,3.2665,3.2738,3.3048,3.3752,3.3368,3.3147,3.3205,3.3098,3.3267,3.3735,3.3798,3.3807,3.3807,3.3807,3.3807,3.3807,3.3807,3.3807,0.0,0.0,0.0,0.0,0.0,0.0,2.5303,0.0,2.4966,2.4832,0.0,0.0,0.0,0.0,0.0,0.0,2.4132,2.4224,2.365,2.3352,2.3475,2.414,2.4036,2.4073,2.445,2.4005,2.3805,2.4173,2.3877,2.384,2.4171,2.419,2.419,2.419,2.3871,2.3794,2.3996,2.3671,2.3887,2.4689,2.4657,2.5061,2.5847,2.6078,2.6191,2.6153,2.6118,2.5853,2.5475,2.5489,2.519,2.4682,2.4791,2.4532,2.4114,2.396,2.3684,2.3466,2.4153,2.4185,2.4052,2.5209,2.5799,2.6135,2.6556,2.6691,2.6757,2.7085,2.7745,2.8476,2.8905,2.937,2.9747,2.9955,3.0446,3.0864,3.0723,3.1439,3.1953,3.1476,3.177,3.1916,3.1317,3.1593,3.1795,3.1439,3.1415,3.1232,3.0779,3.0691,3.0711,3.0711,3.0698,3.1225,3.2471,3.2588,3.293,3.3752,3.3633,3.3439,3.3216,3.3419,3.3615,3.3807,3.3807,3.3807,3.3807,3.3807,3.3807,3.3807,3.3807,3.3807,2.5303,0.0,2.5303,2.5303,2.5303,2.5292,2.5232,2.5102,2.4945,2.477,2.4591,0.0,0.0,0.0,2.4554,2.446,0.0,2.4097,2.3793,2.3193,2.3075,2.3793,2.366,2.3569,2.3732,2.3232,2.3161,2.3823,2.3474,2.3508,2.4153,2.419,2.419,2.419,2.3969,2.395,2.419,2.3976,2.429,2.5151,2.53,2.5745,2.6392,2.6789,2.6767,2.6368,2.6403,2.6001,2.5332,2.5225,2.4986,2.4602,2.4117,2.3653,2.3237,2.3109,2.2923,2.2782,2.3271,2.3437,2.3566,2.4639,2.5279,2.5748,2.6488,2.6691,2.679,2.7356,2.7736,2.8112,2.8682,2.9352,2.9701,2.9009,2.9984,3.0888,3.0186,3.1199,3.2027,3.1219,3.1549,3.1513,3.0118,3.054,3.0999,3.0779,3.0754,3.0533,2.9947,2.9871,2.9881,2.9881,2.9769,3.0283,3.166,3.1883,3.2391,3.3386,3.356,3.3505,3.3195,3.3578,3.3807,3.3807,3.3807,3.3807,3.3807,3.3807,3.3823,3.3917,3.3823,3.3842,2.5303,2.5303,2.5303,2.5303,2.5303,2.5241,2.5056,2.5003,2.4912,2.4577,2.4504,2.4448,2.4226,2.4522,2.4517,0.0,2.4495,0.0,0.0,2.2821,2.3118,2.3983,2.3744,2.3069,2.199,2.1877,2.2191,2.298,2.3014,2.3361,2.4153,2.419,2.419,2.419,2.419,2.419,2.419,2.419,2.4303,2.4532,2.4532,2.5088,2.611,2.6336,2.6835,2.7523,2.693,2.6418,2.5884,2.4797,2.3894,2.3224,2.2883,2.3027,2.3345,2.2884,2.2721,2.266,2.2432,2.2801,2.341,2.346,2.4441,2.5761,2.6471,2.6691,2.679,2.7356,2.7841,2.8237,2.8393,2.8732,2.8937,2.8517,2.9358,3.0123,2.9707,3.0597,3.1201,3.0393,3.0265,3.0008,2.9177,2.9714,2.9971,2.92,2.909,2.9067,2.903,2.903,2.9053,2.9053,2.8692,2.8792,2.9646,3.007,3.0902,3.2438,3.2966,3.3195,3.3195,3.3578,3.3807,3.3807,3.3807,3.3807,3.3807,3.3807,3.3931,3.4184,3.3924,3.3935,2.5303,2.5303,2.5303,2.5303,2.5303,2.5282,2.5222,2.5095,2.4934,2.4729,2.4688,2.4652,2.4448,2.4679,0.0,0.0,0.0,2.3256,0.0,2.1947,2.1775,2.1317,2.2114,2.2553,2.2175,2.1522,2.1752,2.3213,2.272,2.2938,2.4319,2.4282,2.4266,2.4391,2.4265,2.4339,2.4591,2.4461,2.4495,2.47,2.4795,2.5348,2.6317,2.6511,2.6802,2.7116,2.6832,2.6167,2.5223,2.4572,2.3875,2.3165,2.2822,2.2691,2.2699,2.3045,2.317,2.3073,2.2491,2.2462,2.2784,2.3444,2.3866,2.4458,2.6167,2.6234,2.5926,2.7039,2.7669,2.8018,2.8048,2.8276,2.8397,2.8124,2.9201,3.0005,2.9032,3.0009,3.0748,2.9622,2.9843,2.9953,2.9122,2.9214,2.9329,2.903,2.8994,2.8887,2.8633,2.859,2.8515,2.8281,2.8138,2.8393,2.9194,2.9876,3.0906,3.2407,3.2459,3.2702,3.3186,3.3578,3.3807,3.3807,3.3807,3.3807,3.3807,3.3981,3.4123,3.4207,3.4339,3.433,2.5303,2.5303,2.5303,2.5303,2.5303,2.5283,2.5206,2.5094,2.4953,2.4823,2.4799,2.4764,2.4634,2.4816,2.4832,0.0,0.0,0.0,0.0,2.1696,2.1086,1.9988,2.1104,2.1894,2.1767,2.0961,2.1293,2.336,2.2641,2.2839,2.4523,2.4479,2.4471,2.4594,2.4485,2.4535,2.4804,2.4666,2.47,2.4864,2.4975,2.5399,2.6097,2.6231,2.6361,2.6432,2.6315,2.5742,2.4828,2.4572,2.397,2.3165,2.2972,2.2798,2.2733,2.2936,2.3004,2.2936,2.2462,2.231,2.2412,2.3054,2.3376,2.3782,2.5118,2.5625,2.5959,2.6988,2.7503,2.7806,2.8389,2.8319,2.8084,2.8024,2.8833,2.9409,2.8576,2.9366,2.9995,2.9163,2.9439,2.9622,2.9085,2.8994,2.8994,2.8994,2.8994,2.8863,2.8446,2.8394,2.8264,2.7954,2.7783,2.8135,2.918,2.9486,3.0454,3.2357,3.2216,3.2386,3.3186,3.3578,3.4072,3.4686,3.4091,3.4127,3.4815,3.442,3.4309,3.4528,3.4737,3.468]},{"header":{"parameterUnit":"m.s-1","parameterCategory":1,"la1":30.6,"la2":29.2853,"lo1":-89.7004,"lo2":-87.6739,"dy":0.0162,"dx":0.0183,"nx":112,"ny":82,"refTime":"2023-05-22T00:00:00:Z","depth":0,"parameterNumber":3,"parameterNumberName":"V-component_of_WINDS"},"data":[0.0,0.0,0.0,0.0,0.0,0.0,0.0,0.0,0.0,0.0,0.0,0.0,0.0,0.0,0.0,0.0,0.0,0.0,0.0,0.0,0.0,0.0,0.0,0.0,0.0,0.0,0.0,0.0,0.0,0.0,0.0,0.0,0.0,0.0,0.0,0.0,0.0,0.0,0.0,0.0,0.0,0.0,0.0,0.0,0.0,0.0,0.0,0.0,0.0,0.0,0.0,0.0,0.0,0.0,0.0,0.0,0.0,0.0,0.0,0.0,0.0,0.0,0.0,0.0,0.0,0.0,0.0,0.0,0.0,0.0,0.0,0.0,0.0,0.0,0.0,0.0,0.0,0.0,0.0,0.0,0.0,0.0,0.0,0.0,0.0,0.0,0.0,0.0,0.0,0.0,0.5165,0.5406,0.6027,0.6366,0.6271,0.6152,0.5885,0.5297,0.0,0.0,0.0,0.0,0.0,0.0,0.0,0.0,0.0,0.0,0.0,0.0,0.0,0.0,0.0,0.0,0.0,0.0,0.0,0.0,0.0,0.0,0.0,0.0,0.0,0.0,0.0,0.0,0.0,0.0,0.0,0.0,0.0,0.0,0.0,0.0,0.0,0.0,0.0,0.0,0.0,0.0,0.0,0.0,0.0,0.0,0.0,0.0,0.0,0.0,0.0,0.0,0.0,0.0,0.0,0.0,0.0,0.0,0.0,0.0,0.0,0.0,0.0,0.0,0.0,0.0,0.0,0.0,0.0,0.0,0.0,0.0,0.0,0.0,0.0,0.0,0.0,0.0,0.0,0.0,0.0,0.0,0.0,0.0,0.0,0.0,0.0,0.0,0.0,0.0,0.0,0.0,0.0,0.0,0.0,0.0,0.0,0.0,0.0,0.0,0.0,0.0,0.0,0.0,0.569,0.5667,0.5879,0.6142,0.6251,0.5671,0.5506,0.601,0.0,0.0,0.0,0.0,0.0,0.0,0.0,0.0,0.0,0.0,0.0,0.0,0.0,0.0,0.0,0.0,0.0,0.0,0.0,0.0,0.0,0.0,0.0,0.0,0.0,0.0,0.0,0.0,0.0,0.0,0.0,0.0,0.0,0.0,0.0,0.0,0.0,0.0,0.0,0.0,0.0,0.0,0.0,0.0,0.0,0.0,0.0,0.0,0.0,0.0,0.0,0.0,0.0,0.0,0.0,0.0,0.0,0.0,0.0,0.0,0.0,0.0,0.0,0.0,0.0,0.0,0.0,0.0,0.0,0.0,0.0,0.0,0.0,0.0,0.0,0.0,0.0,0.0,0.0,0.0,0.0,0.0,0.0,0.0,0.0,0.0,0.0,0.0,0.0,0.0,0.0,0.0,0.0,0.0,0.0,0.0,0.0,0.0,0.0,0.0,0.0,0.0,0.0,0.3258,0.5669,0.5823,0.5939,0.6023,0.6013,0.5471,0.522,0.5508,0.5037,0.0,0.0,0.0,0.0,0.0,0.0,0.0,0.0,0.0,0.0,0.0,0.0,0.0,0.0,0.0,0.0,0.0,0.0,0.0,0.0,0.0,0.0,0.0,0.0,0.0,0.0,0.0,0.0,0.0,0.0,0.0,0.0,0.0,0.0,0.0,0.0,0.0,0.0,0.0,0.0,0.0,0.0,0.0,0.0,0.0,0.0,0.0,0.0,0.0,0.0,0.0,0.0,0.0,0.0,0.0,0.0,0.0,0.0,0.0,0.0,0.0,0.0,0.0,0.0,0.0,0.0,0.0,0.0,0.0,0.0,0.0,0.0,0.0,0.0,0.0,0.0,0.0,0.0,0.0,0.0,0.0,0.0,0.0,0.0,0.0,0.0,0.0,0.0,0.0,0.0,0.0,0.0,0.0,0.0,0.0,0.0,0.0,0.0,0.0,0.0,0.0,0.0,0.3601,0.5575,0.6012,0.5974,0.5899,0.5708,0.522,0.4965,0.5104,0.4657,0.0,0.0,0.0,0.0,0.0,0.0,0.0,0.0,0.0,0.0,0.0,0.0,0.0,0.0,0.0,0.0,0.0,0.0,0.0,0.0,0.0,0.0,0.0,0.0,0.0,0.0,0.0,0.0,0.0,0.0,0.0,0.0,0.0,0.0,0.0,0.0,0.0,0.0,0.0,0.0,0.0,0.0,0.0,0.0,0.0,0.0,0.0,0.0,0.0,0.0,0.0,0.0,0.0,0.0,0.0,0.0,0.0,0.0,0.0,0.0,0.0,0.0,0.0,0.0,0.0,0.0,0.0,0.0,0.0,0.0,0.0,0.0,0.0,0.0,0.0,0.0,0.0,0.0,0.0,0.0,0.0,0.0,0.0,0.0,0.0,0.0,0.0,0.0,0.0,0.0,0.0,0.0,0.0,0.0,0.0,0.0,0.0,0.0,0.0,0.0,0.0,0.0,0.4885,0.5614,0.6214,0.5977,0.561,0.5459,0.4728,0.4692,0.5657,0.4658,0.0,0.0,0.0,0.0,0.0,0.0,0.0,0.0,0.0,0.0,0.0,0.0,0.0,0.0,0.0,0.0,0.0,0.0,0.0,0.0,0.0,0.0,0.0,0.0,0.0,0.0,0.0,0.0,0.0,0.0,0.0,0.0,0.0,0.0,0.0,0.0,0.0,0.0,0.0,0.0,0.0,0.0,0.0,0.0,0.0,0.0,0.0,0.0,0.0,0.0,0.0,0.0,0.0,0.0,0.0,0.0,0.0,0.0,0.0,0.0,0.0,0.0,0.0,0.0,0.0,0.0,0.0,0.0,0.0,0.0,0.0,0.0,0.0,0.0,0.0,0.0,0.0,0.0,0.0,0.0,0.0,0.0,0.0,0.0,0.0,0.0,0.0,0.0,0.0,0.0,0.0,0.0,0.0,0.0,0.0,0.0,0.0,0.0,0.0,0.0,0.0,0.0,0.4998,0.5455,0.0,0.5592,0.5654,0.6061,0.5675,0.5699,0.6267,0.0,0.0,0.0,0.0,0.0,0.0,0.0,0.0,0.0,0.0,0.0,0.0,0.0,0.0,0.0,0.0,0.0,0.0,0.0,0.0,0.0,0.0,0.0,0.0,0.0,0.0,0.0,0.0,0.0,0.0,0.0,0.0,0.0,0.0,0.0,0.0,0.0,0.0,0.0,0.0,0.0,0.0,0.0,0.0,0.0,0.0,0.0,0.0,0.0,0.0,0.0,0.0,0.0,0.0,0.0,0.0,0.0,0.0,0.0,0.0,0.0,0.0,0.0,0.0,0.0,0.0,0.0,0.0,0.0,0.0,0.0,0.0,0.0,0.0,0.0,0.0,0.0,0.0,0.0,0.0,0.0,0.0,0.0,0.0,0.0,0.0,0.0,0.0,0.0,0.0,0.0,0.0,0.0,0.0,0.0,0.0,0.0,0.0,0.0,0.0,0.0,0.0,0.423,0.504,0.5371,0.0,0.539,0.5727,0.6481,0.6464,0.644,0.6583,0.0,0.0,0.0,0.0,0.0,0.0,0.0,0.0,0.0,0.0,0.0,0.0,0.0,0.0,0.0,0.0,0.0,0.0,0.0,0.0,0.0,0.0,0.0,0.0,0.0,0.0,0.0,0.0,0.0,0.0,0.0,0.0,0.0,0.0,0.0,0.0,0.0,0.0,0.0,0.0,0.0,0.0,0.0,0.0,0.0,0.0,0.0,0.0,0.0,0.0,0.0,0.0,0.0,0.0,0.0,0.0,0.0,0.0,0.0,0.0,0.0,0.0,0.0,0.0,0.0,0.0,0.0,0.0,0.0,0.0,0.0,0.0,0.0,0.0,0.0,0.0,0.0,0.0,0.0,0.0,0.0,0.0,0.0,0.0,0.0,0.0,0.0,0.0,0.0,0.0,0.0,0.0,0.0,0.0,0.0,0.0,0.0,0.0,0.0,0.0,0.0,0.0,0.4476,0.5043,0.5418,0.5423,0.5389,0.5711,0.6554,0.6722,0.6755,0.0,0.0,0.0,0.0,0.0,0.0,0.0,0.0,0.0,0.0,0.0,0.0,0.0,0.0,0.0,0.0,0.0,0.0,0.0,0.0,0.0,0.0,0.0,0.0,0.0,0.0,0.0,0.0,0.0,0.0,0.0,0.0,0.0,0.0,0.0,0.0,0.0,0.0,0.0,0.0,0.0,0.0,0.0,0.0,0.0,0.0,0.0,0.0,0.0,0.0,0.0,0.0,0.0,0.0,0.0,0.0,0.0,0.0,0.0,0.0,0.0,0.0,0.0,0.0,0.0,0.0,0.0,0.0,0.0,0.0,0.0,0.0,0.0,0.0,0.0,0.0,0.0,0.0,0.0,0.0,0.0,0.0,0.0,0.0,0.0,0.0,0.0,0.0,0.0,0.0,0.0,0.0,0.0,0.0,0.0,0.0,0.0,0.0,0.0,0.0,0.0,0.0,0.0,0.4523,0.5034,0.5244,0.4803,0.4762,0.5686,0.7977,0.7814,0.7734,0.8131,0.0,0.0,0.0,0.0,0.0,0.0,0.0,0.0,0.0,0.0,0.0,0.0,0.0,0.0,0.0,0.0,0.0,0.0,0.0,0.0,0.0,0.0,0.0,0.0,0.0,0.0,0.0,0.0,0.0,0.0,0.0,0.0,0.0,0.0,0.0,0.0,0.0,0.0,0.0,0.0,0.0,0.0,0.0,0.0,0.0,0.0,0.0,0.0,0.0,0.0,0.0,0.0,0.0,0.0,0.0,0.0,0.0,0.0,0.0,0.0,0.0,0.0,0.0,0.0,0.0,0.0,0.0,0.0,0.0,0.0,0.0,0.0,0.0,0.0,0.0,0.0,0.0,0.0,0.0,0.0,0.0,0.0,0.0,0.0,0.0,0.0,0.0,0.0,0.0,0.0,0.0,0.0,0.0,0.0,0.0,0.0,0.0,0.0,0.0,0.0,0.0,0.0,0.4406,0.4815,0.5102,0.531,0.5865,0.6946,0.8631,0.8152,0.803,0.8617,0.0,0.0,0.0,0.0,0.0,0.0,0.0,0.0,0.0,0.0,0.0,0.0,0.0,0.0,0.0,0.0,0.0,0.0,0.0,0.0,0.0,0.0,0.0,0.0,0.0,0.0,0.0,0.0,0.0,0.0,0.0,0.0,0.0,0.0,0.0,0.0,0.0,0.0,0.0,0.0,0.0,0.0,0.0,0.0,0.0,0.0,0.0,0.0,0.0,0.0,0.0,0.0,0.0,0.0,0.0,0.0,0.0,0.0,0.0,0.0,0.0,0.0,0.0,0.0,0.0,0.0,0.0,0.0,0.0,0.0,0.0,0.0,0.0,0.0,0.0,0.0,0.0,0.0,0.0,0.0,0.0,0.0,0.0,0.0,0.0,0.0,0.0,0.0,0.0,0.0,0.0,0.0,0.0,0.0,0.0,0.0,0.0,0.0,0.0,0.0,0.0,0.0,0.4326,0.4587,0.5148,0.6502,0.7935,0.8791,0.8784,0.8084,0.7837,0.8357,0.0,0.0,0.0,0.0,0.0,0.0,0.0,0.0,0.0,0.0,0.0,0.0,0.0,0.0,0.0,0.0,0.0,0.0,0.0,0.0,0.0,0.0,0.0,0.0,0.0,0.0,0.0,0.0,0.0,0.0,0.0,0.0,0.0,0.0,0.0,0.0,0.0,0.0,0.0,0.0,0.0,0.0,0.0,0.0,0.0,0.0,0.0,0.0,0.0,0.0,0.0,0.0,0.0,0.0,0.0,0.0,0.0,0.0,0.0,0.0,0.4687,0.4564,0.0,0.0,0.0,0.0,0.0,0.0,0.0,0.0,0.0,0.0,0.0,0.0,0.0,0.0,0.0,0.0,0.0,0.0,0.0,0.0,0.0,0.0,0.0,0.0,0.0,0.0,0.0,0.0,0.0,0.0,0.0,0.0,0.0,0.0,0.0,0.0,0.0,0.0,0.0,0.0,0.4297,0.5144,0.6009,0.7138,0.8159,0.8778,0.8778,0.8058,0.7837,0.8357,0.7862,0.0,0.0,0.0,0.0,0.0,0.0,0.0,0.0,0.0,0.0,0.0,0.0,0.0,0.0,0.0,0.0,0.0,0.0,0.0,0.0,0.0,0.0,0.0,0.0,0.0,0.0,0.0,0.0,0.0,0.0,0.0,0.0,0.0,0.0,0.0,0.0,0.0,0.0,0.0,0.0,0.0,0.0,0.0,0.0,0.0,0.0,0.0,0.0,0.0,0.0,0.0,0.0,0.0,0.0,0.0,0.0,0.0,0.0,0.0,0.4797,0.4772,0.0,0.0,0.0,0.0,0.0,0.0,0.0,0.0,0.0,0.0,0.0,0.0,0.0,0.0,0.0,0.0,0.0,0.0,0.0,0.0,0.0,0.0,0.0,0.0,0.0,0.0,0.0,0.0,0.0,0.0,0.0,0.0,0.0,0.0,0.0,0.0,0.0,0.0,0.0,0.0,0.503,0.5609,0.6308,0.7424,0.8306,0.8791,0.8811,0.8158,0.7839,0.815,0.7722,0.0,0.0,0.0,0.0,0.0,0.0,0.0,0.0,0.0,0.0,0.0,0.0,0.0,0.0,0.0,0.0,0.0,0.0,0.0,0.0,0.0,0.0,0.0,0.0,0.0,0.0,0.0,0.0,0.0,0.0,0.0,0.0,0.0,0.0,0.0,0.0,0.0,0.0,0.0,0.0,0.0,0.0,0.0,0.0,0.0,0.0,0.0,0.0,0.0,0.0,0.0,0.0,0.0,0.6585,0.6636,0.5728,0.6219,0.5922,0.4951,0.5027,0.4965,0.4904,0.4807,0.0,0.0,0.0,0.0,0.0,0.0,0.0,0.0,0.0,0.0,0.0,0.0,0.0,0.0,0.0,0.0,0.0,0.0,0.0,0.0,0.0,0.0,0.4562,0.4611,0.4707,0.479,0.4596,0.0,0.0,0.0,0.0,0.0,0.0,0.0,0.0,0.0,0.0,0.0,0.5697,0.5905,0.645,0.7557,0.8374,0.8784,0.8738,0.8237,0.7862,0.7849,0.7562,0.7453,0.0,0.0,0.0,0.0,0.0,0.0,0.0,0.0,0.0,0.0,0.0,0.0,0.0,0.0,0.0,0.0,0.0,0.0,0.0,0.0,0.0,0.0,0.0,0.0,0.0,0.0,0.0,0.0,0.0,0.0,0.0,0.0,0.5265,0.6005,0.0,0.0,0.0,0.0,0.0,0.0,0.0,0.0,0.0,0.0,0.0,0.0,0.0,0.4519,0.4632,0.5044,0.5554,0.6218,0.6776,0.7057,0.6853,0.6993,0.6896,0.6712,0.6028,0.0,0.4877,0.4663,0.0,0.0,0.0,0.0,0.0,0.0,0.0,0.0,0.0,0.0,0.0,0.0,0.0,0.0,0.0,0.0,0.0,0.0,0.0,0.0,0.0,0.0,0.4891,0.5015,0.5032,0.5032,0.487,0.4769,0.4646,0.4546,0.4532,0.4546,0.0,0.0,0.0,0.0,0.0,0.0,0.5287,0.6042,0.6799,0.7616,0.8374,0.8704,0.8457,0.8123,0.7816,0.7542,0.7248,0.7194,0.75,0.7716,0.0,0.0,0.0,0.0,0.0,0.0,0.0,0.0,0.0,0.0,0.0,0.0,0.0,0.0,0.0,0.0,0.0,0.0,0.0,0.0,0.0,0.0,0.0,0.0,0.0,0.0,0.0,0.0,0.0,0.8555,0.7704,0.7187,0.8886,1.0262,0.0,0.0,0.0,0.0,0.0,0.0,0.0,0.0,0.0,0.4975,0.7535,0.9243,0.9879,1.0168,1.0439,1.0708,1.1551,1.1684,1.093,0.833,0.8893,1.1974,1.1601,1.0875,0.9889,0.7486,0.6413,0.6243,0.0,0.0,0.0,0.0,0.567,0.5801,0.5455,0.5328,0.5362,0.5457,0.0,0.0,0.0,0.0,0.0,0.0,0.0,0.4783,0.5114,0.5185,0.5189,0.5279,0.53,0.5209,0.5057,0.4986,0.4867,0.4636,0.466,0.4667,0.4501,0.4477,0.0,0.0,0.0,0.4889,0.5926,0.6367,0.702,0.8209,0.8586,0.8758,0.8624,0.835,0.8049,0.7742,0.7442,0.7328,0.7506,0.7663,0.7704,0.0,0.0,0.0,0.0,0.0,0.0,0.0,0.0,0.0,0.0,0.0,0.0,0.0,0.0,0.0,0.0,0.0,0.0,0.0,0.0,0.0,0.0,0.0,0.0,0.0,0.0,0.0,0.0,1.0218,1.0412,0.9174,0.9688,1.0247,0.0,0.0,0.0,0.0,0.0,0.0,0.5104,0.553,0.6382,0.762,0.9545,1.1805,1.4516,1.4536,1.4536,1.4543,1.5418,1.5338,1.4411,1.096,1.1671,1.5832,1.5832,1.5337,1.4283,1.0944,0.9338,0.8854,0.7742,0.7609,0.7908,0.7314,0.7236,0.7315,0.6556,0.6284,0.6288,0.5943,0.5745,0.5583,0.5101,0.0,0.0,0.0,0.0,0.5067,0.541,0.5452,0.5487,0.5507,0.5474,0.5433,0.5281,0.525,0.5148,0.4813,0.4843,0.4833,0.4565,0.4528,0.0,0.4423,0.4608,0.5164,0.6401,0.6768,0.7396,0.8646,0.8804,0.8778,0.8704,0.8497,0.821,0.7836,0.7669,0.7594,0.7513,0.7682,0.7928,0.82,0.0,0.0,0.0,0.0,0.0,0.0,0.0,0.0,0.0,0.0,0.0,0.0,0.0,0.0,0.0,0.0,0.0,0.0,0.0,0.0,0.0,0.0,0.0,0.0,0.0,0.0,0.0,0.0,0.0,1.0621,1.1009,0.0,0.0,0.0,0.0,0.4519,1.0239,1.1522,0.6484,0.8282,1.076,1.3569,0.8512,0.898,1.5624,1.5738,1.5738,1.5745,1.5798,1.5812,1.5677,1.5461,1.5481,1.5832,1.5832,1.5798,1.5645,1.4322,1.3479,1.2687,1.0426,0.9402,0.9189,0.9194,0.9216,0.9202,0.8052,0.7694,0.7563,0.6903,0.6451,0.6156,0.584,0.5549,0.0,0.0,0.5404,0.5439,0.5528,0.5569,0.5603,0.5745,0.5779,0.5739,0.5596,0.5566,0.5437,0.4992,0.4914,0.4867,0.4707,0.0,0.4585,0.4247,0.4904,0.5694,0.6344,0.7145,0.7937,0.8699,0.8804,0.8697,0.8424,0.8434,0.8172,0.7574,0.7749,0.7776,0.752,0.8036,0.83,0.82,0.8547,0.0,0.0,0.0,0.0,0.0,0.0,0.0,0.0,0.0,0.0,0.0,0.0,0.0,0.0,0.0,0.0,0.0,0.0,0.0,0.0,0.0,0.0,0.0,0.0,0.0,0.0,0.0,0.0,1.2192,1.2322,0.0,1.227,0.9906,0.8725,0.9432,1.2391,1.3329,1.1398,1.0802,1.1992,1.5105,1.3155,1.3284,1.5818,1.5832,1.5832,1.5832,1.5832,1.5832,1.5832,1.5832,1.5832,1.5832,1.5832,1.5832,1.5798,1.5378,1.4643,1.3734,1.2827,1.2338,1.1968,1.1967,1.1739,1.1156,1.0096,0.9764,0.949,0.812,0.6902,0.5962,0.5952,0.5742,0.5549,0.5739,0.5722,0.5701,0.5956,0.5874,0.5766,0.5915,0.5874,0.5762,0.562,0.5661,0.562,0.527,0.5125,0.5009,0.4863,0.4755,0.4687,0.468,0.5162,0.5778,0.6609,0.7274,0.799,0.8699,0.8804,0.8764,0.8664,0.8651,0.8484,0.8125,0.8156,0.8163,0.8104,0.8306,0.8457,0.8586,0.8751,0.8639,0.0,0.0,0.0,0.0,0.0,0.0,0.0,0.0,0.0,0.0,0.0,0.0,0.0,0.0,0.0,0.0,0.0,0.0,0.0,0.0,0.0,0.0,0.0,0.0,0.0,0.0,1.1746,1.3319,1.3702,1.3705,1.3243,1.2325,1.2071,1.2846,1.4008,1.4645,1.4715,1.3009,1.3195,1.5762,1.5776,1.5763,1.5825,1.5832,1.5832,1.5832,1.5832,1.5832,1.5832,1.5832,1.5832,1.5832,1.5832,1.5832,1.5832,1.5832,1.5396,1.4656,1.4236,1.3955,1.3709,1.3987,1.3756,1.3114,1.1875,1.1234,1.0621,0.889,0.7675,0.6718,0.6314,0.6118,0.6006,0.62,0.6183,0.6225,0.6816,0.6865,0.6798,0.7294,0.7262,0.7086,0.6913,0.663,0.6301,0.6101,0.5652,0.5223,0.5026,0.4908,0.4994,0.546,0.5873,0.645,0.7344,0.7894,0.8369,0.8765,0.8804,0.8804,0.8804,0.8804,0.8684,0.839,0.8464,0.8477,0.8427,0.847,0.8611,0.8804,0.8804,0.8699,0.8427,0.0,0.0,0.0,0.0,0.0,0.0,0.0,0.0,0.0,0.0,0.0,0.0,0.0,0.0,0.0,0.0,0.0,0.0,0.0,0.0,0.0,0.0,0.0,0.988,1.1253,1.2767,1.3982,1.5162,1.5133,1.3414,1.3808,1.4142,1.4142,1.519,1.5832,1.5832,1.4773,1.463,1.5812,1.5832,1.5832,1.5832,1.5832,1.5832,1.5832,1.5832,1.5832,1.5832,1.5832,1.5832,1.5832,1.5832,1.5832,1.5832,1.5832,1.5819,1.565,1.4556,1.4116,1.4263,1.497,1.5183,1.504,1.3465,1.2115,1.0972,0.9343,0.8789,0.8497,0.7246,0.6785,0.6785,0.6785,0.6785,0.7026,0.8164,0.8487,0.8728,0.9948,0.9941,0.9637,0.9478,0.8445,0.7444,0.7321,0.6386,0.5508,0.5196,0.5138,0.5445,0.6513,0.7011,0.0,0.8498,0.8966,0.9084,0.8864,0.8824,0.8818,0.8818,0.8818,0.8697,0.841,0.8651,0.8684,0.8397,0.8657,0.8804,0.8804,0.8804,0.8427,0.7723,0.0,0.0,0.0,0.0,0.0,0.0,0.0,0.0,0.0,0.0,0.0,0.0,0.0,0.0,0.0,0.0,0.0,0.0,0.0,0.0,0.0,0.0,1.1979,1.2772,1.2543,1.3022,1.513,1.5586,1.5577,1.5144,1.5257,1.5351,1.5351,1.5645,1.5832,1.5832,1.547,1.5457,1.5825,1.5832,1.5832,1.5832,1.5832,1.5832,1.5832,1.5832,1.5832,1.5832,1.5832,1.5832,1.5832,1.5832,1.5832,1.5832,1.5832,1.5772,1.5765,1.5451,1.5312,1.5376,1.5586,1.5684,1.5579,1.5113,1.4423,1.3591,1.2867,1.1548,1.0128,0.9582,0.8674,0.8016,0.8363,0.8238,0.8102,0.8949,0.9471,0.9751,0.9836,0.9749,0.9364,0.8309,0.7864,0.7384,0.6421,0.6075,0.5813,0.5515,0.5277,0.5481,0.6561,0.7045,0.7649,0.8607,0.9087,0.9299,0.9236,0.8997,0.8812,0.8812,0.8812,0.8756,0.8704,0.8764,0.8771,0.8691,0.8764,0.8804,0.8804,0.8804,0.8699,0.0,0.0,0.0,0.0,0.0,0.0,0.0,0.0,0.0,0.0,0.0,0.0,0.0,0.0,0.0,0.0,0.0,0.0,0.0,0.0,0.0,0.0,1.2426,1.3162,1.4581,1.4192,1.4244,1.5685,1.5805,1.5832,1.5832,1.5832,1.5832,1.5832,1.5832,1.5832,1.5832,1.5832,1.5832,1.5832,1.5832,1.5832,1.5832,1.5832,1.5832,1.5832,1.5832,1.5832,1.5832,1.5832,1.5832,1.5832,1.5832,1.5832,1.5832,1.5832,1.5832,1.5832,0.0,0.0,0.0,0.0,1.5792,1.5778,1.5763,1.5535,1.5099,1.4648,1.32,1.1351,1.0504,0.9843,0.9155,0.8522,0.9008,0.9937,1.0343,1.0799,1.1189,1.1468,1.1352,1.0952,1.0046,0.9478,0.8684,0.7491,0.6888,0.0,0.644,0.6128,0.6218,0.7328,0.7856,0.8488,0.9451,0.959,0.9522,0.9188,0.9157,0.926,0.9514,0.9065,0.0,0.0,0.0,0.8804,0.8804,0.8804,0.0,0.0,0.0,0.8804,0.8804,0.8931,0.0,0.0,0.747,0.6997,0.0,0.0,0.0,0.0,0.0,0.0,0.0,0.0,0.0,0.0,0.0,0.0,0.0,0.0,0.0,0.0,1.3889,1.4094,1.6042,1.6195,1.5929,1.5843,1.584,1.5783,1.579,1.5757,1.5832,1.5832,1.5832,1.5832,1.5832,1.5832,0.0,0.0,0.0,1.6025,1.6025,1.5892,1.5832,1.5832,1.5832,1.5832,1.5832,1.5832,1.5832,1.5832,1.5832,1.5832,1.5832,1.5832,1.5832,1.5832,1.5832,1.5832,1.5832,1.5832,1.5832,1.5798,1.5844,0.0,0.0,1.5335,1.4145,1.2507,1.1054,1.0815,1.0583,0.8446,0.9675,1.1693,1.1969,1.231,1.2753,1.3782,1.3634,1.324,1.3008,1.187,1.0524,0.9377,0.8389,0.7673,0.7525,0.7199,0.7336,0.8558,0.9042,0.9594,1.0491,1.0301,0.9801,0.9066,0.9339,0.0,1.0348,0.9425,0.8785,0.8811,0.8804,0.8804,0.8804,0.8804,0.8804,0.8804,0.8804,0.8804,0.8804,0.901,0.8671,0.7836,0.8419,0.7749,0.0,0.0,0.0,0.0,0.0,0.0,0.0,0.0,0.0,0.0,0.0,0.0,0.0,0.0,0.0,1.6051,1.547,1.5858,1.9305,1.835,1.686,1.5944,1.581,1.5778,1.5849,1.58,1.5832,1.5832,1.5832,1.5832,1.5832,1.5832,1.5832,1.5832,1.6747,1.7241,1.7241,1.6306,1.5832,1.5832,1.5832,0.0,1.5832,1.5832,1.5832,1.5832,1.5832,1.5832,1.5832,1.5832,1.5832,1.5832,1.5832,1.5832,1.5832,1.5832,1.5832,1.5825,1.5772,1.5752,1.5812,1.5749,1.5449,1.5041,1.4242,1.3755,0.0,1.2906,1.1838,1.131,1.3184,1.373,1.3762,1.3705,1.3641,1.3179,1.1835,1.1343,1.0511,0.8493,0.858,0.8703,0.7875,0.7288,0.7491,0.9243,0.9402,0.9594,1.0491,1.0513,1.0438,1.0287,0.9479,0.8997,0.9131,0.8918,0.8815,0.8818,0.8804,0.8804,0.8804,0.8804,0.8804,0.8804,0.8804,0.8804,0.8804,0.8864,0.8751,0.8593,0.822,0.7489,0.0,0.0,0.0,0.0,0.0,0.0,0.0,0.0,0.0,0.0,0.0,1.2903,0.0,0.0,1.6286,1.7619,1.8323,1.9313,2.0969,2.1478,2.0371,1.7102,1.6731,1.6471,1.5855,1.584,1.5832,1.5832,1.6373,1.6707,1.6707,1.6707,1.6707,1.6707,1.7275,1.7596,1.7604,1.6363,1.5823,1.5843,1.5843,1.581,1.5832,1.5832,1.5832,1.5832,1.5832,1.5832,1.5832,1.5832,1.5832,1.5832,1.5832,1.5832,1.5832,1.5832,1.5832,1.5832,1.5832,1.5832,1.5805,1.5772,1.5825,1.5717,1.5521,1.4781,1.4123,1.4056,1.3281,1.261,1.3774,1.4111,1.4038,1.3928,1.3748,1.3398,1.2536,1.2286,1.1751,1.0042,1.0178,1.0296,0.9473,0.8921,0.8948,0.9904,1.0111,1.0315,1.071,1.0661,1.0616,1.0616,1.0079,0.9433,0.884,0.8822,0.8784,0.8818,0.8804,0.8804,0.8804,0.8804,0.8804,0.8804,0.8804,0.8804,0.8804,0.8804,0.8718,0.8475,0.8187,0.7555,0.0,0.0,0.0,0.0,0.0,0.0,0.0,0.0,1.2595,1.2301,1.3428,1.4379,1.4268,1.667,1.8909,1.9517,2.1089,2.2298,2.2443,2.4336,2.4035,1.9699,1.8267,1.7207,1.6195,1.714,1.7244,1.6263,1.8037,1.9213,1.9213,1.9213,1.9213,1.9213,1.8708,1.8147,1.7604,1.7649,1.7763,1.7741,1.7734,1.7698,1.7728,1.6382,1.5767,1.5833,1.5843,1.5777,1.5832,1.5832,1.5832,1.5832,1.5832,1.5832,1.5832,1.5832,1.5832,1.5832,1.5832,1.5832,1.5832,1.5832,1.5832,1.5839,1.5825,1.5002,1.4153,1.4356,1.4471,1.4404,1.4467,1.4268,1.4076,1.413,1.3858,1.3714,1.3572,1.346,1.2948,1.1742,1.1822,1.175,1.0874,1.0696,1.073,1.0749,1.0998,1.1128,1.1002,1.0788,1.0667,1.0588,1.0618,1.0112,0.8914,0.8815,0.8771,0.8771,0.8785,0.8804,0.8804,0.8804,0.8804,0.8804,0.8804,0.8804,0.8804,0.8864,0.8734,0.8397,0.8333,0.7654,1.2546,1.1798,1.2086,1.4614,1.3003,1.1544,0.0,0.0,1.4136,1.4797,1.626,1.752,1.7871,1.9646,2.145,2.2577,2.2266,2.2588,2.4881,2.5488,2.545,2.4837,2.0531,1.7566,1.7442,2.1717,2.2638,1.7777,2.1971,2.4815,2.4815,2.4815,2.4815,2.4815,2.2466,2.0085,1.7622,2.2252,2.4543,2.4621,2.4564,2.4629,2.444,1.8505,1.5841,1.5821,1.5849,1.575,1.5832,1.5832,1.5832,1.5832,1.5832,1.5832,1.5832,1.5832,1.5832,1.5832,1.5832,1.5832,1.5832,1.5832,1.5832,1.5772,1.5769,1.4963,1.4295,1.5314,1.5645,1.5569,1.5631,1.4825,1.4122,1.4089,1.4058,1.3968,1.3701,1.3532,1.3001,1.1335,1.2123,1.2441,1.0567,1.1241,1.2091,1.2121,1.1832,1.1445,1.1029,1.0962,1.0835,1.0611,1.0595,1.0086,0.8881,0.8795,0.8822,0.8822,0.8777,0.8804,0.8804,0.8804,0.8804,0.8804,0.8804,0.8804,0.8804,0.901,0.915,0.9079,0.8749,0.7832,1.3496,1.2024,1.1414,0.0,1.3665,1.4174,1.6132,1.6865,1.7312,1.7667,1.9223,2.0635,2.078,2.2494,2.3762,0.0,2.4557,2.534,2.5654,2.5742,2.5361,2.4346,2.2209,2.1214,2.2264,2.4359,2.4771,2.2466,2.4412,2.5742,2.5742,2.5742,2.5742,2.5742,2.3583,2.0889,1.764,2.1437,2.4131,2.5664,2.5741,2.5684,2.5522,1.9514,1.6881,1.6852,1.6144,1.5765,1.575,1.5797,1.5832,1.5832,1.5832,1.5832,1.5832,1.5832,1.5832,1.5832,1.5832,1.5832,1.5832,1.5832,1.5832,1.5778,1.5797,1.5511,1.5171,1.5705,1.5759,1.5841,1.5782,1.5436,1.4943,1.43,1.413,1.4064,1.3961,1.3901,1.3598,1.287,1.3283,1.349,1.2638,1.2933,1.3625,1.4562,1.3021,1.1922,1.2265,1.1682,1.1069,1.0672,1.0575,1.0407,0.9901,0.9829,0.9563,0.8858,0.8786,0.8815,0.8815,0.8778,0.8804,0.8804,0.8971,0.9065,0.9126,0.9359,0.9586,0.9694,0.957,0.9271,1.4223,0.0,0.0,1.3174,1.476,1.6614,1.7794,1.9388,2.0636,2.0798,2.2134,2.3194,2.3194,2.4781,2.5986,2.519,2.6627,2.7432,2.626,2.5674,2.4814,2.332,2.3135,2.3667,2.507,2.5479,2.5742,2.5742,2.5742,2.5742,2.5742,2.5742,2.5742,2.5742,2.3971,2.1999,1.986,2.0351,2.2296,2.5742,2.5742,2.5742,2.5513,2.003,1.7592,1.7592,1.6667,1.6236,1.6039,1.586,1.5836,1.583,1.5763,1.5832,1.5832,1.5832,1.5832,1.5832,1.5832,1.5832,1.5832,1.5832,1.5832,1.5792,1.5792,1.5772,1.5792,1.5785,1.5779,1.5785,1.5785,1.5776,1.5599,1.4767,1.434,1.4076,1.4064,1.4142,1.4088,1.4088,1.4088,1.4112,1.409,1.4077,1.4441,1.5568,1.4524,1.3621,1.3847,1.2684,1.1498,1.0799,1.0627,1.0595,1.0625,1.0592,1.0207,0.9343,0.9271,0.9177,0.8983,0.9035,0.9051,0.9051,0.9252,0.9365,0.9491,0.9724,0.9913,1.012,1.02,1.0354,1.4639,0.0,1.7605,1.6094,1.6633,1.7845,1.9089,2.1579,2.3877,2.4368,2.4781,2.495,2.495,2.638,2.7783,2.8067,2.8262,2.7969,2.71,2.5518,2.4131,2.3242,2.3135,2.3389,0.0,2.5088,2.5742,2.5742,2.5742,2.5742,2.5742,2.5742,2.5742,2.5742,2.3907,2.379,2.5479,2.0351,2.0367,2.5742,2.5742,2.5673,2.55,2.0107,1.7565,1.7606,1.7586,1.7184,1.6667,1.6045,1.581,1.5791,1.583,1.5832,1.5832,1.5832,1.5832,1.5832,1.5832,1.5832,1.5832,1.5832,1.5832,1.5832,1.5818,1.5825,1.5825,1.5818,1.5825,1.5825,1.5818,1.5819,1.5807,1.5787,1.493,1.4122,1.4115,1.4091,1.4088,1.4088,1.4088,1.4082,1.4075,1.4117,1.413,1.4191,1.611,1.7095,1.5564,1.3852,1.238,1.1141,1.0752,1.062,1.0624,1.0616,1.0585,1.0518,1.0571,1.0198,0.9408,0.9588,0.9659,0.9659,0.9666,0.9666,0.9673,0.996,1.0107,1.0127,1.0414,1.0618,1.8451,0.0,1.9269,1.9341,2.2053,2.3762,2.0163,2.3278,2.6378,2.4916,2.5271,2.5872,2.5486,2.573,2.6455,2.8037,2.7812,2.7344,2.7051,2.666,2.5742,2.3935,2.4062,0.0,0.0,0.0,0.0,2.5254,2.5293,2.543,2.5723,2.5742,2.5742,2.5742,2.5089,2.5089,2.5732,2.3938,2.3938,2.5742,2.5698,2.57,2.5566,2.0124,1.758,1.7539,1.7143,1.6908,1.6667,1.6296,1.6081,1.5761,1.577,1.5832,1.5832,1.5832,1.5832,1.5832,1.5832,1.5832,1.5832,1.5832,1.5832,1.5832,1.5832,1.5832,1.5832,1.5832,1.5832,1.5832,1.5832,1.5765,1.5846,1.5763,1.5552,1.4997,1.4219,1.4063,1.4084,1.4084,1.4084,1.4143,1.4132,1.413,1.5113,1.7963,1.7749,1.6664,1.4917,1.4331,1.3446,1.1791,1.1171,1.086,1.0616,1.0575,1.0624,1.0624,1.0595,1.0453,1.018,0.9852,0.9751,0.988,0.9939,1.0047,1.0313,1.0404,1.0414,1.0414,1.0577,1.0624,2.0579,2.0925,2.1098,2.1851,2.5209,2.7253,2.3488,2.5353,2.7253,2.533,2.5581,2.5967,2.5381,2.5029,2.5293,2.668,2.6572,2.6435,2.6748,2.667,2.6094,2.4785,2.4824,2.4707,0.0,0.0,0.0,2.5029,2.5361,2.5596,2.5732,2.6025,2.6055,2.5752,2.5654,2.5654,2.5742,2.5742,2.5742,2.5742,2.5689,2.4701,2.2655,1.9207,1.7546,1.7562,1.7181,1.6961,1.6827,1.6569,1.6305,1.5979,1.5872,1.5832,1.5832,1.5832,1.5832,1.5832,1.5832,1.5832,1.5832,1.5832,1.5832,1.5832,1.5832,1.5832,1.5832,1.5832,1.5832,1.5832,1.5832,1.5832,1.5785,1.5805,1.579,1.5579,1.4878,1.4379,1.4119,1.411,1.4435,1.4676,1.4744,1.4382,1.5555,1.994,1.9286,1.7584,1.5581,1.4897,1.3855,1.2097,1.1613,1.1233,1.0898,1.0879,1.0803,1.0626,1.0571,1.0594,1.0623,1.0228,1.0067,1.02,1.0248,1.0411,1.0623,1.0607,1.0624,1.0624,1.0624,1.0571,2.1327,2.242,2.3366,2.3702,2.606,2.8323,2.8258,2.7569,2.6719,2.5787,2.5542,2.5293,0.0,0.0,2.4287,2.4365,2.4785,2.542,2.6328,2.5752,2.5371,0.0,0.0,0.0,0.0,0.0,0.0,2.5137,2.5869,2.6162,2.5791,2.6523,2.6582,2.5762,2.5739,2.565,2.5742,2.5742,2.5742,2.5742,2.5655,2.3045,1.8023,1.7705,1.762,1.7687,1.7562,1.7395,1.721,1.6807,1.6513,1.633,1.5945,1.5832,1.5832,1.5832,1.5832,1.5832,1.5832,1.5832,1.5832,1.5832,1.5832,1.5832,1.5832,1.5832,1.5832,1.5832,1.5832,1.5832,1.5832,1.5832,1.5832,1.5832,1.5832,1.5759,1.577,1.488,1.4116,1.4163,1.5101,1.5814,1.5689,1.5036,1.5832,2.001,2.0576,1.9803,1.7453,1.5468,1.3682,1.2094,1.1911,1.179,1.1496,1.1463,1.1255,1.0751,1.0639,1.0575,1.0588,1.0631,1.0624,1.0624,1.0624,1.0624,1.0624,1.0624,1.0624,1.0624,1.0624,1.0408,2.5163,2.6712,2.7986,2.8211,2.8897,2.9298,2.8468,2.7477,2.6094,2.4153,2.3539,2.2969,0.0,0.0,0.0,2.374,2.4853,0.0,2.7178,2.7412,0.0,2.6318,0.0,2.6221,2.5469,2.5791,0.0,0.0,2.5644,2.5644,2.6191,2.6123,2.5967,2.5742,2.5713,2.5723,2.5742,2.5742,2.5742,2.5742,2.5741,2.4932,2.3456,1.946,1.8288,1.9487,1.7743,1.6972,1.7022,1.6282,1.5992,1.5939,1.5858,1.5832,1.5832,1.5832,1.5832,1.5832,1.5832,1.5832,1.5832,1.5832,1.5832,1.5832,1.5832,1.5832,1.5832,1.5832,1.5832,1.5832,1.5832,1.5832,1.5832,1.5832,1.5778,1.5846,1.5773,1.4871,1.4318,1.5194,1.5558,1.5518,1.4717,1.697,1.9303,2.04,2.0603,2.037,1.9752,1.6927,1.4273,1.2368,1.2179,1.2149,1.2104,1.2046,1.2038,1.1886,1.1081,1.0587,1.0588,1.0597,1.0624,1.0624,1.0624,1.0624,1.0624,1.0624,1.0624,1.0624,1.0624,1.0521,2.7666,2.8965,2.9932,3.0256,3.0156,2.9109,2.6547,2.6426,2.5742,2.2329,2.1183,0.0,2.0362,0.0,0.0,0.0,0.0,0.0,2.6894,2.7305,2.7334,0.0,2.7158,0.0,2.6367,2.6689,2.6943,0.0,2.6475,2.6338,2.665,2.6611,2.6406,2.6035,2.6035,2.5947,2.5742,2.5742,2.5742,2.5742,2.5693,2.5319,2.4452,2.156,2.0546,2.0783,1.8193,1.7521,1.8023,1.6458,1.5776,1.5832,1.5832,1.5832,1.5832,1.5832,1.5832,1.5832,1.5832,1.5832,1.5832,1.5832,1.5832,1.5832,1.5832,1.5832,1.5832,1.5832,1.5832,1.5832,1.5832,1.5832,1.5832,1.5832,1.5832,1.5758,1.5776,1.5292,1.5058,1.5691,1.5841,1.6309,1.7783,1.9445,2.0615,2.0628,2.0614,1.9944,1.8026,1.6,1.4194,1.2856,1.2477,1.2283,1.2325,1.2317,1.2326,1.2281,1.1676,1.1129,1.0626,1.0573,1.0624,1.0624,1.0624,1.0624,1.0624,1.0624,1.0624,1.0624,1.0624,1.0627,2.9219,2.9828,3.0227,3.0723,3.0198,2.8506,2.4778,2.5261,2.5109,2.0458,0.0,1.867,1.9266,1.9163,1.9687,2.1622,0.0,2.4434,2.6299,2.6514,2.6787,2.7646,2.7695,2.7539,2.7217,2.7529,2.7734,2.7476,2.7725,2.7559,2.7148,2.7467,2.7139,2.6328,2.6427,2.6251,2.5742,2.5567,2.5567,2.5742,2.5509,2.4761,2.3368,2.3493,2.3024,2.1828,1.9265,1.8581,1.9154,1.6737,1.5757,1.5798,1.5818,1.5832,1.5832,1.5832,1.5832,1.5832,1.5832,1.5832,1.5832,1.5832,1.5832,1.5832,1.5832,1.5832,1.5832,1.5832,1.5832,1.5832,1.5832,1.5832,1.5832,1.5832,1.5832,1.5765,1.5824,1.5765,1.5832,1.5832,1.58,1.7131,2.1435,2.1453,2.0838,2.0613,2.0071,1.8348,1.4594,1.4083,1.3919,1.3376,1.2716,1.2322,1.2325,1.2305,1.2278,1.2271,1.2318,1.1777,1.0685,1.0586,1.0624,1.0624,1.0624,1.0624,1.0624,1.0624,1.0624,1.0624,1.0624,1.0628,2.9672,3.0285,3.0713,3.0853,2.9744,2.8572,2.8524,2.5736,0.0,0.0,1.7924,1.7325,1.6867,1.7478,1.9044,2.1913,0.0,0.0,0.0,0.0,2.7226,0.0,0.0,0.0,0.0,0.0,0.0,0.0,2.8184,2.8143,2.8113,2.7225,2.6506,2.5869,2.5859,2.582,2.5742,2.4986,2.4986,2.5723,2.4753,2.4583,2.5187,2.3739,2.318,2.3276,2.1712,1.9537,1.7112,1.6219,1.5787,1.5819,1.5772,1.5832,1.5832,1.5832,1.5832,1.5832,1.5832,1.5832,1.5832,1.5832,1.5832,1.5832,1.5832,1.5832,1.5832,1.5832,1.5832,1.5832,1.5832,1.5832,1.5832,1.5832,1.5832,1.5818,1.5772,1.5798,1.5832,1.5832,1.579,1.6028,1.6907,2.0193,2.2226,2.0838,1.7516,1.4986,1.424,1.4132,1.4028,1.3994,1.2949,1.2299,1.2271,1.2305,1.2285,1.2311,1.2284,1.1792,1.0666,1.0614,1.0624,1.0624,1.0624,1.0624,1.0624,1.0624,1.0624,1.0624,1.0624,1.0604,3.0303,3.0713,3.0927,3.0918,2.9968,2.8521,2.7071,0.0,0.0,0.0,1.5452,1.4283,1.5048,0.0,0.0,0.0,0.0,0.0,0.0,0.0,0.0,0.0,0.0,0.0,0.0,2.8291,2.8291,2.8291,2.796,2.7861,2.781,2.6986,2.6201,2.5752,2.5742,2.5742,2.5742,2.5276,2.5276,2.5732,2.5178,2.5197,2.5625,2.4573,2.419,2.4359,2.3979,2.1865,1.8902,1.9415,1.81,1.5806,1.5798,1.5832,1.5832,1.5832,1.5832,1.5832,1.5832,1.5832,1.5832,1.5832,1.5832,1.5832,1.5832,1.5832,1.5832,1.5832,1.5832,1.5832,1.5832,1.5832,1.5832,1.5832,1.5832,1.5832,1.5832,1.5832,1.5832,1.5832,1.5798,1.6607,1.9157,2.1535,2.1983,1.8646,1.6357,1.4794,1.4162,1.4115,1.4108,1.4128,1.3034,1.2323,1.2313,1.2304,1.2305,1.2305,1.2301,1.1818,1.0666,1.0573,1.0573,1.0624,1.0624,1.0624,1.0624,1.0624,1.0624,1.0624,1.0624,1.0624,3.0721,3.0946,3.0907,3.0943,3.0128,2.8074,2.3227,2.0457,0.0,0.0,1.315,1.1836,1.3549,0.0,0.0,0.0,0.0,0.0,0.0,0.0,0.0,0.0,0.0,0.0,0.0,2.8291,0.0,2.8291,2.7659,2.7195,2.6995,2.6627,2.6191,2.5752,2.5742,2.5742,2.5742,2.5635,2.5635,2.5742,2.5566,2.5518,2.5586,2.5127,2.4922,2.5016,2.5295,2.4006,2.1547,2.1582,1.9279,1.5778,1.5818,1.5832,1.5832,1.5832,1.5832,1.5832,1.5832,1.5832,1.5832,1.5832,1.5832,1.5832,1.5832,1.5832,1.5832,1.5832,1.5832,1.5832,1.5832,1.5832,1.5832,1.5832,1.5832,1.5832,1.5832,1.5832,1.5832,1.5832,1.5785,1.7152,2.1529,2.1889,2.024,1.6373,1.5623,1.5137,1.4183,1.4064,1.4088,1.4137,1.3244,1.2615,1.2337,1.2273,1.2284,1.2305,1.2274,1.1918,1.0987,1.0728,1.0588,1.0584,1.0588,1.0624,1.0624,1.0624,1.0624,1.0624,1.0624,1.0624,3.0938,3.0876,3.0858,3.089,2.9652,2.6261,1.8026,0.0,0.0,1.3235,1.2277,1.2223,1.2512,0.0,0.0,0.0,0.0,2.0117,0.0,0.0,0.0,0.0,0.0,0.0,0.0,2.8291,2.8291,2.8291,2.7272,2.6381,2.5867,2.6297,2.632,2.5752,2.5742,2.5742,2.5742,2.5207,2.5207,2.5723,2.5189,2.5002,2.5117,2.4678,2.4473,2.4482,2.4526,2.4336,2.3658,1.8613,1.6243,1.5798,1.5765,1.5832,1.5832,1.5832,1.5832,1.5832,1.5832,1.5832,1.5832,1.5832,1.5832,1.5832,1.5832,1.5832,1.5832,1.5832,1.5832,1.5832,1.5832,1.5832,1.5832,1.5832,1.5832,1.5832,1.5832,1.5832,1.5832,1.5832,1.5785,1.6707,1.9354,1.7971,1.6316,1.5876,1.4943,1.4251,1.4141,1.411,1.4082,1.4063,1.4032,1.3467,1.2363,1.2285,1.2326,1.2318,1.2274,1.226,1.2148,1.1141,1.0607,1.0581,1.0617,1.0624,1.0624,1.0624,1.0624,1.0624,1.0624,1.0624,3.0551,3.0856,3.0915,3.0944,2.9611,2.6273,1.8717,0.0,1.4364,1.3252,1.2071,1.1227,1.1298,1.2109,0.0,0.0,0.0,0.0,0.0,0.0,0.0,0.0,0.0,0.0,0.0,0.0,2.7705,2.7187,2.6939,2.6468,2.577,2.5888,2.5928,2.5742,2.5742,2.5742,2.5742,2.545,2.5304,2.5207,2.5369,2.5143,2.4668,2.4492,2.4277,2.4033,2.3712,2.2803,2.116,1.736,1.5785,1.5826,1.5805,1.5832,1.5832,1.5832,1.5832,1.5832,1.5832,1.5832,1.5832,1.5832,1.5832,1.5832,1.5832,1.5832,1.5832,1.5832,1.5832,1.5832,1.5832,1.5832,1.5832,1.5832,1.5832,1.5832,1.5832,1.5832,1.5832,1.5832,1.5785,1.6106,1.7095,1.6469,1.5837,1.5783,1.5418,1.5127,1.515,1.5129,1.4825,1.4148,1.4092,1.3919,1.34,1.2693,1.2266,1.2313,1.2291,1.2294,1.2281,1.1873,1.1281,1.0626,1.0588,1.0586,1.0624,1.0624,1.0624,1.0624,1.0624,1.0624,3.0442,3.0892,3.0927,3.0915,2.921,2.5615,0.0,0.0,1.3017,1.3044,1.1755,1.0624,1.0624,1.1368,1.2197,1.2922,0.0,1.6165,1.9478,0.0,0.0,0.0,0.0,2.5928,0.0,2.75,2.7226,2.6621,2.6728,2.6562,2.5967,2.5684,2.5596,2.5732,2.5732,2.5682,2.5682,2.5681,2.5464,2.513,2.4956,2.4886,2.4759,2.4516,2.3847,2.2825,2.2261,2.0902,1.8972,1.6714,1.5812,1.5832,1.5832,1.5832,1.5832,1.5832,1.5832,1.5832,1.5832,1.5832,1.5832,1.5832,1.5832,1.5832,1.5832,1.5832,1.5832,1.5832,1.5832,1.5832,1.5832,1.5832,1.5832,1.5832,1.5832,1.5832,1.5832,1.5832,1.5832,1.5832,1.5826,1.5779,1.5805,1.5826,1.5812,1.5844,1.5837,1.5769,1.5769,1.5763,1.5487,1.4683,1.43,1.4117,1.4124,1.3346,1.2674,1.2317,1.2293,1.2298,1.2332,1.231,1.193,1.1129,1.0797,1.0613,1.0624,1.0624,1.0624,1.0624,1.0624,1.0624,3.0381,3.0946,3.0941,3.0906,2.8258,2.3516,0.0,0.0,1.2798,1.2002,1.117,1.0624,1.0624,1.086,1.1042,1.1115,1.183,0.0,1.7943,0.0,0.0,0.0,0.0,2.4785,2.5674,2.6523,2.7021,2.7012,2.6631,2.6387,2.6387,2.5547,2.5283,2.5723,2.5688,2.57,2.57,2.5661,2.5685,2.5675,2.3948,2.4031,2.5666,2.4792,2.3044,2.0728,1.9895,1.9103,1.8148,1.6501,1.5825,1.5832,1.5832,1.5832,1.5832,1.5832,1.5832,1.5832,1.5832,1.5832,1.5832,1.5832,1.5832,1.5832,1.5832,1.5832,1.5832,1.5832,1.5832,1.5832,1.5832,1.5832,1.5832,1.5832,1.5832,1.5832,1.5832,1.5832,1.5832,1.5832,1.5832,1.5825,1.5832,1.5832,1.5825,1.5825,1.5825,1.5825,1.5825,1.5785,1.5803,1.5798,1.4784,1.4084,1.4077,1.4104,1.3567,1.235,1.2305,1.227,1.2311,1.2305,1.2287,1.2287,1.1149,1.0624,1.0624,1.0624,1.0624,1.0624,1.0624,1.0624,2.6282,2.8191,2.9129,2.9114,2.6523,2.2262,1.6054,0.0,1.1624,1.2452,1.1567,1.0602,1.0591,1.0698,1.0902,1.1398,1.2969,0.0,0.0,0.0,0.0,0.0,2.5566,2.6514,0.0,2.6689,2.6768,2.6182,2.6299,2.626,2.5967,2.5381,2.5261,2.5668,2.5728,2.5129,2.3897,2.3884,2.3909,2.3973,2.4159,2.4195,2.3847,2.2557,2.0879,1.9066,1.935,1.9018,1.8148,1.6501,1.5832,1.5832,1.5832,1.5832,1.5832,1.5832,1.5832,1.5832,1.5832,1.5832,1.5832,1.5832,1.5832,1.5832,1.5832,1.5832,1.5832,1.5832,1.5832,1.5832,1.5832,1.5832,1.5798,1.5772,1.5839,1.5798,1.5772,1.5839,1.5832,1.5832,1.5832,1.5832,1.5832,1.5832,1.5832,1.5832,1.5832,1.5832,1.5832,1.5758,1.5817,1.5826,1.4774,1.4093,1.4092,1.4138,1.3939,1.354,1.2769,1.227,1.2311,1.2336,1.1949,1.1129,1.0757,1.0606,1.0624,1.0624,1.0624,1.0624,1.0624,1.0577,0.0,2.2574,2.3392,2.3438,2.1334,0.0,0.0,0.0,1.0821,1.1631,1.1153,1.0622,1.0577,1.0624,1.0808,0.0,0.0,0.0,0.0,0.0,0.0,0.0,0.0,0.0,0.0,2.6279,2.6309,2.5781,2.5986,2.6025,2.5752,2.5156,2.4627,2.4146,2.4844,2.3639,2.0365,2.0331,2.085,2.1742,2.1516,2.1067,2.0331,1.9321,1.8334,1.7372,1.786,1.7811,0.0,1.6211,1.5832,1.5832,1.5832,1.5832,1.5832,1.5832,1.5832,1.5832,1.5832,1.5832,1.5832,1.5832,1.5832,1.5832,1.5832,1.5832,1.5832,1.5832,1.5832,1.5832,1.5832,1.5778,1.5812,1.5772,1.7196,1.8089,1.6195,1.5846,1.5832,1.5832,1.5832,1.5832,1.5832,1.5832,1.5832,1.5832,1.5832,1.5832,1.5832,1.5832,1.5819,1.584,1.4757,1.4121,1.4135,1.4108,1.407,1.4125,1.2994,1.2267,1.2309,1.2322,1.173,1.0592,1.0616,1.062,1.0624,1.0624,1.0624,1.0624,1.0624,1.0584,0.0,0.0,0.0,0.0,0.0,0.0,0.0,0.0,0.0,0.0,1.0141,1.0641,1.064,1.0631,1.0833,0.0,0.0,0.0,0.0,0.0,0.0,0.0,2.4619,0.0,2.5029,2.5459,2.5742,2.5742,2.5713,2.5684,2.5684,2.4759,2.3447,2.162,2.3177,2.1349,1.5837,1.5874,1.7106,1.919,1.7022,1.5879,1.5778,1.5778,1.5772,1.5832,1.5832,1.5832,1.5832,1.5832,1.5832,1.5832,1.5832,1.5832,1.5832,1.5832,1.5832,1.5832,1.5832,1.5832,1.5832,1.5832,1.5832,1.5832,1.5832,1.5832,1.5832,1.5832,1.5832,1.5825,1.5812,1.5785,1.5899,1.6278,1.9499,2.1351,1.6753,1.5818,1.5832,1.5832,1.5832,1.5832,1.5832,1.5832,1.5832,1.5832,1.5832,1.5825,1.5805,1.5798,1.5792,1.5812,1.4821,1.4102,1.4128,1.4088,1.4065,1.4131,1.3013,1.2368,1.2317,1.2337,1.173,1.0592,1.0597,1.0607,1.0624,1.0611,1.0611,1.0624,1.0611,1.0611,1.3383,0.0,1.3477,1.3513,1.3186,0.0,0.0,0.0,0.0,0.0,0.0,1.0741,1.1128,1.1206,1.1414,0.0,0.0,0.0,0.0,0.0,0.0,2.4219,2.5342,2.5674,2.4668,2.5283,2.5742,2.5742,2.542,2.5225,2.5225,2.3551,2.2309,2.1591,2.0382,1.8511,1.586,1.7106,1.74,1.6636,1.7379,1.7066,1.5765,1.5765,1.5792,1.5832,1.5832,1.5832,1.5832,1.5832,1.5832,1.5832,1.5832,1.5832,1.5832,1.5832,1.5832,1.5832,1.5832,1.5832,1.5832,1.5832,1.5832,1.5832,1.5832,1.5832,1.5832,1.5832,1.5832,1.5798,1.5759,1.5785,1.6779,2.0508,1.9358,1.7159,1.6026,1.5833,1.5832,1.5832,1.5832,1.5832,1.5832,1.5832,1.5832,1.5832,1.5832,1.5758,1.5837,1.581,1.5796,1.5796,1.4818,1.4089,1.4115,1.4088,1.4065,1.4131,1.3829,1.325,1.2324,1.2337,1.173,1.0592,1.0627,1.0621,1.0624,1.0586,1.0586,1.0618,1.0586,1.0601,1.2889,1.2887,1.2896,1.2878,1.1947,1.1009,0.0,0.0,0.0,0.0,0.0,0.0,1.1545,0.0,0.0,0.0,0.0,0.0,0.0,0.0,0.0,2.4365,2.5225,2.5586,2.5068,2.5273,2.543,2.543,2.5019,2.4775,2.4775,2.3019,2.163,2.094,1.8986,1.7294,1.5787,1.6722,1.6721,1.5785,1.6749,1.6697,1.5832,1.5832,1.5832,1.5832,1.5832,1.5832,1.5832,1.5832,1.5832,1.5832,1.5832,1.5832,1.5832,1.5832,1.5832,1.5832,1.5832,1.5832,1.5832,1.5832,1.5832,1.5832,1.5832,1.5832,1.5832,1.5832,1.5832,1.5792,1.5805,1.7487,1.982,2.2456,1.9361,1.5763,1.5839,1.5765,1.5832,1.5832,1.5832,1.5832,1.5832,1.5832,1.5832,1.5832,1.5832,1.5778,1.5825,1.5372,1.5021,1.4974,1.4502,1.411,1.4108,1.4088,1.4112,1.4137,1.4093,1.3581,1.235,1.2297,1.1852,1.1007,1.0751,1.058,1.0584,1.0586,1.0588,1.06,1.0584,1.0575,1.2776,1.2874,1.2954,1.3228,1.1176,0.9036,0.0,0.0,0.0,0.0,0.0,0.0,0.0,0.0,0.0,0.0,0.0,0.0,0.0,2.2842,2.3603,2.4326,2.4805,2.5166,2.542,2.5156,2.4971,2.4971,2.457,2.4224,2.4031,2.2511,2.1081,1.9755,1.8193,1.6872,1.5798,1.5752,1.5832,1.5832,1.5832,1.5832,1.5832,1.5832,1.5832,1.5832,1.5832,1.5832,1.5832,1.5832,1.5832,1.5832,1.5832,1.5832,1.5832,1.5832,1.5832,1.5832,1.5832,1.5832,1.5832,1.5832,1.5832,1.5832,1.5832,1.5832,1.5832,1.5832,1.5832,1.5792,1.5805,1.9402,2.3082,2.3112,1.9385,1.5787,1.5752,1.5832,1.5832,1.5832,1.5832,1.5832,1.5832,1.5832,1.5832,1.5832,1.5832,1.5818,1.5772,1.4981,1.4292,1.4116,1.4132,1.4064,1.4108,1.4088,1.4068,1.4112,1.4068,1.3536,1.2368,1.228,1.2038,1.1546,1.1025,1.0811,1.0846,1.0954,1.1037,1.1121,1.0873,1.0797,1.2246,1.2877,1.3248,1.4635,1.265,1.0034,0.0,0.0,0.0,0.0,0.0,0.0,0.0,0.0,0.0,0.0,0.0,2.0255,0.0,0.0,2.4268,2.4394,2.4805,2.4814,2.415,2.4346,2.4521,2.4521,2.4131,2.3424,2.2392,2.0798,1.9312,1.8125,1.6777,1.6001,1.5792,1.5818,1.5832,1.5832,1.5832,1.5832,1.5832,1.5832,1.5832,1.5832,1.5832,1.5832,1.5832,1.5832,1.5832,1.5832,1.5832,1.5832,1.5832,1.5832,1.5832,1.5832,1.5832,1.5832,1.5832,1.5832,1.5832,1.5832,1.5832,1.5832,1.5832,1.5832,1.5832,1.5792,1.5805,1.9431,2.3122,2.3066,1.9321,1.5771,1.5785,1.5832,1.5832,1.5832,1.5832,1.5832,1.5832,1.5832,1.5832,1.5832,1.5832,1.5846,1.581,1.5622,1.5212,1.4219,1.413,1.4128,1.4088,1.4088,1.4079,1.4104,1.4125,1.3592,1.2377,1.2283,1.2237,1.2182,1.1764,1.1699,1.1963,1.2436,1.2876,1.3332,1.1933,1.1584,1.2151,1.1811,1.1186,1.3231,1.1687,0.0,0.0,0.0,0.0,0.0,0.0,0.0,0.0,0.0,0.0,0.0,0.0,1.9943,2.238,2.293,2.3223,2.3672,2.3906,2.4053,2.4121,2.4092,2.3799,2.3138,2.2744,2.1951,2.0672,1.932,1.8226,1.7692,1.648,1.5832,1.5832,1.5832,1.5832,1.5832,1.5832,1.5832,1.5832,1.5832,1.5832,1.5832,1.5832,1.5832,1.5832,1.5832,1.5832,1.5832,1.5832,1.5832,1.5832,1.5832,1.5832,1.5832,1.5832,1.5832,1.5832,1.5832,1.5832,1.5832,1.5832,1.5832,1.5832,1.5832,1.5832,1.5765,1.5769,1.7479,1.9196,1.916,1.7472,1.5778,1.5765,1.5765,1.5798,1.5799,1.5765,1.5832,1.5832,1.5832,1.5832,1.5832,1.5832,1.5833,1.5756,1.5763,1.5356,1.4254,1.4071,1.4088,1.4088,1.4088,1.4081,1.4086,1.3482,1.2849,1.2318,1.233,1.227,1.227,1.2783,1.3142,1.3286,1.3026,1.3168,1.3721,1.2454,1.195,1.1351,1.0394,0.9212,1.1023,0.0,0.0,0.0,0.0,0.0,0.0,0.0,0.0,0.0,0.0,0.0,1.8011,1.8803,1.9729,2.2032,2.2334,2.2607,2.335,2.3075,2.3188,2.4209,2.3415,2.2516,2.1871,2.1203,2.0395,1.9131,1.8234,1.7598,1.7225,1.6223,1.5732,1.5732,1.5658,1.5658,1.5732,1.5732,1.5691,1.5625,1.5625,1.5631,1.5631,1.5738,1.5839,1.5839,1.5839,1.5839,1.5839,1.5839,1.5779,1.5833,1.5833,1.5778,1.5832,1.5832,1.5832,1.5832,1.5832,1.5832,1.5832,1.5832,1.5832,1.5832,1.5832,1.5832,1.5765,1.5763,1.665,1.726,1.6077,1.5835,1.5837,1.579,1.6692,1.7131,1.5999,1.5806,1.5832,1.5832,1.5832,1.5832,1.5832,1.5832,1.5833,1.5756,1.5554,1.5048,1.4167,1.4071,1.4088,1.4088,1.4058,1.3967,1.3691,1.2822,1.227,1.2311,1.2305,1.2532,1.3001,1.381,1.4305,1.4577,1.3478,1.3212,1.3749,1.2713,1.2056,0.9061,0.8941,0.8858,0.8987,0.0,0.0,0.0,0.0,0.0,0.0,0.0,0.0,0.0,0.0,1.61,1.7929,1.9495,2.1291,2.3357,2.3652,2.3818,2.4277,2.2953,2.2565,2.3738,2.1409,2.0257,2.1248,2.0322,1.9131,1.787,1.7785,1.7131,1.6015,1.5571,1.5431,1.5431,1.5164,1.5164,1.5431,1.5431,1.5291,1.5023,1.5023,1.5127,1.523,1.5639,1.584,1.584,1.584,1.584,1.584,1.584,1.5812,1.5841,1.5841,1.5812,1.5832,1.5832,1.5832,1.5832,1.5832,1.5832,1.5832,1.5832,1.5832,1.5832,1.5832,1.5832,1.5825,1.5798,1.9209,2.1466,1.685,1.5844,1.5803,1.5803,1.9402,2.1206,1.6714,1.5806,1.5832,1.5832,1.5832,1.5832,1.5832,1.5832,1.5833,1.5756,1.4838,1.4148,1.4067,1.4071,1.4088,1.4088,1.4137,1.3618,1.2501,1.2383,1.227,1.2311,1.2305,1.3155,1.4977,1.4496,1.4733,1.5753,1.4106,1.3692,1.4364,1.2677,1.2083,0.8802,0.8777,0.8819,0.8826,0.0,0.0,0.0,0.0,0.0,0.0,0.0,0.0,0.0,0.0,1.5205,1.8179,1.9213,2.0563,2.3026,2.3389,2.3162,2.2569,2.1898,2.1446,2.1174,2.0119,1.9405,1.9039,1.8466,1.753,1.6288,1.6113,1.5832,1.5291,1.5184,1.5124,1.5124,1.5017,1.4923,1.485,1.5037,1.507,1.4963,1.4963,1.506,1.517,1.5266,1.5473,1.5777,1.506,1.4757,1.4757,1.4757,1.4727,1.4838,1.5541,1.5783,1.5798,1.5772,1.5819,1.5805,1.5778,1.5825,1.5835,1.5839,1.5752,1.5785,1.5798,1.5846,1.5765,1.5765,1.716,1.8085,1.6232,1.811,2.0305,2.0303,2.1776,2.164,1.6714,1.5806,1.5832,1.5832,1.5832,1.5832,1.5832,1.5832,1.5772,1.5805,1.4823,1.4084,1.4104,1.4064,1.4088,1.4088,1.409,1.3581,1.2395,1.2318,1.233,1.2305,1.2305,1.2613,1.3396,1.5491,1.636,1.6035,1.499,1.4606,1.4887,1.2985,1.2483,0.9047,0.8823,0.8978,0.0,0.0,0.0,0.0,0.0,0.0,0.0,0.0,0.0,0.0,0.0,0.0,0.0,1.8382,1.9362,2.1563,2.1878,2.1676,2.0845,2.0395,1.9943,1.9588,1.8752,1.8056,1.7612,1.6941,1.6133,1.5349,1.507,1.4963,1.4963,1.5212,1.5334,1.5334,1.5588,1.5598,1.5383,1.5404,1.5161,1.4689,1.4689,1.4777,1.4879,1.4777,1.4886,1.5184,1.4386,1.4089,1.4089,1.4089,1.4141,1.4148,1.4947,1.5504,1.5824,1.5841,1.5773,1.5755,1.5404,1.5538,1.6048,1.7665,1.7057,1.5821,1.5839,1.5765,1.6153,1.7662,1.6979,1.6218,1.7781,2.0659,2.3114,2.3143,2.1879,1.9775,1.6408,1.5765,1.5832,1.5832,1.5832,1.5832,1.5832,1.5832,1.5765,1.5784,1.481,1.4134,1.4142,1.4088,1.4088,1.4088,1.4096,1.3743,1.2915,1.2895,1.2716,1.2357,1.2276,1.2291,1.2318,1.4872,1.6182,1.6112,1.515,1.4736,1.4665,1.3375,1.3098,0.9547,0.8776,0.0,0.0,0.0,0.0,0.0,0.0,0.0,0.0,0.0,0.0,1.3981,0.0,0.0,1.5734,1.6898,1.8011,1.901,1.9355,1.948,1.9488,1.8403,1.8133,1.9298,1.7011,1.5929,1.7063,1.5819,1.4957,1.4957,1.495,1.495,1.504,1.5669,1.6082,1.6089,1.6932,1.7334,1.7253,1.6563,1.5434,1.4088,1.4088,1.4088,1.4088,1.4088,1.4088,1.4082,1.4082,1.4075,1.4075,1.4082,1.4156,1.4122,1.4128,1.4851,1.5743,1.5867,1.5839,1.5697,1.45,1.4865,1.672,2.1535,1.9608,1.5736,1.5824,1.5755,1.6911,2.1856,1.9477,1.7137,2.194,2.3062,2.3109,2.3066,1.9241,1.5896,1.5782,1.5771,1.5832,1.5832,1.5832,1.5832,1.5832,1.5832,1.5833,1.5756,1.4832,1.4134,1.4064,1.4088,1.4088,1.4088,1.4103,1.4117,1.4117,1.4111,1.3526,1.2407,1.2311,1.228,1.2263,1.2328,1.3569,1.6042,1.4505,1.3745,1.3673,1.3745,1.3745,0.9562,0.8825,0.0,0.0,0.0,0.0,0.0,0.0,0.0,0.0,0.0,1.4832,1.419,0.0,0.0,1.5771,1.639,1.7278,1.8902,1.9004,1.8643,1.7998,1.7584,1.7047,1.6389,1.5776,1.5487,1.5632,1.4987,1.4563,1.4355,1.4148,1.4261,1.4681,1.4896,1.5503,1.6533,1.6748,1.699,1.7253,1.6563,1.6016,1.5514,1.4545,1.4142,1.4088,1.4088,1.4065,1.4131,1.4109,1.4132,1.4128,1.4142,1.5998,1.8687,1.865,1.697,1.5205,1.9462,2.0128,1.9102,1.8799,1.6815,1.4888,1.6342,1.5762,1.4596,1.4619,1.5226,1.6943,2.1851,2.1977,2.1266,2.2734,2.3143,2.2187,1.8728,1.9518,1.9934,1.649,1.5752,1.5832,1.5832,1.5832,1.5832,1.5832,1.5832,1.5833,1.5756,1.5144,1.4606,1.4143,1.4097,1.4111,1.4102,1.4099,1.4142,1.4142,1.4068,1.3959,1.3557,1.2739,1.2326,1.2325,1.2297,1.2639,1.3417,1.4339,1.4386,1.3745,1.4458,1.4736,1.09,0.0,0.0,0.0,0.0,0.0,0.0,0.0,0.0,0.0,0.0,1.526,1.4416,1.428,0.0,1.5123,1.5504,1.614,1.7102,1.7167,1.6934,1.6422,1.6361,1.5937,1.5066,1.5017,1.493,1.4636,1.4342,1.4048,1.3754,1.3567,1.3773,1.4576,1.5019,1.5806,1.7107,1.7491,1.7843,1.8082,1.7215,1.7229,1.788,1.5249,1.4131,1.4061,1.4061,1.3803,1.3414,1.3419,1.34,1.3572,1.5023,1.7267,1.9509,1.9353,1.8189,1.7171,2.0828,2.1441,2.0632,2.0634,1.8824,1.67,1.6668,1.6707,1.6352,1.4622,1.4622,1.5792,1.8729,2.1323,2.3114,2.3147,2.1617,1.9364,1.643,1.8125,1.9287,1.6351,1.5778,1.5832,1.5832,1.5832,1.5832,1.5832,1.5832,1.5833,1.5756,1.5552,1.508,1.4563,1.4228,1.411,1.4108,1.4088,1.4088,1.4088,1.3975,1.3804,1.3747,1.2835,1.2273,1.2309,1.2278,1.2556,1.3078,1.4068,1.4307,1.3745,1.4736,1.5234,0.0,0.0,0.0,0.0,0.0,0.0,0.0,0.0,0.0,0.0,0.0,1.497,1.4529,1.4062,1.3761,1.4008,1.4496,1.4756,1.4516,1.4716,1.4897,1.4917,1.4923,1.491,1.489,1.4636,1.4362,1.4068,1.3774,1.348,1.318,1.3245,1.3689,1.4635,1.5675,1.6756,1.7805,1.8772,1.9248,1.9141,1.8212,1.863,2.0173,1.6403,1.4705,1.4705,1.4705,1.4048,1.3033,1.285,1.2852,1.3195,1.664,1.797,1.7988,1.7501,1.8695,2.0457,2.0555,2.0632,2.062,2.0622,2.0603,2.0601,2.0636,2.031,1.9156,1.5247,1.4432,1.4671,1.4713,1.8905,2.3076,2.2901,1.929,1.5841,1.5769,1.5844,1.5785,1.5812,1.5819,1.5832,1.5832,1.5832,1.5832,1.5832,1.5832,1.5839,1.579,1.5756,1.5622,1.5027,1.4469,1.4143,1.4108,1.4088,1.4088,1.4088,1.3745,1.3466,1.3174,1.2745,1.2492,1.2596,1.2425,1.29,1.4183,1.384,1.3673,1.36,1.4665,1.5163,0.0,0.0,0.0,0.0,0.0,0.0,0.0,0.0,0.0,0.0,1.4329,1.4346,1.4241,1.4045,1.3935,1.3768,1.3848,1.3988,1.4155,1.4235,1.4362,1.4589,1.4616,1.4522,1.4295,1.4215,1.4055,1.3761,1.3467,1.3166,1.2866,1.3598,1.4298,1.5041,1.6031,1.7115,1.8404,1.8627,1.8577,1.8156,1.7528,1.7379,1.7794,1.8793,1.9177,1.9213,1.9167,1.9053,1.8704,1.7314,1.6771,1.6848,1.7714,1.8015,1.7984,1.7908,1.8564,1.9668,2.0356,2.0585,2.0571,2.0576,2.0569,2.0602,2.0572,1.8244,1.5294,1.433,1.6531,1.9156,1.9156,2.1144,2.2765,2.1419,1.8417,1.5819,1.5826,1.581,1.5818,1.5778,1.5805,1.5832,1.5832,1.5832,1.5832,1.5832,1.5832,1.5812,1.5846,1.5839,1.5617,1.5033,1.4863,1.4649,1.4128,1.4088,1.4088,1.4088,1.4028,1.3675,1.3014,1.3454,1.3957,1.4529,1.311,1.29,1.4183,1.384,1.331,1.2659,1.4378,1.4807,0.0,0.0,0.0,0.0,0.0,0.0,0.0,0.0,0.0,1.4089,1.4102,1.3999,1.3848,1.3675,1.3519,1.346,1.344,1.3487,1.3647,1.3667,1.3728,1.3874,1.3895,1.3834,1.3681,1.3667,1.354,1.324,1.3073,1.2852,1.2552,1.3049,1.3777,1.4846,1.5316,1.6296,1.7658,1.7302,1.6989,1.6778,1.5587,1.5463,1.634,1.9286,2.0576,2.0701,2.2573,2.2349,2.0463,1.8687,1.7972,1.8027,1.7992,1.8002,1.8023,1.7986,1.8309,1.872,1.9209,1.938,1.9326,1.9354,1.991,2.0616,2.0562,1.7536,1.4116,1.408,1.7204,2.0575,2.0566,2.1221,2.1144,1.8228,1.7822,1.7656,1.6106,1.5803,1.5832,1.5832,1.5839,1.5832,1.5832,1.5832,1.5832,1.5832,1.5832,1.5785,1.5759,1.5846,1.5658,1.513,1.4972,1.4628,1.4135,1.4088,1.4088,1.4088,1.3821,1.3506,1.3078,1.314,1.3436,1.377,1.2836,1.282,1.3928,1.376,1.3455,1.3025,1.4027,1.4171,0.0,0.0,0.0,0.0,0.0,0.0,0.0,0.0,1.3803,1.3791,1.395,1.3926,1.3406,1.3114,1.2942,1.306,1.3008,1.3048,1.3133,1.318,1.3213,1.3213,1.3213,1.3213,1.3213,1.316,1.3026,1.2842,1.2775,1.2559,1.2318,1.2398,1.3035,1.4215,1.4424,1.5057,1.6265,1.5652,1.5192,1.5062,1.3568,1.365,1.5105,1.8479,2.0124,2.0545,2.3674,2.3194,2.0031,1.8586,1.7997,1.7976,1.7976,1.7996,1.7978,1.8017,1.8014,1.798,1.7996,1.7975,1.8021,1.8005,1.8976,2.0131,2.0138,1.7653,1.4811,1.4759,1.7604,2.0489,2.0222,1.9818,1.8603,1.4955,1.686,1.8725,1.6082,1.5493,1.5541,1.58,1.5839,1.5832,1.5832,1.5832,1.5812,1.5765,1.5798,1.5833,1.5756,1.5712,1.5564,1.5293,1.4967,1.4568,1.4135,1.4088,1.4068,1.4015,1.3554,1.324,1.3133,1.2845,1.2486,1.2309,1.2317,1.2858,1.3954,1.36,1.3455,1.3455,1.3455,1.3455,0.0,0.0,0.0,0.0,0.0,0.0,0.0,0.0,1.2576,0.0,1.3339,1.3729,1.2647,1.2832,1.2981,1.2472,1.2385,1.2536,1.2799,1.3039,1.3213,1.3213,1.3213,1.3213,1.3213,1.2966,1.2869,1.2829,1.2505,1.2345,1.2305,1.2842,1.3234,1.3469,1.4053,1.4395,1.4615,1.4476,1.4016,1.3235,1.3042,1.3019,1.3255,1.6215,1.8282,1.9448,1.9219,1.8828,1.8338,1.8107,1.8006,1.8025,1.8025,1.7978,1.8015,1.7999,1.8036,1.7976,1.8022,1.7978,1.7977,1.7976,1.8171,1.8375,1.8369,1.7925,1.7447,1.7473,1.9007,2.0222,1.8733,1.6656,1.4835,1.4251,1.4553,1.4838,1.4426,1.4366,1.4585,1.5654,1.5839,1.5832,1.5832,1.5832,1.5846,1.581,1.5779,1.5833,1.5756,1.5424,1.5212,1.5659,1.5109,1.4542,1.4115,1.4088,1.3975,1.3721,1.3627,1.3353,1.2903,1.3532,1.345,1.2358,1.2284,1.3187,1.5021,1.3302,1.2519,1.2519,1.2519,1.2519,0.0,0.0,0.0,0.0,0.0,0.0,0.0,0.0,1.188,1.2264,1.2712,1.291,1.2411,1.2516,1.2621,1.2325,1.2324,1.2329,1.2498,1.2619,1.2705,1.2705,1.2705,1.2705,1.2705,1.2579,1.2498,1.2498,1.2225,1.2058,1.2058,1.2199,1.2355,1.2699,1.2945,1.3292,1.3542,1.3092,1.2462,1.1588,1.1588,1.1869,1.2363,1.3368,1.4809,1.6351,1.5991,1.6119,1.6525,1.6558,1.6529,1.6563,1.6565,1.655,1.6346,1.4543,1.5006,1.6646,1.7662,1.8029,1.8004,1.7978,1.8016,1.7985,1.8014,1.8033,1.7993,1.8012,1.8556,1.8488,1.5593,1.5004,1.4892,1.3952,1.3926,1.4092,1.4122,1.4063,1.4408,1.5604,1.5776,1.5766,1.5766,1.5766,1.5817,1.5791,1.5264,1.5035,1.5756,1.5569,1.5286,1.4911,1.4596,1.4303,1.4115,1.4088,1.3961,1.3579,1.3494,1.3206,1.2842,1.3035,1.3375,1.3875,1.3397,1.3252,1.3593,1.2732,1.2305,1.2305,1.2305,1.2305,0.0,0.0,0.0,0.0,0.0,0.0,0.0,0.0,1.1189,0.0,1.1729,1.1882,1.1834,1.2105,1.2278,1.2278,1.2331,1.2305,1.2305,1.2305,1.2271,1.2204,1.2258,1.2271,1.2198,1.2258,1.2271,1.2198,1.1991,1.1837,1.1764,1.1476,1.1471,1.1884,1.1861,1.1963,1.2405,1.1779,1.1128,1.0448,1.0448,1.1008,1.1986,1.1441,1.2105,1.3673,1.3661,1.3865,1.4182,1.3888,1.3918,1.4162,1.4153,1.4187,1.3899,1.1461,1.2629,1.557,1.6915,1.75,1.772,1.7935,1.7976,1.8006,1.7978,1.8008,1.7979,1.7966,1.7306,1.5974,1.3682,1.4121,1.499,1.4036,1.3899,1.3995,1.4075,1.4117,1.4388,1.5205,1.5617,1.568,1.5466,1.5369,1.5342,1.537,1.4615,1.4448,1.5255,1.5408,1.5075,1.415,1.413,1.4097,1.4092,1.3981,1.3821,1.3622,1.3299,1.2953,1.2645,1.2693,1.3353,1.4895,1.4106,1.3455,1.3018,1.2519,1.2305,1.2305,1.2519,1.2519,0.0,0.0,0.0,0.0,0.0,0.0,0.0,0.0,1.005,0.9838,1.0309,1.0719,1.0708,1.1567,1.2294,1.2294,1.229,1.2305,1.2305,1.2305,1.2204,1.1924,1.2138,1.2191,1.1917,1.2138,1.2184,1.1911,1.1877,1.175,1.1463,1.1176,1.1009,1.1055,1.0786,1.0701,1.0744,1.0681,1.0483,1.014,1.014,1.0739,1.1896,1.1213,1.155,1.2581,1.2494,1.1944,1.0931,0.9646,0.9824,1.0836,1.085,1.0852,1.0829,1.0639,1.2666,1.5386,1.5482,1.6081,1.6909,1.771,1.7991,1.8006,1.8016,1.8008,1.8018,1.8027,1.5376,1.3004,1.4632,1.4037,1.3297,1.4307,1.4062,1.3741,1.4028,1.4117,1.4135,1.4148,1.5069,1.5466,1.4353,1.4155,1.4167,1.4193,1.4179,1.4148,1.4167,1.4148,1.4141,1.4109,1.4071,1.4085,1.407,1.3763,1.3514,1.3523,1.3036,1.2639,1.2338,1.3171,1.3833,1.4248,1.3912,1.4171,1.5021,1.3237,1.2305,1.2298,1.3237,1.3171,0.0,0.0,0.0,0.0,0.0,0.909,0.9004,0.9236,0.9515,0.9499,0.9675,0.9979,1.0495,1.094,1.1447,1.2187,1.2331,1.2289,1.2319,1.2104,1.1932,1.1928,1.179,1.1697,1.1597,1.1677,1.1697,1.159,1.141,1.1256,1.1156,1.0695,1.0428,1.0428,1.0147,1.0,1.0,1.0,0.994,0.984,0.984,1.0186,1.0856,1.0154,1.0408,1.1336,1.0447,1.0226,1.0356,0.9875,0.9625,0.9516,1.03,1.0618,1.0751,1.1745,1.3498,1.543,1.5401,1.5609,1.5942,1.6232,1.7062,1.8004,1.8027,1.8008,1.8008,1.8008,1.5226,1.2439,1.3194,1.3556,1.3787,1.3853,1.3936,1.3954,1.4062,1.4126,1.4143,1.4143,1.4421,1.4595,1.4196,1.4104,1.4071,1.4064,1.4137,1.4071,1.4064,1.4143,1.4143,1.4143,1.4142,1.4065,1.4138,1.3274,1.2846,1.3126,1.2995,1.2694,1.2311,1.2592,1.3178,1.384,1.3945,1.4172,1.4577,1.3615,1.2879,1.2298,1.3237,1.3171,0.0,0.0,0.0,0.0,0.0,0.8778,0.8811,0.8837,0.8915,0.9159,0.9207,0.9372,0.9918,0.9977,1.0399,1.1516,1.1703,1.1696,1.1753,1.1861,1.1854,1.1639,1.1414,1.1308,1.1289,1.1369,1.1383,1.1289,1.1009,1.0802,1.0701,1.0234,0.9973,0.9973,0.9786,0.9686,0.9686,0.9686,0.9748,0.9924,0.9924,1.0243,1.0764,1.0089,1.0271,1.1065,0.9961,0.9681,1.0022,0.9802,0.9337,0.8912,0.9845,1.0368,1.0756,1.1781,1.3305,1.4836,1.4653,1.4976,1.5383,1.5387,1.658,1.7992,1.8017,1.8008,1.8008,1.8008,1.5226,1.2305,1.2305,1.2959,1.3468,1.3181,1.3478,1.3784,1.3871,1.4008,1.4065,1.4068,1.4099,1.4065,1.4068,1.4088,1.4088,1.4088,1.4088,1.4088,1.4088,1.4088,1.4088,1.4088,1.4092,1.4103,1.4082,1.2959,1.2419,1.2708,1.2681,1.2743,1.2914,1.2813,1.3375,1.4657,1.4584,1.4535,1.4513,1.4065,1.3331,1.2305,1.3848,1.4088,0.0,0.0,0.0,0.0,0.0,0.0,0.8811,0.0,0.833,0.8679,0.8782,0.8777,0.8798,0.8775,0.9185,1.0352,1.0555,1.0618,1.0597,1.1553,1.1981,1.1174,1.1075,1.104,1.0989,1.1216,1.1256,1.0975,1.0695,1.0408,1.012,0.9826,0.9666,0.9659,0.9659,0.9659,0.9659,0.9717,0.9903,1.03,1.0292,1.0854,1.1765,1.1116,1.1166,1.1765,1.1116,1.0415,0.9814,0.9106,0.885,0.888,0.924,0.986,1.0606,1.0629,1.1966,1.3657,1.3237,1.4078,1.54,1.5371,1.6573,1.7981,1.8024,1.8008,1.8008,1.8008,1.5296,1.2445,1.2305,1.2305,1.2305,1.2305,1.2759,1.32,1.3385,1.3789,1.4077,1.4092,1.411,1.4097,1.4105,1.4062,1.4062,1.4062,1.4068,1.4075,1.4075,1.4075,1.4075,1.4075,1.409,1.4075,1.4036,1.3003,1.2277,1.2318,1.2298,1.29,1.4183,1.392,1.4665,1.6498,1.5649,1.5163,1.5163,1.4505,1.3572,1.2378,1.4832,1.564,0.4505,0.0,0.0,0.0,0.0,0.0,0.8799,0.0,0.8567,0.8415,0.8606,0.8784,0.8818,0.8803,0.8935,0.924,1.006,1.06,1.0606,1.0896,1.1121,1.1324,1.094,1.0711,1.0698,1.052,1.0343,1.0254,1.004,0.9893,0.9806,0.9526,0.9265,0.9058,0.9051,0.9051,0.9051,0.9517,0.9833,0.9956,1.041,1.1065,1.1765,1.1116,1.1484,1.251,1.1325,1.0965,1.1166,1.0012,0.9508,0.9525,0.9579,0.9733,1.005,1.1113,1.1966,1.2838,1.4276,1.5058,1.5381,1.5388,1.6558,1.7984,1.8027,1.8008,1.8008,1.8008,1.7226,1.5799,1.3018,1.2305,1.2305,1.2305,1.2421,1.2524,1.2608,1.2751,1.2811,1.2766,1.3481,1.409,1.4086,1.4093,1.4093,1.4093,1.4097,1.4138,1.4138,1.4138,1.4138,1.4138,1.4068,1.375,1.2893,1.2523,1.2277,1.2318,1.2291,1.2875,1.4175,1.4984,1.5451,1.5587,1.5305,1.4807,1.4099,1.4681,1.4034,1.2298,1.3046,1.328,0.0,0.0,0.0,0.0,0.0,0.0,0.8534,0.8817,0.8738,0.8481,0.8632,0.8804,0.8804,0.8805,0.8422,0.7203,0.7567,0.864,1.0336,1.0572,1.0511,1.0338,1.0474,1.0486,1.0258,0.9989,0.9816,0.9751,0.9637,0.9509,0.9325,0.9152,0.8978,0.8811,0.8804,0.8956,0.9211,0.9614,1.0064,1.0669,1.1015,1.1575,1.2236,1.1841,1.2098,1.2832,1.1733,1.1466,1.1715,1.0364,0.9814,0.9762,0.9584,0.9499,0.9623,1.0685,1.1601,1.2565,1.4174,1.5056,1.541,1.541,1.6103,1.7061,1.7793,1.8008,1.8008,1.8008,1.6862,1.5084,1.2879,1.2305,1.2305,1.2305,1.2269,1.2267,1.2149,1.2214,1.2266,1.2327,1.2844,1.3328,1.3365,1.3385,1.3385,1.3385,1.3353,1.3554,1.4019,1.4107,1.3925,1.338,1.3371,1.303,1.2324,1.2283,1.2315,1.2311,1.2324,1.3375,1.5698,1.6007,1.5965,1.5615,1.5711,1.5092,1.3673,1.4736,1.4625,1.347,1.2686,1.2305,0.0,0.0,0.0,0.0,0.0,0.0,0.7758,0.8564,0.8778,0.8778,0.8811,0.8798,0.8823,0.8791,0.7842,0.4965,0.4484,0.5749,0.944,1.0203,0.9986,0.8906,0.9755,1.0186,0.9633,0.9606,0.9522,0.933,0.9339,0.92,0.8824,0.8804,0.8804,0.8804,0.8857,0.9211,0.9814,0.9969,1.0568,1.1715,1.1873,1.2236,1.2774,1.2871,1.2881,1.2725,1.2021,1.1648,1.1458,1.0249,0.974,0.9747,0.933,0.9183,0.9256,0.99,1.1175,1.2722,1.3468,1.4474,1.541,1.541,1.5381,1.5692,1.7266,1.7706,1.7755,1.7937,1.5547,1.2806,1.2445,1.2251,1.2225,1.2285,1.2251,1.2144,1.1917,1.2044,1.221,1.2253,1.2261,1.2267,1.227,1.2315,1.2315,1.2315,1.234,1.2713,1.3787,1.388,1.3516,1.2444,1.2273,1.2266,1.2266,1.2282,1.2305,1.2305,1.231,1.3988,1.784,1.6693,1.6026,1.6113,1.6244,1.5438,1.3673,1.4522,1.4888,1.4824,1.3082,1.2305,0.0,0.0,0.0,0.0,0.0,0.0,0.5186,0.7139,0.8791,0.8778,0.8791,0.8797,0.8792,0.8817,0.7848,0.4952,0.4509,0.4786,0.5559,0.77,0.9054,0.8817,0.9017,0.9126,0.8994,0.8989,0.8978,0.8918,0.8925,0.8871,0.8811,0.8804,0.8804,0.8804,0.9309,0.9666,0.9814,1.0864,1.1266,1.1015,1.2147,1.2452,1.2021,1.2618,1.2559,1.1972,1.1273,1.0646,1.0069,0.9521,0.95,0.9747,0.933,0.9183,0.9256,0.99,1.1175,1.2647,1.303,1.4163,1.541,1.541,1.5409,1.5451,1.5768,1.5918,1.6173,1.7624,1.7427,1.6149,1.3091,1.1951,1.1717,1.2191,1.1937,1.1643,1.183,1.1724,1.1627,1.19,1.2184,1.2324,1.2302,1.2309,1.2309,1.2309,1.2335,1.2395,1.2652,1.2652,1.2569,1.2312,1.2306,1.2304,1.2304,1.2331,1.2305,1.2305,1.2288,1.4009,1.783,1.6324,1.5601,1.6113,1.4909,1.4099,1.3673,1.3164,1.2893,1.2847,1.2459,1.2305,0.0,0.0,0.0,0.4519,0.0,0.0,0.0,0.5625,0.7079,0.8504,0.8825,0.8804,0.8799,0.8324,0.7154,0.4869,0.4513,0.4488,0.4522,0.6989,0.8802,0.8788,0.8823,0.8805,0.8823,0.8778,0.8804,0.8804,0.8785,0.8791,0.8811,0.8804,0.8804,0.8804,0.9458,0.9814,0.9814,1.0813,1.1209,1.1034,1.1773,1.2088,1.2028,1.2088,1.1811,1.1223,1.0199,0.932,0.8665,0.8677,0.8844,0.9005,0.9123,0.9097,0.9078,0.9519,1.0694,1.2114,1.2613,1.3808,1.5127,1.5342,1.54,1.5379,1.54,1.5407,1.5587,1.6491,1.6707,1.6486,1.5386,1.3279,1.1458,1.1616,1.156,1.147,1.1617,1.165,1.169,1.1837,1.2104,1.2305,1.2305,1.2305,1.2305,1.2305,1.2337,1.2302,1.2318,1.2305,1.2305,1.2305,1.233,1.2303,1.2291,1.2305,1.2305,1.2305,1.2326,1.4009,1.7828,1.7101,1.6315,1.5672,1.3905,1.3025,1.3025,1.2519,1.2305,1.2305,1.2305,1.2305,0.0,0.0,0.0,0.0,0.0,0.4512,0.0,0.0,0.0,0.7473,0.8391,0.8818,0.8803,0.8006,0.6913,0.5562,0.4846,0.449,0.4506,0.6528,0.7991,0.7979,0.8453,0.8824,0.8824,0.8811,0.8567,0.8035,0.85,0.8811,0.8811,0.8804,0.8804,0.8804,0.9458,0.9814,0.9814,1.0466,1.0859,1.0995,1.1153,1.1458,1.1921,1.1305,1.0833,1.043,0.8969,0.8002,0.749,0.7999,0.8237,0.8367,0.8991,0.9044,0.8918,0.9261,1.0307,1.1617,1.236,1.3519,1.4727,1.5156,1.5342,1.541,1.541,1.541,1.541,1.541,1.5405,1.5576,1.6391,1.395,1.1176,1.1051,1.1158,1.1356,1.1416,1.1617,1.1784,1.1784,1.1971,1.2151,1.2204,1.2211,1.2198,1.2138,1.2131,1.213,1.2134,1.2022,1.1945,1.1945,1.2184,1.2301,1.2278,1.2304,1.2325,1.2298,1.2288,1.4007,1.7833,1.7266,1.6183,1.4655,1.3082,1.2305,1.2305,1.2305,1.2305,1.2305,1.2305,1.2305,0.0,0.0,0.0,0.0,0.4519,0.0,0.4512,0.0,0.4569,0.4934,0.0,0.8811,0.8823,0.0,0.0,0.836,0.6173,0.4527,0.4521,0.4789,0.4967,0.4969,0.723,0.8784,0.8784,0.8785,0.7747,0.5198,0.7348,0.8811,0.8804,0.8804,0.8804,0.8804,0.9458,0.9814,0.9814,1.0466,1.0541,0.997,1.0573,1.0741,1.0524,1.0262,0.9943,0.9486,0.7745,0.7002,0.7033,0.7823,0.8306,0.8659,0.9064,0.9163,0.9247,0.9926,1.0732,1.1629,1.256,1.3432,1.4277,1.4717,1.5107,1.541,1.541,1.541,1.541,1.541,1.5387,1.4818,1.215,1.1065,1.0684,1.0689,1.0853,1.1109,1.1369,1.145,1.1476,1.1476,1.1503,1.1534,1.1715,1.1754,1.174,1.1563,1.1523,1.1516,1.1483,1.1093,1.0786,1.0786,1.171,1.2311,1.2294,1.2322,1.2274,1.2285,1.231,1.3985,1.7842,1.4736,1.2853,1.2613,1.2385,1.2305,1.2305,1.2305,1.2305,1.2305,1.2305,1.2305,0.0,0.0,0.0,0.0,0.0,0.0,0.4519,0.0,0.4515,0.449,0.0,0.0,0.0,0.0,0.0,0.0,0.5019,0.4108,0.4437,0.4223,0.4086,0.4474,0.5549,0.696,0.8658,0.8797,0.8313,0.7103,0.8105,0.8795,0.8798,0.8804,0.8804,0.8804,0.9044,0.9193,0.9211,0.9865,0.9956,0.9477,0.9342,0.9432,0.9728,0.8852,0.8384,0.8246,0.6815,0.6266,0.6411,0.7611,0.8428,0.9106,1.0016,1.0287,1.0174,1.048,1.1044,1.1764,1.2439,1.3131,1.3887,1.4849,1.5273,1.5395,1.5409,1.541,1.5216,1.425,1.4675,1.4666,1.1459,1.0617,1.0607,1.0607,1.0856,1.1081,1.1182,1.1443,1.163,1.1456,1.1563,1.1617,1.1321,1.1421,1.1494,1.1443,1.1279,1.1213,1.1202,1.0868,1.0575,1.0575,1.1022,1.1288,1.134,1.1942,1.2312,1.2285,1.2325,1.3004,1.4615,1.3164,1.2318,1.2305,1.2305,1.2305,1.2305,1.2305,1.2305,1.2305,1.2305,1.2305,0.4519,0.0,0.4519,0.4519,0.4519,0.4688,0.5478,0.505,0.4736,0.5491,0.7343,0.0,0.0,0.0,0.786,0.4976,0.0,0.3924,0.4195,0.3881,0.3758,0.4195,0.4385,0.5658,0.852,0.8802,0.8659,0.832,0.8602,0.8789,0.8791,0.8804,0.8804,0.8804,0.8783,0.8776,0.8804,0.9263,0.9263,0.8783,0.8282,0.8365,0.8959,0.7618,0.711,0.7313,0.5793,0.5527,0.6257,0.7472,0.8603,0.9753,1.0991,1.1473,1.1523,1.1209,1.1366,1.1859,1.2439,1.2991,1.3674,1.4586,1.5039,1.5243,1.537,1.541,1.508,1.3416,1.3528,1.3559,1.1226,1.0611,1.0737,1.1354,1.1211,1.1014,1.1286,1.1587,1.1657,1.1363,1.1483,1.147,1.0962,1.1116,1.1283,1.1202,1.1042,1.0962,1.0974,1.0725,1.0581,1.0581,1.0835,1.1022,1.1056,1.2318,1.2841,1.2317,1.2298,1.2278,1.2328,1.2304,1.2305,1.2305,1.2305,1.2305,1.2305,1.2305,1.2144,1.1761,1.2144,1.215,0.4519,0.4519,0.4519,0.4519,0.4519,0.525,0.8021,0.6524,0.5295,0.8104,0.8738,0.8778,0.8818,0.8804,0.7848,0.0,0.4485,0.0,0.0,0.3614,0.361,0.3638,0.4133,0.5645,0.8496,0.8783,0.8297,0.7136,0.815,0.8792,0.8791,0.8804,0.8804,0.8804,0.8804,0.8804,0.8804,0.8804,0.8487,0.7735,0.7735,0.779,0.792,0.675,0.6443,0.6671,0.4386,0.4718,0.6936,0.7404,0.8874,1.083,1.1534,1.2438,1.3275,1.2168,1.1765,1.1922,1.2627,1.3164,1.3516,1.3545,1.4111,1.4873,1.5283,1.541,1.508,1.3416,1.189,1.0698,1.0616,1.06,1.1108,1.3298,1.2161,1.089,1.1927,1.1745,1.1356,1.1062,1.1015,1.0922,1.0692,1.0815,1.0909,1.0628,1.0588,1.0651,1.0638,1.0638,1.0575,1.0575,1.1519,1.2148,1.2129,1.3942,1.4328,1.2452,1.2326,1.2328,1.2328,1.2304,1.2305,1.2305,1.2305,1.2305,1.2305,1.2305,1.1601,1.037,1.1681,1.1768,0.4519,0.4519,0.4519,0.4519,0.4519,0.4743,0.5707,0.5909,0.6159,0.7149,0.8141,0.879,0.8778,0.7252,0.0,0.0,0.0,0.4415,0.0,0.387,0.3595,0.3615,0.5105,0.652,0.7527,0.7621,0.7437,0.7042,0.8101,0.8805,0.8791,0.8778,0.8355,0.7399,0.8296,0.8321,0.7343,0.783,0.7723,0.6966,0.647,0.6437,0.6745,0.5756,0.5514,0.5825,0.4731,0.5205,0.6759,0.7337,0.8867,1.0864,1.1566,1.232,1.3105,1.2972,1.2909,1.2922,1.292,1.2969,1.3154,1.3535,1.3779,1.4121,1.5107,1.5146,1.4743,1.4001,1.3795,1.3439,1.205,1.1138,1.1043,1.2891,1.3539,1.3281,1.1509,1.1145,1.1115,1.0782,1.0862,1.0902,1.0672,1.0705,1.0675,1.0638,1.0624,1.08,1.1351,1.1406,1.1593,1.2151,1.2528,1.2865,1.3228,1.5059,1.6175,1.6069,1.6095,1.4903,1.2408,1.2304,1.2305,1.2305,1.2305,1.2305,1.2305,1.2284,1.1583,1.0295,0.9846,1.0088,0.4519,0.4519,0.4519,0.4519,0.4519,0.4629,0.5128,0.5563,0.6164,0.7177,0.8118,0.8467,0.7473,0.5729,0.4379,0.0,0.0,0.0,0.0,0.3826,0.3576,0.3614,0.5606,0.7008,0.702,0.6259,0.5805,0.577,0.6707,0.7697,0.8744,0.7836,0.6844,0.5905,0.7079,0.7326,0.6357,0.7015,0.6966,0.6199,0.5823,0.5631,0.5547,0.498,0.4234,0.348,0.3757,0.4829,0.6421,0.6988,0.8665,1.0864,1.1266,1.2122,1.3125,1.3242,1.3281,1.3242,1.2969,1.2881,1.2939,1.3311,1.3496,1.373,1.4502,1.4795,1.4762,1.435,1.4547,1.4475,1.2197,1.1658,1.2066,1.3517,1.4219,1.4106,1.2648,1.1568,1.0843,1.0615,1.0715,1.0782,1.0658,1.0624,1.0624,1.0624,1.0624,1.0863,1.171,1.1834,1.2143,1.2887,1.3252,1.3646,1.4311,1.5349,1.6278,1.7024,1.704,1.5621,1.2408,1.2304,1.2317,1.2283,1.2324,1.2337,1.2329,1.2273,1.1148,0.8849,0.85,0.8888]}]]